GFSSGP_sfc_wetblb_000.txt.gz
Wetbulb
60.25 57.33 56.70 53.52 43.63 39.61 35.84 40.06 39.77 41.21 40.85 43.38 45.60 45.38 44.92 45.11 46.07 41.24 52.30 58.72 61.06 62.06 64.39 66.11 69.16 69.11 69.61 70.42 71.01 71.04 71.42 71.24 70.70 70.08 69.21 68.94 68.69 69.00 68.40 68.10 68.21 69.08 69.33 69.63 69.27 68.71 67.80 68.23 69.21
56.17 57.12 53.76 47.44 39.91 34.33 36.34 40.15 41.46 42.16 43.46 44.41 45.07 45.11 42.95 44.02 48.14 49.90 53.34 58.50 60.86 61.62 62.12 63.86 67.94 68.09 68.00 68.11 68.45 68.92 68.85 68.58 67.88 67.76 67.19 66.66 66.82 67.43 67.12 66.06 65.85 66.25 67.02 68.24 67.87 66.64 65.66 65.43 66.29
55.45 55.00 49.73 43.79 37.77 35.59 36.51 40.15 41.07 42.84 43.59 43.92 42.60 44.14 44.56 45.19 47.52 50.07 51.69 56.73 59.52 59.01 60.35 62.64 67.05 67.63 67.37 67.34 67.66 67.47 67.20 67.03 66.87 65.97 66.08 65.71 65.24 64.51 63.42 62.31 61.86 62.00 63.62 64.22 63.16 62.06 61.31 61.01 61.90
52.62 49.36 45.67 39.74 37.52 40.68 40.33 41.06 42.16 42.37 42.86 44.26 43.69 41.69 44.30 46.93 49.20 50.82 53.29 56.83 57.06 57.29 59.50 63.71 66.15 66.53 66.45 66.30 66.96 66.38 66.44 65.77 65.03 64.32 64.11 63.04 62.18 60.76 60.00 59.89 59.50 59.58 60.16 59.95 59.63 59.23 58.97 58.63 58.73
48.95 46.29 40.03 36.90 37.61 40.80 41.55 42.03 42.70 42.15 40.94 42.37 43.64 41.82 42.29 45.53 47.91 50.39 54.51 55.67 55.53 55.99 58.28 60.77 65.35 64.81 64.63 64.94 65.13 64.41 65.12 63.17 62.34 61.65 61.12 60.16 59.36 58.86 58.54 58.25 58.01 58.13 58.31 58.37 58.11 57.79 57.47 57.36 57.56
45.20 43.56 36.52 34.88 37.45 42.40 41.66 43.24 42.39 42.05 41.60 41.20 41.34 40.28 42.83 44.25 47.32 49.64 52.59 52.63 55.09 55.04 56.03 58.34 62.32 63.45 63.31 62.98 62.45 62.06 62.84 61.64 60.52 59.55 59.18 58.67 58.00 57.52 57.21 56.97 56.77 57.01 57.05 57.05 57.08 56.71 56.49 56.60 56.84
43.83 41.62 37.68 35.96 38.78 40.51 42.48 43.36 41.49 42.06 41.18 42.74 42.95 41.14 42.37 41.80 45.73 47.44 50.12 51.49 52.96 53.63 53.56 54.02 55.97 58.98 61.47 61.88 61.40 60.67 60.62 59.91 59.17 58.44 57.84 56.88 55.92 54.85 54.87 55.33 55.50 56.24 56.37 56.48 56.23 55.77 54.27 54.37 54.62
44.81 41.07 37.08 36.33 37.57 40.10 41.90 42.27 42.33 42.76 42.91 43.07 45.50 41.64 41.50 43.48 44.92 44.46 46.08 49.28 50.69 51.18 51.45 51.05 51.35 52.23 52.24 54.90 59.52 59.74 59.29 58.24 57.70 56.58 55.71 54.90 53.63 52.05 52.39 52.42 54.03 55.38 55.19 54.77 54.19 53.13 52.44 52.18 52.33
45.50 37.32 34.70 37.47 38.77 40.80 41.98 41.15 42.55 42.38 41.12 42.58 45.37 42.53 42.75 43.82 43.25 41.34 40.42 42.20 47.47 49.57 49.64 48.99 48.92 48.30 48.21 49.37 53.42 57.29 57.51 56.73 55.93 54.55 54.09 50.30 43.38 44.64 46.08 51.32 52.33 52.76 52.72 52.48 52.26 51.25 49.97 48.79 49.28
43.08 36.47 38.46 42.22 42.96 40.75 42.31 42.31 42.18 40.45 40.74 40.50 42.21 42.18 42.20 42.73 42.30 41.56 39.64 40.41 44.98 46.69 46.76 48.07 47.26 46.17 45.27 49.26 49.22 48.47 48.92 46.71 45.27 44.66 45.21 42.19 40.93 41.97 45.80 48.99 50.35 49.46 49.22 49.56 49.78 48.62 47.11 44.06 40.75
42.91 39.15 42.41 44.78 44.61 43.88 42.75 40.90 43.15 41.05 40.68 42.05 42.86 43.78 41.97 40.81 41.31 42.05 41.85 42.26 42.82 46.16 45.59 46.70 45.76 44.97 43.63 45.44 44.66 43.33 42.97 42.43 42.28 41.20 41.40 41.03 41.49 41.78 40.21 39.74 39.63 38.79 42.01 38.20 39.84 38.96 39.03 38.64 39.12
40.48 44.11 44.22 46.19 46.19 43.24 42.17 42.35 41.56 41.66 46.45 45.56 44.85 42.95 41.47 40.72 41.40 41.96 41.68 41.82 40.99 40.51 43.62 44.38 44.14 43.62 42.43 41.40 42.97 41.39 41.53 40.30 40.20 40.09 40.74 39.36 38.38 38.08 37.88 37.73 37.19 36.45 36.15 35.55 35.88 36.37 37.28 37.24 38.35
42.49 43.55 45.55 45.91 45.43 43.69 43.66 43.37 42.43 42.69 44.65 44.67 44.88 43.71 41.84 42.70 42.49 43.07 43.51 42.66 40.86 39.45 41.88 42.16 43.01 42.55 42.57 40.43 40.83 39.90 39.81 40.70 39.95 39.06 40.12 39.49 37.74 36.86 37.02 36.46 35.90 34.78 34.97 34.69 34.44 35.10 35.50 35.95 36.87
42.00 43.67 43.69 44.07 44.73 44.07 43.55 42.14 42.89 46.26 43.66 44.13 44.26 44.13 41.90 42.57 43.04 42.14 39.90 41.79 40.79 41.56 40.87 41.34 42.52 42.14 41.68 40.07 40.38 40.55 39.64 39.60 38.92 37.37 38.40 38.93 37.21 36.18 36.19 35.49 35.12 34.18 34.16 33.97 34.31 34.10 34.19 34.15 35.29
42.37 40.85 40.90 42.93 42.40 42.25 42.18 39.89 39.85 46.99 42.41 43.54 42.93 42.71 42.85 42.47 43.08 42.75 43.82 42.88 42.71 42.46 41.82 40.40 41.72 41.30 40.68 40.38 40.23 39.70 39.58 39.81 38.22 36.49 36.93 37.37 36.43 35.70 35.01 34.67 33.74 33.57 33.86 33.91 33.46 33.52 33.55 32.96 34.38
37.76 37.85 34.54 40.05 40.76 41.64 41.81 37.45 42.61 44.90 42.13 43.35 43.18 42.30 41.91 43.47 43.36 45.07 45.12 43.68 42.66 42.60 40.79 41.10 42.64 40.77 40.87 40.62 40.05 39.91 39.12 38.70 37.71 35.67 35.25 36.20 36.01 35.23 34.07 33.64 32.92 33.18 32.95 32.72 32.29 32.19 31.63 31.68 31.80
33.17 31.39 32.27 37.07 41.76 40.44 39.01 37.69 42.60 42.18 41.30 41.59 42.74 41.74 42.55 43.92 43.17 44.03 44.84 43.52 42.08 43.02 41.96 40.29 40.98 40.09 40.40 39.20 39.35 38.26 37.35 37.58 37.05 35.09 34.16 34.65 35.15 34.75 33.41 32.80 32.30 32.86 32.32 31.95 32.54 30.90 30.90 30.31 30.84
31.53 30.34 33.20 34.46 38.00 37.84 36.52 37.93 43.02 43.70 40.56 40.10 41.14 40.07 39.81 41.54 44.37 47.24 43.75 44.31 43.66 43.07 42.17 41.17 40.49 39.82 39.75 38.71 36.26 35.20 35.81 35.08 35.76 34.53 33.64 33.78 33.74 33.92 32.56 32.07 32.09 32.25 31.46 31.06 30.71 30.10 30.64 30.42 30.30
33.22 32.67 32.90 36.13 40.12 37.56 37.26 38.74 41.67 44.62 41.93 39.25 41.51 43.64 44.99 45.21 47.57 44.79 43.17 43.42 42.40 41.73 40.80 39.53 39.06 38.59 39.22 37.63 36.48 35.37 36.04 34.49 32.58 33.04 33.76 32.87 32.99 32.86 31.77 31.18 31.19 31.17 30.36 30.15 30.28 30.37 29.77 29.43 29.74
36.62 35.41 35.25 38.45 39.86 36.16 37.66 37.60 41.07 41.34 43.40 44.23 43.95 44.10 43.97 45.02 46.54 41.44 41.21 40.15 40.91 41.35 40.14 38.81 39.14 38.13 39.53 39.68 39.11 36.41 35.03 31.65 33.67 33.14 33.26 33.09 32.55 31.86 31.47 30.76 30.14 30.12 29.45 29.63 29.59 29.71 28.56 29.07 29.13
36.00 34.68 35.71 35.40 36.28 35.06 33.65 34.81 34.94 39.08 41.22 43.31 42.29 43.99 45.49 46.17 46.54 43.04 39.91 38.91 38.95 38.93 38.59 38.27 38.89 38.50 39.54 39.05 36.33 32.25 31.60 30.22 29.44 30.50 30.90 31.09 31.29 31.23 31.16 30.31 29.73 29.23 29.13 28.18 28.42 28.37 28.55 27.15 27.70
35.47 37.97 37.46 34.52 31.42 30.42 33.13 29.83 33.11 36.73 38.30 40.03 41.32 42.22 43.15 44.20 44.04 43.11 39.32 36.91 37.44 38.65 38.35 38.53 38.56 38.31 38.70 37.99 36.19 33.88 35.72 33.39 32.72 33.18 30.77 29.48 30.54 30.49 30.44 30.06 29.28 28.60 28.39 27.85 28.19 29.35 27.99 27.62 26.14
37.68 36.54 34.97 32.35 29.87 28.67 28.88 27.56 31.79 35.85 34.75 38.14 41.88 42.16 43.21 44.36 41.39 40.15 38.83 39.96 38.58 36.63 36.92 37.75 37.60 37.80 37.49 36.67 37.02 35.17 34.86 35.11 30.09 29.30 29.00 29.76 28.80 29.78 29.17 29.09 27.99 27.76 27.93 27.89 28.48 27.46 27.20 27.12 26.71
36.25 34.91 32.55 29.67 28.85 26.19 30.88 30.49 31.46 31.57 35.58 37.01 40.58 42.29 42.85 44.28 40.69 39.69 39.07 37.99 35.31 34.16 35.87 36.45 36.07 36.36 35.68 36.05 35.65 35.00 34.73 31.09 29.98 29.65 29.95 29.15 29.16 28.68 28.29 28.31 27.38 27.31 27.15 27.48 27.39 27.10 26.94 26.61 25.92
34.75 32.21 24.07 21.27 19.63 24.00 31.11 26.42 35.98 35.83 40.06 39.05 40.84 42.19 43.08 43.19 37.70 37.53 37.20 36.47 34.97 34.16 34.34 35.35 35.19 35.15 34.73 34.88 35.13 34.80 34.55 32.31 32.03 30.32 30.78 29.21 28.38 27.87 27.90 27.37 26.63 26.68 26.50 26.55 26.63 26.16 25.71 25.35 24.75
32.77 33.88 28.49 19.19 22.08 29.68 25.21 25.36 33.90 38.55 40.44 40.46 40.60 40.94 39.82 39.10 38.79 38.70 37.25 37.44 36.18 35.38 34.19 35.32 34.85 35.19 35.01 34.90 35.51 34.99 34.64 32.93 33.17 31.21 31.29 30.48 30.05 29.51 28.62 27.33 26.24 25.80 25.83 25.57 25.19 24.84 24.67 24.79 24.98
29.85 28.78 35.73 27.55 15.34 19.08 30.66 32.95 37.55 36.58 38.66 38.21 38.79 38.88 38.70 38.02 38.42 37.81 36.06 35.92 35.26 34.19 34.89 35.13 34.74 35.43 35.04 34.82 35.11 34.13 34.16 33.02 32.94 30.91 30.88 30.62 29.66 28.08 26.32 26.41 25.62 25.01 25.05 24.87 24.07 23.78 23.91 24.37 24.77
34.28 35.39 27.52 26.33 21.27 18.30 26.04 28.18 33.30 36.18 37.25 36.86 38.05 38.65 38.61 37.66 36.32 36.05 35.77 35.64 34.34 34.98 35.20 35.03 35.33 35.54 34.63 34.21 34.37 33.54 33.33 32.43 32.79 28.59 28.99 28.92 27.49 26.29 25.55 25.27 24.97 24.41 24.35 23.93 23.25 23.17 23.64 23.28 23.47
30.83 30.91 31.29 31.40 29.29 27.10 25.69 30.16 34.69 35.20 33.55 35.71 38.19 40.00 37.33 37.39 37.89 37.71 37.22 35.94 34.61 33.81 33.68 34.27 34.58 33.82 32.91 33.25 33.90 32.71 31.71 31.59 30.85 28.47 28.17 27.18 26.72 25.99 25.82 25.38 24.54 23.82 23.32 23.25 22.26 22.24 22.46 21.76 21.26
33.18 34.09 35.18 29.66 26.95 26.79 27.32 29.65 41.68 41.76 41.32 41.66 41.03 40.12 38.37 37.76 38.38 38.22 38.78 36.77 34.70 34.28 33.23 34.35 35.20 34.41 35.04 34.30 33.64 32.15 31.74 30.75 29.44 28.55 27.98 26.72 26.28 25.62 25.27 24.67 23.95 23.13 22.62 21.91 21.60 20.46 20.63 19.17 18.95

GFSSGP_sfc_wetblb_003.txt.gz
Wetbulb
58.22 56.41 54.99 52.21 42.83 39.11 35.17 38.44 41.22 39.92 39.74 42.31 44.46 43.98 44.07 43.77 45.04 40.30 52.01 58.63 60.59 62.64 63.84 67.12 70.07 70.56 71.14 72.15 71.98 71.79 71.68 71.36 70.86 70.61 70.01 69.64 69.23 68.79 68.51 67.76 68.40 69.24 69.50 69.26 68.68 67.69 66.92 67.06 67.32
55.11 55.99 52.82 46.09 39.33 32.66 34.99 38.50 40.08 41.48 41.80 43.09 43.74 43.00 42.59 43.93 47.53 49.25 53.91 58.03 60.76 62.04 63.64 64.69 69.01 70.09 70.14 71.06 71.12 71.24 71.38 70.66 69.75 68.85 67.87 67.36 67.06 67.58 66.85 66.41 66.54 66.95 67.39 67.50 66.16 64.77 63.58 63.32 63.32
54.60 53.34 49.12 42.57 36.24 34.62 35.77 38.76 40.58 41.80 41.81 41.63 41.28 43.30 42.73 44.19 46.24 49.71 54.18 58.77 59.95 60.30 61.85 63.84 68.22 68.75 68.87 69.15 69.44 69.04 68.86 68.39 67.26 66.47 66.83 66.42 65.80 64.96 63.96 63.49 63.31 64.55 64.48 63.13 62.21 61.35 60.61 60.18 60.06
51.87 48.47 44.63 40.00 37.35 40.22 40.31 41.42 40.29 40.56 41.69 43.68 41.99 41.42 42.78 46.34 48.56 50.62 53.15 58.27 57.90 58.18 60.02 64.22 67.15 67.96 67.96 68.20 68.29 67.83 67.54 67.07 66.68 66.30 66.04 65.36 64.00 62.33 61.34 61.05 60.90 61.11 60.76 60.39 59.87 59.29 58.78 58.65 58.42
47.74 44.91 38.18 35.38 36.45 39.67 40.20 41.25 41.55 41.34 39.68 40.88 42.18 40.93 42.23 44.54 46.61 50.27 55.37 57.72 56.79 56.60 58.57 61.97 66.53 67.35 67.00 67.20 67.33 66.82 66.92 66.40 65.80 65.42 64.15 62.90 61.21 60.46 59.96 59.44 59.31 59.20 59.08 58.87 58.32 57.74 57.90 57.92 57.97
44.17 42.34 36.00 33.65 35.87 40.85 42.41 41.71 41.91 40.75 40.20 39.92 39.93 39.67 42.46 42.89 47.17 49.54 54.27 54.91 56.09 56.34 57.61 59.84 64.09 65.43 66.06 66.48 66.19 66.20 65.61 64.54 63.40 62.99 61.72 60.64 59.64 59.12 58.59 58.22 58.32 58.30 58.11 57.91 57.34 57.26 56.98 56.58 56.29
43.19 40.43 36.08 33.43 36.82 38.85 41.99 41.53 40.08 40.43 39.32 41.99 41.71 39.56 41.63 41.78 46.24 50.72 51.96 52.79 54.07 55.25 55.91 56.67 58.51 60.92 63.25 64.58 64.26 64.77 64.08 62.62 61.54 60.73 60.03 59.25 58.24 57.57 57.19 56.73 57.51 57.63 57.57 57.16 56.82 54.97 54.98 54.73 54.45
43.75 40.61 35.07 35.07 35.99 38.69 41.48 40.30 40.83 41.54 42.34 41.47 44.17 41.21 41.45 43.36 45.22 48.27 50.30 51.14 51.69 52.92 53.74 53.67 54.43 55.71 55.98 57.26 61.15 61.97 62.89 61.79 60.57 59.64 58.84 57.81 55.82 55.43 55.43 55.87 56.85 56.71 56.24 55.75 54.28 53.25 52.77 52.88 52.62
43.07 36.24 33.36 35.87 36.96 39.68 40.74 39.79 41.41 41.26 41.19 41.15 43.82 41.52 41.70 42.12 43.53 44.77 44.93 47.14 49.48 51.34 51.56 51.34 51.61 51.75 51.80 52.54 55.59 59.09 60.28 60.04 59.39 57.81 56.78 53.68 45.45 46.52 47.61 52.54 55.55 54.73 54.29 53.81 52.52 51.14 49.80 48.63 49.02
42.17 34.50 36.68 39.68 39.94 41.32 40.91 40.91 41.07 40.81 39.84 39.26 41.37 41.75 40.91 41.52 42.29 44.26 42.72 46.46 48.21 49.83 50.39 50.47 49.45 49.28 48.68 50.79 51.26 51.67 52.47 51.20 49.67 48.62 47.14 42.11 41.17 42.10 45.48 50.33 52.76 51.90 51.39 51.55 50.31 48.61 46.53 42.73 38.88
41.73 38.52 40.78 43.47 44.17 42.96 41.85 39.93 42.14 39.31 40.03 41.16 42.31 43.87 41.31 40.45 40.55 43.17 44.30 46.80 48.59 50.72 50.13 49.32 49.08 47.55 46.41 47.15 47.68 47.52 46.18 44.99 44.09 43.11 42.58 39.61 40.28 42.32 40.78 40.12 38.61 38.24 41.57 37.38 38.93 37.79 37.44 37.31 37.40
40.35 43.04 42.59 44.21 44.75 42.82 41.45 41.65 40.75 41.03 46.02 44.73 44.29 43.10 41.09 40.27 40.79 41.85 42.20 43.34 43.26 46.12 49.06 48.35 47.72 46.43 44.33 44.00 46.06 44.72 43.70 41.84 40.90 39.93 40.56 38.35 38.89 37.80 37.36 37.05 36.02 35.57 35.45 35.02 35.25 35.26 35.89 35.91 36.76
40.98 42.49 44.69 44.66 44.10 43.38 43.26 42.54 41.59 41.64 45.51 43.76 43.82 42.88 41.61 41.30 42.57 43.17 43.77 43.17 41.65 42.04 46.10 46.52 46.46 46.14 44.80 42.33 43.25 42.01 41.63 42.31 40.19 39.00 39.62 38.79 37.76 36.71 36.55 35.90 34.96 34.11 34.33 34.03 33.74 33.97 34.40 34.54 35.40
41.23 42.29 43.09 42.96 43.20 43.35 43.08 44.50 41.48 45.00 43.63 44.22 42.47 42.54 41.25 41.08 42.51 41.35 40.44 42.45 41.19 41.80 41.93 44.16 45.20 45.40 44.13 42.23 42.49 42.58 41.09 40.23 39.03 38.00 38.68 38.54 37.44 36.17 35.89 34.92 34.04 33.34 33.45 33.34 33.34 33.18 32.95 32.84 34.06
41.25 39.86 39.83 40.05 40.88 41.86 41.78 39.83 38.58 45.94 41.86 43.09 41.69 41.77 42.03 41.42 41.80 42.21 44.25 43.47 43.64 42.80 41.29 41.45 43.52 43.80 43.22 42.02 41.02 40.61 40.15 40.17 38.84 37.73 37.86 38.06 37.02 35.72 34.95 34.38 33.02 32.87 33.00 33.17 32.76 32.52 32.13 31.95 32.98
36.93 36.17 33.32 38.49 39.20 39.84 40.50 35.72 43.40 43.36 41.01 42.37 42.65 41.89 41.56 42.77 43.02 44.14 45.52 44.42 43.84 42.61 40.39 40.67 43.33 42.58 42.40 41.67 40.61 40.11 39.40 39.58 38.78 36.53 36.32 37.13 36.45 35.61 34.26 33.53 32.49 32.62 32.25 31.93 31.47 30.98 30.67 30.52 30.67
31.90 30.31 31.35 35.53 40.40 39.60 38.51 35.91 41.95 41.39 40.53 41.00 41.23 42.02 42.91 43.64 42.91 42.72 45.06 44.98 43.32 42.86 41.67 39.70 40.80 41.31 41.24 40.78 40.12 39.13 38.47 38.92 38.13 35.31 35.35 35.56 35.42 35.14 34.44 33.01 31.99 32.06 31.43 31.00 31.33 29.85 29.93 29.32 29.88
30.54 28.68 31.55 31.92 38.26 36.05 35.19 36.29 40.86 43.25 39.49 40.32 42.18 42.81 44.22 45.12 45.68 47.41 43.76 44.11 43.22 41.88 41.89 40.90 40.05 40.63 40.51 39.53 37.97 36.25 36.84 36.15 35.71 36.01 35.08 34.95 35.12 34.25 33.12 32.02 31.59 31.57 30.72 30.17 29.66 29.24 29.59 29.33 28.79
32.48 31.75 31.34 35.10 38.70 34.60 35.86 37.80 39.99 43.04 42.48 43.43 43.61 42.35 44.16 44.81 47.24 47.67 42.67 41.95 41.24 39.71 40.22 39.92 38.73 39.01 39.59 37.53 36.41 36.46 36.80 36.19 35.16 34.59 34.85 34.35 33.72 33.28 32.09 31.08 30.68 30.60 29.93 29.51 29.31 29.33 28.63 28.76 28.48
34.40 33.74 33.88 38.07 39.69 34.35 36.54 36.67 39.05 39.58 41.71 43.26 44.29 44.38 44.85 44.98 45.56 46.00 40.86 39.77 39.73 41.05 40.30 39.55 38.95 38.26 39.38 39.44 39.77 36.55 38.24 33.56 35.25 33.93 33.04 33.23 32.54 32.00 31.39 31.05 30.02 29.72 28.80 28.78 28.90 29.07 27.81 27.97 27.81
34.15 32.91 35.04 34.56 35.29 34.30 32.91 34.76 36.44 37.41 38.64 41.79 43.25 44.22 44.43 44.12 44.52 45.72 40.42 38.99 38.42 38.66 39.16 38.92 39.03 37.96 39.46 39.33 36.85 31.62 30.94 29.85 29.50 30.03 31.68 31.76 31.92 31.66 31.31 30.44 30.12 29.33 28.99 28.06 27.98 27.86 27.77 26.77 27.04
34.41 36.48 36.42 34.16 29.98 29.28 32.26 28.96 31.95 37.49 39.39 40.08 41.00 42.26 41.78 43.14 44.15 43.70 40.29 38.12 38.04 40.11 38.84 38.46 38.51 37.51 39.00 38.51 36.79 35.81 35.21 34.32 33.85 35.25 33.69 30.77 31.04 30.63 30.49 30.19 29.35 28.80 28.30 27.48 27.64 28.35 27.41 26.95 25.86
35.49 36.10 33.76 30.65 28.62 27.80 28.16 25.38 31.03 34.36 35.52 36.96 39.40 40.45 42.05 43.19 42.58 42.73 38.91 39.79 38.94 37.09 36.04 36.72 37.04 37.33 38.25 37.92 37.92 36.38 36.23 36.14 30.43 29.57 29.04 30.19 28.95 29.71 29.41 29.51 28.12 27.70 27.47 27.45 27.88 27.15 26.65 26.12 26.29
35.44 33.08 30.89 28.39 28.33 24.02 29.73 28.89 33.73 31.85 35.36 35.70 38.27 40.48 41.32 41.57 42.10 39.51 39.07 38.33 36.25 33.95 34.46 35.46 35.75 36.36 36.97 37.28 36.91 36.06 36.35 32.10 30.89 30.02 30.31 29.78 29.56 28.74 28.72 28.72 27.84 27.13 26.90 27.06 27.35 27.20 26.72 26.49 25.94
33.15 30.02 23.16 20.63 19.19 23.29 29.06 26.32 35.98 36.19 37.52 38.28 41.23 39.02 39.94 39.84 39.08 42.12 38.63 37.68 34.96 32.99 33.60 34.70 35.24 35.21 35.25 35.80 35.99 35.52 35.68 33.50 32.68 30.67 31.62 29.50 28.76 28.24 27.98 28.05 26.85 27.14 27.18 26.89 27.24 26.61 26.20 25.67 24.82
31.09 31.68 24.84 17.49 20.55 28.10 25.21 24.24 35.56 38.43 39.19 37.94 38.18 38.74 38.35 39.19 40.08 37.54 38.96 36.66 34.59 33.98 33.24 34.41 34.62 34.66 34.50 35.29 35.50 35.44 35.18 34.60 33.45 31.76 31.87 30.64 30.68 30.23 28.80 28.01 27.16 26.08 26.48 26.49 26.27 26.02 25.55 24.90 25.04
30.19 28.18 34.03 27.54 23.28 23.52 30.11 32.24 37.50 36.77 37.14 35.78 36.95 36.40 37.91 38.13 38.58 37.22 37.56 35.19 34.55 32.78 32.73 33.80 33.83 34.79 34.43 34.69 34.95 34.47 34.31 34.04 33.08 30.78 30.97 31.03 30.29 29.44 27.41 27.73 26.32 25.82 26.07 26.18 25.70 25.71 24.64 24.64 24.76
33.82 34.53 26.42 25.21 19.00 19.36 25.88 29.49 32.48 36.53 39.64 36.62 36.69 36.45 38.40 39.16 38.50 37.71 36.98 35.67 34.24 33.66 33.57 33.44 33.51 34.13 33.58 33.74 34.61 34.44 33.93 34.13 33.05 29.82 30.01 30.03 29.44 27.77 26.89 26.55 26.30 25.78 25.68 25.47 24.95 24.13 23.99 23.85 23.97
28.84 28.69 29.70 30.33 27.99 25.35 24.39 29.13 40.18 39.64 35.45 35.17 38.30 39.82 39.87 37.89 39.17 38.79 38.90 37.52 36.05 34.31 34.15 34.47 34.11 33.24 33.18 33.17 34.07 33.84 33.28 33.65 32.47 30.15 30.08 29.76 28.41 27.06 26.82 26.52 25.87 25.52 25.05 24.81 24.13 23.59 23.28 22.89 22.75
33.53 32.27 31.88 26.36 26.65 28.19 29.44 30.60 41.40 42.22 38.56 39.40 41.23 43.25 41.98 38.71 41.48 39.76 39.42 37.98 37.82 36.20 35.07 34.62 35.48 33.92 34.60 34.93 34.63 33.65 33.14 31.87 31.20 30.35 29.16 29.51 27.66 26.90 26.68 26.07 26.00 25.79 25.28 24.38 23.97 22.53 22.77 21.99 21.32

GFSSGP_sfc_wetblb_006.txt.gz
Wetbulb
57.87 55.33 53.60 51.03 42.09 38.52 34.60 37.28 39.68 38.93 40.91 41.37 43.41 42.93 43.12 43.82 44.32 39.67 51.18 58.12 59.75 61.96 64.44 68.08 71.22 72.06 72.27 72.58 72.31 72.18 71.79 72.03 71.11 71.38 70.65 70.38 69.95 69.14 68.48 69.28 69.52 70.15 70.23 69.50 68.50 67.49 66.90 66.41 66.23
53.86 54.55 51.42 44.96 38.85 31.68 33.11 37.83 39.99 40.56 40.72 42.14 42.51 42.35 42.11 43.59 46.53 49.42 52.52 58.40 60.67 62.52 63.77 65.45 69.88 71.33 71.67 72.35 72.30 72.24 72.22 71.50 71.08 70.45 69.60 68.85 68.83 68.77 67.92 67.29 67.47 67.89 68.37 67.22 65.72 64.42 63.39 62.90 62.56
53.32 51.80 48.02 41.21 34.77 32.50 34.65 38.40 39.19 40.46 41.14 41.13 40.37 41.94 44.06 43.44 46.28 48.80 54.23 58.14 60.13 61.24 62.90 64.28 69.10 70.34 70.66 71.45 71.40 71.53 71.44 70.90 69.84 68.58 67.99 67.54 67.29 66.54 65.97 65.76 66.35 66.55 65.73 64.21 63.14 62.04 61.12 60.68 60.62
50.97 47.94 43.79 39.31 35.91 39.34 39.13 41.01 38.80 39.58 40.74 41.98 40.84 40.89 42.31 45.84 47.91 49.58 53.72 58.34 58.93 59.52 61.32 64.97 68.56 69.22 69.75 69.74 70.30 69.73 69.95 68.89 67.81 67.00 67.41 67.02 66.16 65.06 63.85 63.07 63.72 63.27 62.53 61.73 60.85 59.92 59.68 59.40 59.16
46.89 43.57 36.80 34.20 34.89 38.89 39.55 41.27 39.99 39.58 41.01 39.52 41.21 41.60 41.29 43.78 46.25 49.39 55.13 57.90 57.78 57.30 59.19 62.33 67.85 68.58 68.23 68.40 69.06 68.88 68.57 68.04 67.21 66.74 66.61 65.96 64.19 62.56 61.63 60.97 61.12 60.66 60.19 59.53 59.03 59.11 59.17 59.14 57.89
43.33 41.55 35.20 31.77 33.80 39.22 40.89 40.96 39.56 39.08 39.02 38.93 40.82 40.24 42.01 42.58 46.31 48.58 54.66 55.33 56.37 56.64 57.78 60.46 64.91 66.78 67.48 67.69 68.56 68.26 67.66 67.48 66.68 66.23 65.08 63.50 61.80 60.91 60.01 59.61 59.35 59.11 58.95 58.46 58.60 58.04 57.40 56.81 56.39
42.15 39.12 34.52 32.17 34.55 38.11 40.72 39.80 38.25 38.68 40.48 41.34 40.58 40.46 42.34 42.67 45.36 50.23 53.04 53.17 54.27 55.46 56.63 58.12 60.24 62.97 64.81 66.03 66.62 66.85 67.24 66.26 65.46 64.54 63.06 61.29 60.25 59.55 58.80 58.62 58.72 58.87 58.51 58.43 56.41 56.22 55.81 55.70 54.96
43.00 40.42 33.73 33.47 34.03 37.41 40.49 38.84 39.64 40.34 41.11 40.39 42.31 40.97 41.63 43.19 45.86 49.64 50.69 51.24 52.59 53.89 55.10 55.65 56.69 57.91 58.31 59.58 63.29 64.25 64.73 64.38 63.62 62.72 61.51 60.35 59.45 58.69 58.10 58.55 58.35 58.29 57.96 56.45 55.35 54.43 54.31 53.76 52.79
41.61 36.06 32.14 34.91 35.14 38.48 40.27 38.76 42.81 41.04 41.00 39.82 43.24 41.86 42.64 41.29 46.45 47.70 46.28 48.16 49.60 51.95 52.68 53.30 54.05 54.51 54.84 55.12 57.34 60.55 62.47 61.95 61.15 59.96 58.63 54.06 47.77 48.95 49.34 52.37 57.99 57.00 56.38 55.09 53.77 52.32 51.35 50.38 50.09
41.56 33.98 36.05 38.37 37.73 39.31 40.07 40.20 41.27 42.24 40.34 38.90 40.73 42.29 40.33 40.87 43.67 46.53 46.49 48.62 48.97 50.49 51.79 51.92 51.55 52.01 51.89 53.77 53.45 53.86 55.17 54.53 52.75 51.14 49.07 45.18 43.61 44.29 46.66 51.40 56.00 55.56 54.75 53.04 52.11 50.17 47.81 42.37 37.51
40.44 38.20 39.23 41.59 42.14 41.96 41.25 39.65 41.10 39.24 40.15 41.03 41.94 43.31 41.27 40.23 41.24 45.32 47.00 49.24 50.51 51.92 51.86 51.49 50.98 49.92 49.54 50.15 50.09 50.08 49.79 49.01 48.19 46.62 43.85 41.55 40.56 42.93 43.38 42.74 41.60 40.76 43.91 39.30 39.95 37.48 36.51 36.43 36.22
39.55 42.14 41.91 42.72 43.37 41.62 41.20 41.56 40.23 40.91 46.44 45.12 44.14 43.54 40.51 40.56 40.78 43.21 45.21 46.52 47.75 48.54 50.88 51.05 50.22 49.11 48.00 47.63 49.06 48.31 47.82 45.51 44.77 43.57 41.74 38.05 38.14 39.38 39.12 37.29 35.74 35.18 34.98 34.65 34.75 34.85 35.09 35.24 35.67
39.52 41.24 43.53 43.80 42.29 42.98 42.38 42.94 41.53 40.36 44.79 43.98 43.37 42.33 41.79 40.93 40.96 42.35 44.33 45.01 44.55 45.22 49.39 49.71 49.46 49.74 48.64 45.98 46.36 46.15 45.94 45.45 43.37 41.04 40.52 38.13 38.26 37.09 36.48 35.48 34.42 33.62 33.72 33.73 33.28 33.52 33.96 33.96 34.38
39.72 40.84 41.44 41.48 42.33 42.36 42.22 44.00 41.19 43.48 42.22 43.86 41.65 42.33 41.29 40.52 42.07 40.49 40.03 42.47 41.22 44.27 46.12 48.98 48.64 49.58 48.24 46.97 45.72 46.90 45.58 42.80 40.75 39.11 39.54 37.86 37.87 36.40 35.86 34.81 33.83 32.91 33.02 32.83 32.89 32.68 32.46 32.52 33.30
40.32 38.92 38.78 38.77 39.72 39.97 40.47 39.05 37.80 44.99 41.28 42.72 41.68 40.87 40.96 40.97 40.68 41.82 44.61 43.65 43.98 43.61 43.04 45.58 48.08 48.46 47.37 46.94 44.91 45.11 44.14 41.57 40.31 39.46 37.85 37.75 37.34 36.00 35.28 34.45 32.81 32.45 32.41 32.58 32.17 31.75 31.36 31.23 32.19
35.26 35.15 32.55 36.85 37.57 38.75 39.87 33.96 41.71 41.38 38.78 40.63 41.22 41.46 41.26 42.64 42.33 42.82 44.08 44.35 43.88 43.76 41.32 42.30 46.36 46.91 46.72 46.65 44.08 43.51 41.81 41.71 40.70 38.42 37.97 37.68 36.95 35.89 34.47 33.81 32.47 32.13 31.78 31.45 30.90 30.28 30.06 30.00 30.12
31.07 29.64 30.25 34.22 39.09 38.03 37.17 34.67 40.53 39.65 39.14 40.06 40.68 41.62 41.95 44.96 45.07 43.71 43.58 44.10 43.24 43.36 42.64 40.39 42.58 44.26 45.28 45.36 42.87 41.60 40.12 40.47 39.56 37.47 37.40 36.91 36.66 35.63 35.01 33.57 32.03 31.68 30.86 30.39 30.59 29.24 29.33 28.89 29.42
29.88 27.76 29.97 30.58 37.19 34.73 34.04 35.36 40.05 41.63 39.84 39.72 41.18 43.10 44.05 44.50 45.61 47.76 44.38 42.11 42.62 42.30 42.84 41.37 40.78 42.50 42.93 43.01 39.33 36.89 36.50 37.50 36.13 37.11 36.55 36.07 36.65 35.08 34.07 32.59 31.69 31.13 30.23 29.54 29.08 28.97 28.87 28.77 28.26
30.76 30.29 30.21 33.49 37.65 33.22 36.94 37.54 39.17 40.91 39.43 41.81 43.00 42.94 43.31 44.48 46.26 46.52 43.72 41.97 40.53 38.86 39.29 39.82 38.69 40.17 40.80 39.36 37.36 36.37 37.97 36.51 36.29 36.64 36.66 36.12 35.60 34.55 33.81 32.43 31.01 30.49 30.03 29.35 28.78 28.65 28.29 27.74 27.63
32.55 32.16 33.29 36.48 38.18 33.54 34.71 35.50 39.06 40.53 41.34 41.98 42.73 43.56 43.70 43.86 44.35 45.00 41.37 39.39 38.86 39.70 39.15 38.69 38.52 38.62 40.29 40.30 40.18 37.37 39.82 36.07 37.87 36.01 34.45 35.20 33.71 33.56 33.41 32.50 31.14 30.43 28.97 28.45 28.21 28.64 27.41 27.40 26.82
31.21 30.45 33.63 32.66 33.87 32.93 31.33 32.93 33.36 37.55 37.84 40.92 41.60 43.11 41.17 41.48 43.40 44.62 40.41 39.21 38.30 37.47 37.28 38.81 38.63 38.10 39.72 39.24 37.52 31.46 31.53 30.59 30.94 31.24 32.51 32.20 33.48 33.08 33.01 32.26 31.49 30.34 29.72 29.00 27.99 27.66 28.19 26.72 26.49
32.78 35.66 34.95 33.37 29.51 27.70 31.20 27.35 31.36 35.86 37.25 38.03 40.26 38.61 39.33 40.54 40.55 40.61 39.94 38.53 38.77 39.33 37.64 37.78 37.36 37.11 38.66 38.45 36.93 36.18 36.08 35.13 35.86 37.17 36.41 34.07 33.05 32.56 32.20 31.98 31.08 30.38 29.23 27.59 27.91 27.97 27.09 27.44 26.08
33.99 34.78 32.84 30.22 28.32 26.23 26.23 24.57 30.20 32.20 33.95 37.04 38.46 39.33 38.84 39.43 39.06 39.62 39.75 39.40 39.05 37.81 36.32 35.92 36.29 36.26 37.84 38.04 37.64 37.30 37.29 37.66 32.33 32.44 33.06 32.71 31.40 31.82 31.24 31.06 29.80 29.21 29.11 27.81 28.16 26.92 26.62 26.55 26.73
34.33 31.61 29.86 28.03 27.47 22.89 28.75 27.55 33.75 30.64 33.01 35.45 38.69 42.84 39.72 39.85 39.81 39.28 38.92 37.75 37.52 35.04 33.52 33.43 34.61 34.99 35.99 36.88 36.69 37.12 36.85 30.84 31.80 30.28 31.62 30.80 30.21 29.47 29.46 29.96 29.92 29.48 28.65 27.77 27.99 27.17 26.70 26.23 26.05
31.83 28.87 22.30 19.97 18.94 22.53 26.98 25.10 34.33 36.93 39.23 37.77 38.40 38.57 38.87 38.69 37.68 37.97 37.98 37.14 36.31 33.87 32.13 32.18 32.75 32.78 33.78 35.01 35.36 35.69 35.47 32.31 33.52 31.69 32.66 30.62 30.05 30.04 29.94 30.01 29.00 28.12 28.58 27.60 27.39 27.12 26.35 26.07 25.47
30.07 31.45 23.92 19.67 17.71 26.83 24.00 24.39 35.47 37.77 38.76 38.85 37.06 37.54 36.45 37.84 37.86 37.52 37.89 35.42 34.94 33.91 31.84 32.70 32.55 32.40 32.34 33.22 33.82 33.35 33.46 33.31 33.76 32.13 32.75 31.52 31.99 32.07 30.17 28.98 28.42 28.01 27.37 27.13 27.06 26.80 26.17 25.43 25.61
28.93 28.10 33.22 27.64 28.31 22.61 29.83 31.47 36.93 39.01 35.77 35.91 34.15 35.37 36.22 37.99 38.08 38.67 38.29 36.01 34.29 33.12 32.38 32.30 32.17 32.70 32.18 32.11 32.31 32.31 32.56 32.62 32.48 30.32 30.61 31.50 31.83 31.01 28.55 28.89 27.64 26.83 27.06 26.92 26.47 26.70 25.65 25.44 25.17
32.73 33.35 26.20 25.46 20.84 18.91 24.95 28.18 30.90 36.62 39.47 37.52 36.40 36.06 37.36 37.59 38.00 38.05 38.87 37.88 35.02 33.60 32.42 32.32 32.44 32.58 32.15 32.31 33.52 33.70 33.46 33.72 32.45 30.46 30.53 30.11 30.37 28.64 27.51 28.15 27.61 26.64 26.96 26.73 26.39 25.78 24.94 24.77 24.45
30.80 28.64 28.69 29.42 28.35 24.45 23.27 28.58 36.95 38.97 40.12 36.01 35.75 38.69 38.79 35.97 35.66 36.24 36.89 37.26 37.40 35.74 33.80 32.64 31.84 31.45 31.41 31.14 32.27 31.54 30.66 31.39 30.98 30.09 30.43 30.51 28.96 28.03 27.37 28.16 27.40 26.72 26.52 26.50 26.18 25.87 24.75 24.60 23.66
33.25 34.15 33.20 28.17 26.09 27.52 27.91 28.09 39.67 39.34 41.03 36.79 33.43 33.34 34.43 34.06 33.53 34.60 35.17 35.41 36.00 36.94 38.20 37.56 34.28 32.82 32.58 32.06 31.95 30.50 31.08 30.10 29.49 29.94 29.60 29.58 28.55 27.85 28.16 27.75 27.03 26.89 26.90 26.29 26.27 24.92 24.67 23.88 22.97

GFSSGP_sfc_wetblb_009.txt.gz
Wetbulb
58.59 56.73 55.85 53.81 45.89 42.76 39.67 41.58 43.84 44.22 45.26 46.96 46.33 46.89 47.21 47.74 47.21 44.99 54.47 60.09 61.67 63.12 66.91 70.91 71.68 72.46 72.65 72.78 72.46 72.24 71.54 71.58 71.98 71.57 70.85 70.59 70.38 70.00 69.85 70.22 70.52 71.22 70.56 69.99 68.97 67.28 66.92 66.51 66.39
55.60 56.29 53.67 48.23 41.83 36.95 37.31 42.07 43.27 44.59 46.63 47.10 46.78 47.52 47.42 47.58 50.17 52.74 56.86 58.99 61.72 64.03 67.24 69.78 70.66 71.98 72.43 72.77 72.55 72.15 71.57 72.17 71.35 71.53 71.01 70.50 69.81 69.32 68.12 68.10 68.67 69.57 68.79 67.84 65.96 64.59 63.99 63.52 63.44
55.17 53.14 50.07 43.96 38.37 36.54 38.08 42.52 44.07 45.29 45.71 46.76 46.72 47.98 48.33 48.72 50.51 53.18 57.05 60.54 61.78 64.26 66.86 67.97 70.30 71.95 72.26 72.50 72.43 72.21 72.13 72.25 71.50 70.83 69.76 68.69 68.08 67.54 66.77 66.57 67.04 67.03 66.85 65.24 63.84 62.50 61.85 61.50 61.10
52.83 50.27 46.29 42.64 39.39 41.73 41.93 44.98 43.67 44.68 45.64 45.70 46.63 45.57 47.17 50.10 52.17 53.45 56.75 60.11 62.01 63.38 65.28 67.06 70.01 71.07 71.17 72.17 72.01 71.80 71.94 71.69 70.31 69.12 68.15 68.06 67.27 66.13 65.36 65.09 66.02 65.42 64.32 63.13 61.59 60.79 60.71 60.49 60.03
48.52 45.86 39.97 38.15 38.42 41.41 42.80 44.32 45.01 44.14 44.74 45.46 45.95 45.72 45.91 50.05 50.57 53.13 57.54 59.84 61.44 62.36 64.08 66.25 69.02 70.11 70.68 70.43 71.04 70.75 71.01 69.85 69.14 67.69 67.34 67.33 66.33 65.11 63.81 63.33 63.48 62.57 61.57 60.48 60.25 60.21 60.20 58.56 58.35
45.37 44.25 38.20 35.75 37.24 40.71 42.64 44.39 44.20 43.79 44.61 44.69 44.69 45.36 46.78 49.25 49.71 52.39 57.17 59.32 60.72 61.40 62.05 64.27 66.25 67.78 68.93 68.57 69.64 70.08 69.84 69.65 68.31 67.32 66.54 66.29 65.04 63.29 62.12 61.90 61.40 60.86 60.09 59.72 59.64 58.84 58.09 57.72 56.96
44.29 41.47 37.83 37.03 37.53 39.94 43.58 43.68 43.36 44.20 44.31 44.83 46.04 45.28 47.60 47.14 49.07 52.44 56.56 57.83 58.90 59.97 60.67 62.50 65.02 66.00 65.37 66.33 67.27 68.15 68.81 68.53 68.04 66.82 66.11 65.09 63.02 61.77 60.69 60.35 60.15 60.12 59.70 59.19 58.28 57.72 57.34 56.68 55.44
44.70 43.05 38.58 37.56 37.69 39.63 43.66 42.86 43.88 44.18 45.16 45.27 46.50 44.95 46.18 49.53 48.97 52.58 54.95 56.22 56.94 57.78 59.22 60.59 62.48 63.33 64.90 65.93 64.35 65.51 66.55 67.05 66.68 65.86 64.40 62.22 61.63 61.11 60.48 60.34 60.22 59.72 59.44 57.72 56.91 56.52 56.03 55.20 53.66
44.93 38.71 35.28 38.00 37.23 40.39 43.20 42.39 43.87 44.44 44.42 44.10 45.71 45.87 47.57 45.50 49.71 51.40 53.06 53.72 54.55 55.23 56.82 58.40 60.03 60.99 61.79 62.38 62.68 63.13 64.05 64.17 63.70 62.60 60.64 58.97 57.27 57.30 57.22 56.42 59.89 59.04 57.84 56.40 55.38 54.89 53.61 52.11 50.88
43.25 37.11 38.13 40.26 39.78 41.39 43.12 42.82 44.16 43.79 44.02 42.93 44.27 45.59 45.17 44.84 48.04 49.70 50.70 52.65 53.27 54.42 55.56 56.21 57.76 58.69 58.65 58.44 60.44 61.75 61.84 62.16 60.28 58.88 56.91 53.68 52.97 52.81 52.24 54.00 58.09 58.45 56.78 54.90 53.57 51.59 48.45 44.15 43.69
42.22 39.94 40.80 41.85 41.70 42.85 43.01 42.01 43.94 42.73 42.51 44.30 44.34 46.23 45.07 43.96 44.97 48.05 49.93 52.16 53.46 55.25 55.31 55.04 55.82 56.78 56.71 57.04 57.25 57.65 58.59 57.98 56.61 55.28 52.24 50.34 49.61 50.73 51.02 51.98 51.21 51.20 49.83 49.16 48.05 44.36 42.97 43.01 42.89
40.63 42.63 42.31 44.10 44.02 42.85 42.66 43.12 42.35 42.78 47.73 48.10 45.96 46.46 45.33 43.87 43.69 45.35 48.22 50.17 51.57 52.18 54.25 55.02 54.75 54.43 54.93 55.17 55.55 55.73 55.68 54.67 53.67 52.46 49.81 47.71 46.55 47.89 48.12 48.08 47.05 46.69 44.94 43.27 42.41 42.21 41.91 41.57 41.03
40.90 41.89 43.74 43.75 43.16 43.34 43.19 43.64 42.88 42.73 46.10 45.66 45.24 44.11 44.36 43.67 44.15 44.78 47.24 49.42 50.42 50.14 52.41 53.54 54.05 54.46 54.25 52.93 54.02 53.80 54.28 53.36 52.82 50.10 47.75 46.62 44.87 45.90 45.88 45.05 43.09 42.41 41.03 41.21 40.86 40.95 40.65 40.59 40.08
41.06 41.73 41.57 41.69 42.68 42.37 42.60 44.03 42.60 44.22 45.01 45.01 43.34 44.88 43.62 42.94 44.70 43.63 43.26 45.23 46.25 49.40 50.51 52.75 52.80 54.17 53.83 53.09 52.65 53.21 53.14 52.41 50.04 49.10 47.54 44.56 44.47 44.65 44.34 41.90 40.59 40.01 40.25 40.07 40.19 40.03 39.75 39.67 39.66
40.70 39.28 39.57 39.19 40.44 40.36 41.03 39.46 38.84 45.26 42.01 43.87 44.79 43.18 42.93 42.80 43.17 43.82 46.34 45.35 46.15 46.81 48.94 50.48 51.93 53.07 52.84 52.81 51.87 52.26 51.72 49.21 49.15 48.12 46.04 44.15 43.07 42.90 42.46 41.25 39.53 39.39 39.24 39.05 38.72 38.06 38.11 38.43 38.26
36.88 35.94 33.94 38.68 38.66 39.38 41.17 36.36 42.12 42.68 40.75 41.60 42.03 43.57 42.55 45.10 44.67 44.78 45.66 45.66 46.14 46.41 45.24 47.21 50.61 51.26 52.14 52.39 51.79 51.14 50.27 49.00 49.05 47.10 45.60 43.78 42.42 42.22 41.00 40.40 39.19 38.53 38.13 38.43 38.28 37.57 37.08 37.65 38.07
33.19 30.89 31.17 34.52 39.29 38.66 38.33 36.10 40.53 40.89 40.24 40.70 42.40 43.92 45.57 46.05 47.12 47.60 45.44 45.72 45.94 45.64 45.44 44.46 47.86 49.87 50.63 51.53 51.54 50.45 48.50 48.65 48.10 45.65 44.23 43.01 41.79 41.15 41.02 40.22 38.91 37.63 37.31 37.32 36.94 35.98 37.01 36.63 36.76
30.80 29.04 30.29 31.63 38.32 35.46 35.41 35.37 40.34 41.81 41.36 42.55 43.52 44.09 43.87 44.62 45.76 47.81 46.58 45.47 44.81 44.66 45.21 44.76 44.31 47.78 49.15 49.82 49.49 47.52 44.97 47.26 45.69 44.40 43.05 41.93 41.83 40.32 40.13 39.24 37.95 37.12 36.52 36.05 35.77 35.94 35.25 36.63 36.52
32.11 30.87 30.01 34.89 37.98 34.46 37.33 37.42 38.68 41.13 40.40 41.46 43.01 43.90 44.29 44.44 46.63 46.26 45.06 45.16 44.40 42.83 42.21 42.60 41.54 44.17 46.52 46.45 43.76 42.46 42.61 44.06 42.08 43.43 42.69 41.72 41.54 40.14 39.72 38.82 37.18 36.52 36.42 36.14 35.59 35.25 35.17 34.60 34.75
33.08 31.82 32.36 35.25 37.54 33.73 34.81 36.30 39.89 41.16 41.89 42.77 42.84 43.39 42.90 42.74 44.68 45.53 43.59 43.53 43.15 43.27 41.55 41.22 40.93 41.99 44.41 45.37 45.42 44.58 44.86 43.54 43.13 42.21 41.08 41.60 40.62 39.66 39.00 38.16 36.95 36.01 35.50 34.74 34.55 34.97 33.70 34.20 33.66
31.51 31.03 33.23 32.07 33.43 34.02 31.86 32.44 34.03 38.98 38.50 40.13 41.83 42.23 41.70 41.25 41.87 42.84 43.08 42.80 42.75 42.29 41.25 40.48 40.69 40.77 42.80 43.79 42.89 36.28 37.43 36.44 37.55 37.38 38.08 38.65 39.04 38.64 38.77 37.94 37.07 35.79 35.96 34.71 34.39 34.91 35.38 33.94 32.76
30.87 35.12 34.13 32.14 30.13 27.28 33.16 27.28 31.78 37.61 37.90 38.87 39.27 39.70 39.74 40.64 41.74 41.13 39.77 41.46 40.88 41.70 41.31 40.20 40.30 39.63 41.35 41.82 40.67 40.66 40.31 38.91 39.15 40.61 40.05 38.30 38.27 37.91 38.23 37.26 36.53 35.90 35.33 34.72 34.10 34.31 35.06 34.82 33.30
33.70 34.27 32.44 31.17 29.29 27.82 28.02 25.13 31.08 33.56 35.02 37.12 39.25 40.79 41.12 40.45 39.94 41.33 40.77 40.60 40.55 38.62 38.55 38.86 38.71 38.58 40.38 40.21 40.75 40.31 40.56 40.80 38.56 39.53 38.46 37.30 36.51 37.04 36.05 36.40 35.60 35.13 34.47 34.75 34.15 33.05 33.23 34.24 34.26
34.44 32.52 30.35 29.06 28.75 23.62 29.37 28.54 30.62 31.88 35.51 35.62 38.39 41.40 40.48 40.36 40.28 42.51 40.24 39.45 38.62 37.47 36.01 36.22 36.65 36.46 37.88 38.95 39.30 39.49 39.66 37.30 36.88 36.65 36.63 35.76 34.94 34.65 34.94 35.04 34.94 34.94 34.53 33.58 33.39 33.86 33.60 33.38 33.33
33.34 30.36 23.96 21.77 20.15 22.89 27.48 25.73 32.92 36.09 39.28 38.23 40.29 39.68 38.43 39.20 39.41 39.58 38.81 37.82 37.18 36.41 34.99 35.16 34.87 35.06 35.80 36.83 37.38 38.25 38.25 35.84 37.46 36.54 37.06 34.73 33.47 33.40 33.53 34.06 33.96 34.00 33.93 33.33 33.36 32.73 32.95 32.38 32.42
30.28 31.31 26.55 20.37 20.75 27.57 23.37 26.35 36.07 36.74 39.29 38.73 37.88 37.07 38.55 38.62 37.67 36.77 36.92 37.06 36.89 36.29 34.92 34.55 34.12 34.28 34.64 34.87 35.37 36.06 36.35 36.28 36.55 35.75 36.16 35.21 35.11 35.07 35.00 33.73 34.14 33.39 32.40 32.24 32.42 32.65 32.71 32.50 32.56
29.02 27.96 33.50 27.64 25.78 24.55 29.35 31.78 38.88 39.65 36.74 36.81 35.44 34.32 33.37 34.18 34.89 35.21 36.04 36.45 37.29 37.24 36.04 34.70 33.96 34.20 34.56 34.11 34.35 34.50 34.52 34.51 35.06 33.84 34.70 35.43 35.88 35.08 34.69 33.17 32.21 31.83 31.50 31.39 31.23 31.03 30.46 30.70 31.57
32.84 34.38 27.30 26.00 20.34 20.71 26.44 29.36 31.58 35.82 32.63 32.29 32.20 31.86 31.70 32.36 32.63 34.06 35.04 35.40 36.40 37.44 37.59 37.44 36.61 34.95 34.66 34.30 34.07 34.36 34.29 34.41 33.98 32.87 32.81 33.11 33.75 32.69 31.69 31.89 32.04 31.41 31.32 31.18 30.69 30.83 30.36 29.69 29.90
29.12 28.61 29.16 29.67 28.43 24.64 23.29 28.04 35.59 30.09 30.88 29.93 29.29 29.40 29.63 30.43 31.64 32.86 34.12 35.35 35.99 36.54 36.46 36.03 36.40 35.57 35.40 35.88 35.22 33.61 33.51 33.63 33.38 31.86 32.07 32.52 32.19 31.34 30.72 30.95 30.94 30.14 29.95 30.01 29.73 30.30 29.27 28.88 28.64
32.25 32.92 33.28 28.65 27.13 27.74 29.01 29.10 38.39 29.65 29.44 28.19 26.48 27.97 29.22 30.36 31.59 32.70 33.51 34.81 35.51 35.09 35.43 34.96 35.19 34.73 34.52 35.02 35.02 34.76 33.20 32.35 31.97 32.22 31.86 31.63 31.14 30.76 30.77 30.34 30.11 29.91 29.78 29.45 29.33 28.90 28.61 28.53 27.34

GFSSGP_sfc_wetblb_012.txt.gz
Wetbulb
62.55 62.13 63.70 61.53 51.04 49.98 45.88 47.11 49.49 49.22 49.17 50.93 51.56 51.58 51.13 52.14 49.97 47.96 59.65 64.04 64.60 65.94 70.62 72.15 72.35 73.05 72.82 72.77 72.92 71.96 71.60 71.94 72.18 71.79 70.96 70.42 70.91 70.85 70.76 70.93 71.40 71.02 70.67 70.04 69.08 67.94 67.20 66.80 66.12
61.06 60.44 62.01 58.04 47.41 43.67 44.66 48.53 48.16 49.95 50.45 51.12 51.08 51.23 51.06 50.64 54.67 56.38 59.94 63.26 65.01 65.99 70.14 71.69 71.19 72.61 72.84 72.83 72.71 71.96 71.53 71.63 71.97 71.64 71.17 70.78 70.03 69.19 68.58 69.39 70.45 69.87 69.01 68.29 66.82 65.23 64.23 63.90 62.84
59.23 58.42 55.80 51.90 48.41 43.93 45.01 48.39 49.35 49.50 50.39 50.79 50.86 52.09 52.28 52.24 54.48 57.65 61.18 63.83 65.08 65.87 69.18 70.76 70.63 72.27 72.66 72.91 72.68 72.22 71.54 71.85 71.63 71.68 71.32 70.63 68.96 67.66 67.25 67.05 66.90 67.24 67.21 66.21 64.23 63.14 62.33 61.54 61.52
59.69 58.17 55.04 47.64 44.85 47.86 47.46 49.62 50.77 50.87 49.78 50.22 50.75 49.70 52.36 55.18 55.85 58.32 60.75 64.69 65.15 66.01 68.15 69.34 70.79 72.06 72.41 72.65 72.45 71.88 71.60 72.11 71.65 71.38 69.83 68.67 67.72 67.40 65.76 65.93 66.80 66.61 65.50 64.34 62.59 61.70 61.18 60.49 59.61
58.82 55.60 48.38 45.68 44.92 47.10 49.53 50.19 49.90 49.39 49.65 50.01 50.08 49.91 50.86 53.53 55.62 57.60 61.61 64.17 65.20 65.98 68.12 69.60 70.00 71.37 71.92 72.10 72.26 71.97 71.84 72.25 71.24 69.70 68.86 68.59 67.98 66.61 65.44 65.28 65.56 64.62 63.36 62.02 61.34 61.31 59.73 58.96 58.22
53.32 53.75 45.63 43.68 44.61 47.29 49.44 50.52 49.47 49.28 49.68 49.63 49.15 49.99 52.02 54.24 54.34 57.10 61.30 64.11 65.45 65.88 67.73 68.94 67.42 68.82 70.19 70.85 71.56 71.62 71.96 71.43 69.98 68.88 67.52 67.81 66.83 65.61 64.34 64.00 63.67 62.84 61.45 60.83 60.75 59.75 58.49 57.89 57.02
50.60 49.57 44.98 44.88 45.39 46.78 48.88 49.08 48.91 49.55 49.46 50.17 51.15 49.14 53.00 53.56 54.24 56.71 60.31 63.74 64.90 66.19 66.82 68.01 68.90 68.44 66.57 68.20 68.55 69.46 70.18 69.69 69.42 68.57 67.68 67.48 66.32 64.38 63.00 62.46 61.83 61.36 60.53 60.39 59.35 58.51 57.83 56.80 55.51
54.38 51.61 45.28 46.13 45.24 44.97 49.29 48.62 49.73 49.67 49.78 50.46 51.59 49.51 50.38 54.18 54.32 57.36 59.82 62.02 63.47 64.90 65.78 66.64 67.86 68.42 68.51 68.52 64.48 65.85 67.75 68.04 67.88 67.13 65.36 64.49 63.76 63.19 62.24 61.25 61.25 60.55 60.26 59.04 58.33 57.75 56.71 55.44 53.67
51.81 47.47 44.68 44.87 44.46 46.22 49.34 48.23 48.89 50.45 50.07 49.85 51.38 52.38 54.70 52.49 54.56 56.49 58.24 59.86 61.46 62.15 64.10 65.55 66.14 67.09 67.48 67.36 65.68 63.88 64.78 65.52 65.23 64.79 62.66 61.23 63.02 61.38 59.95 59.51 61.08 60.39 59.31 58.12 57.21 56.45 54.90 52.93 51.00
50.87 46.97 46.03 48.28 48.35 47.35 48.98 48.62 49.70 48.90 50.16 50.86 50.90 53.34 53.21 51.89 53.77 54.86 56.32 57.72 59.46 60.76 61.79 63.40 64.48 65.15 65.72 65.56 66.76 67.00 67.04 67.07 66.54 65.84 64.73 63.59 61.69 60.32 58.82 57.37 59.05 60.45 58.55 56.74 55.87 54.21 50.68 47.71 49.19
50.02 46.93 49.54 48.35 48.66 48.14 48.13 48.60 49.61 49.21 48.32 51.09 50.97 52.59 54.10 52.23 52.65 53.17 54.96 56.85 58.71 60.76 61.62 61.54 62.64 63.96 64.41 64.52 65.05 65.79 66.35 66.91 66.31 65.37 63.74 62.04 59.47 57.99 57.41 57.82 58.37 58.59 55.59 55.17 53.62 50.37 48.12 48.06 48.33
46.77 49.66 49.77 50.07 49.09 48.43 47.90 49.76 48.38 49.46 50.43 52.71 53.37 53.80 53.25 52.56 52.46 52.75 53.71 55.50 56.91 58.52 60.43 61.45 61.56 62.16 63.22 64.15 63.77 64.39 64.82 65.12 64.00 63.34 61.48 59.30 58.13 56.84 55.87 56.58 57.24 56.89 55.18 53.40 50.90 48.19 48.01 47.24 46.18
46.91 48.80 49.63 50.11 48.89 48.93 49.79 48.40 48.80 49.33 52.03 53.06 52.97 52.04 51.23 51.99 52.54 53.62 53.96 54.65 56.20 56.61 58.34 59.87 61.01 61.09 61.74 62.37 62.62 62.91 62.97 63.17 62.80 61.50 59.64 58.37 56.93 55.24 54.48 55.20 55.21 54.75 53.06 50.68 47.77 47.47 46.61 46.11 45.12
47.92 47.46 47.84 48.16 48.03 48.45 46.49 47.92 47.27 49.11 51.59 50.76 51.05 51.10 51.94 51.66 51.83 52.45 52.52 52.23 53.18 55.07 56.63 58.55 59.44 60.28 60.78 61.15 61.39 61.70 61.77 62.23 62.08 60.32 58.42 57.18 56.04 54.05 52.88 53.26 52.87 52.14 50.15 47.90 47.25 46.67 46.22 45.78 45.33
46.55 44.37 46.69 47.22 46.73 45.94 47.01 44.53 44.86 49.96 49.98 48.86 49.82 50.92 51.15 51.30 52.05 51.13 52.88 53.05 53.44 53.92 55.37 56.34 57.85 59.10 59.64 59.90 60.58 60.79 60.68 60.34 60.50 59.11 58.01 55.80 54.87 52.72 51.28 51.34 50.95 49.53 47.38 46.49 46.24 45.39 45.26 44.57 43.89
43.81 43.24 40.94 46.43 44.34 45.24 46.21 41.59 47.27 49.54 47.34 47.60 48.89 49.84 50.49 51.36 52.06 53.01 53.15 52.71 53.65 53.85 53.39 54.45 55.33 57.13 58.28 59.16 59.70 59.64 59.81 58.91 58.60 58.36 57.22 55.04 53.29 51.84 50.11 49.76 48.88 47.30 45.64 45.43 44.94 44.27 43.72 44.03 43.51
42.78 39.32 40.79 42.16 45.38 43.92 44.33 42.32 46.73 48.70 47.17 46.95 48.18 49.05 49.72 50.41 51.29 52.47 53.36 53.57 53.16 53.36 53.01 52.67 53.72 54.99 56.40 58.00 58.62 58.95 58.31 58.09 57.65 57.48 56.34 54.48 52.10 50.75 49.37 48.50 47.95 45.73 44.65 44.42 44.33 43.72 44.00 43.07 42.91
40.61 40.15 40.47 39.66 44.48 44.16 41.97 41.68 44.74 46.53 46.29 46.06 47.26 48.29 49.22 49.76 50.57 51.90 52.05 52.48 52.74 53.15 52.90 52.66 52.26 53.10 54.92 56.45 57.11 57.47 56.92 56.66 56.66 56.41 55.13 53.81 51.69 49.34 48.47 47.30 47.09 44.88 43.87 43.58 43.59 43.03 43.05 43.74 42.85
41.57 40.17 39.39 42.32 44.72 42.30 41.67 42.19 44.02 46.21 46.37 46.21 46.90 48.06 48.90 49.55 50.99 51.30 51.12 51.15 51.11 51.60 50.95 50.66 50.71 50.73 52.84 53.31 53.53 54.57 54.07 53.92 54.38 54.89 53.70 52.91 51.45 49.21 47.91 47.11 45.94 43.95 43.48 43.62 43.05 42.77 41.20 40.90 42.04
40.96 39.01 39.23 42.71 43.83 39.93 41.56 40.95 43.77 45.32 45.77 47.07 47.25 47.69 48.43 48.77 48.70 49.32 49.13 49.52 48.91 49.07 49.89 49.52 49.06 49.22 50.62 52.33 53.13 53.45 52.85 52.94 53.10 53.00 52.03 51.85 50.40 48.65 47.03 46.68 45.37 43.80 43.33 43.00 42.33 41.61 40.76 41.71 41.28
40.20 38.51 39.77 39.57 41.54 42.25 39.92 40.98 41.98 45.84 45.25 46.66 46.42 47.40 47.29 46.73 46.58 46.86 46.88 46.25 46.05 45.43 45.73 46.40 47.65 47.90 48.55 50.45 51.34 51.05 48.78 49.81 49.75 49.85 49.55 48.99 49.48 48.04 47.03 46.01 45.21 44.00 43.88 42.76 42.63 42.34 42.02 40.34 39.98
37.34 42.77 40.28 38.45 37.13 36.38 39.84 34.25 42.31 44.69 44.42 44.65 46.15 46.92 46.86 46.73 46.42 44.62 43.82 43.33 43.24 42.96 44.28 44.86 45.42 46.12 46.31 48.26 48.18 47.82 46.48 45.58 46.67 47.29 47.56 47.56 47.69 47.22 45.96 45.74 44.79 44.23 43.44 42.99 42.65 42.44 42.94 43.92 39.67
39.98 39.79 38.00 37.03 36.89 35.37 38.20 34.32 41.66 41.27 41.43 43.55 45.59 45.14 45.42 44.43 43.28 42.25 42.22 42.54 42.78 42.35 42.21 43.01 43.85 43.69 44.64 45.65 46.44 45.95 45.91 47.32 47.63 46.31 46.55 46.25 45.70 45.69 44.88 44.64 44.15 43.30 42.72 43.30 42.57 41.11 41.57 42.61 43.07
39.38 38.91 37.51 36.87 36.79 32.13 38.53 36.11 38.69 40.72 41.07 42.88 42.94 42.10 41.34 41.46 41.91 41.73 42.49 42.71 41.96 42.46 42.01 41.58 41.80 41.47 42.69 43.60 44.34 44.29 44.51 45.05 44.52 43.84 44.10 44.66 44.10 43.57 43.57 43.30 43.59 43.30 42.09 41.88 41.71 41.43 41.47 41.57 41.91
38.42 37.05 33.84 32.66 32.38 31.36 36.69 33.66 38.67 43.34 42.67 40.32 40.32 39.38 39.57 40.28 40.29 40.08 39.81 40.35 40.83 40.61 40.79 40.56 40.63 39.64 40.55 40.95 41.85 42.49 42.95 43.58 43.20 43.54 43.35 43.35 42.45 41.54 41.69 41.71 41.91 41.85 41.82 41.60 41.06 40.36 40.23 40.59 40.54
37.85 38.27 33.78 26.51 28.56 32.23 31.88 31.97 38.71 43.08 40.43 39.73 39.40 38.95 38.86 38.66 39.37 39.25 39.49 39.61 39.71 39.53 39.76 40.21 39.73 39.20 39.83 39.87 39.67 40.47 40.66 41.39 42.21 42.63 42.98 42.93 42.57 42.45 42.22 41.11 41.44 41.41 41.00 40.35 40.22 39.50 39.39 39.41 39.61
37.01 34.22 39.47 33.05 34.02 29.88 34.79 38.97 43.37 43.11 37.63 38.17 37.21 36.89 35.49 36.04 37.04 37.70 38.83 39.29 38.56 38.79 38.60 39.00 38.35 38.32 39.05 39.59 39.84 39.42 39.78 39.58 40.01 40.69 40.90 41.61 41.92 41.56 41.65 40.64 39.80 40.54 40.49 39.72 39.18 38.10 37.49 37.41 38.13
37.90 40.35 32.65 32.35 24.66 23.91 30.74 33.63 35.62 36.85 35.90 35.42 34.22 33.53 34.24 34.68 35.21 35.97 37.26 38.08 38.00 38.32 38.51 38.04 38.72 37.13 37.31 38.35 38.98 39.22 39.08 38.53 38.85 39.42 38.44 38.64 39.75 39.81 38.98 39.68 38.87 39.74 39.42 38.38 37.76 37.71 37.73 36.75 37.07
36.21 32.89 33.67 33.54 31.73 26.39 25.09 30.92 39.43 37.80 34.33 32.99 32.04 32.06 32.23 33.21 33.79 35.12 36.25 37.91 37.49 36.96 37.33 36.99 36.66 36.29 35.62 36.23 37.19 37.72 38.11 38.17 37.86 37.36 38.26 38.07 38.21 38.04 37.48 37.86 37.60 37.74 37.40 37.35 37.07 36.98 36.55 35.16 35.55
37.61 36.31 36.21 29.73 28.05 31.01 29.70 30.22 36.07 33.26 32.39 30.86 29.44 30.04 31.65 32.47 33.37 35.02 35.48 35.58 36.43 35.03 35.36 35.51 35.47 35.17 34.94 34.86 35.26 35.16 35.69 35.87 36.06 37.02 37.03 37.31 36.73 37.45 36.51 36.81 36.17 35.99 35.64 36.24 35.34 35.23 34.69 33.66 33.57

GFSSGP_sfc_wetblb_015.txt.gz
Wetbulb
63.64 63.29 63.32 61.25 52.02 50.33 46.78 48.09 51.20 50.29 50.86 52.90 53.09 52.43 51.57 52.53 50.33 48.86 61.75 64.93 65.60 67.08 70.49 71.86 72.72 73.39 73.20 72.87 72.84 72.55 72.11 72.08 72.31 72.12 71.51 71.72 71.33 71.03 71.33 71.73 71.65 71.15 70.79 69.95 69.40 68.74 67.39 66.93 65.49
61.64 60.93 61.55 55.94 48.55 45.04 45.46 49.83 48.85 50.88 52.28 53.14 52.99 52.70 52.22 50.82 55.43 56.84 60.45 64.59 65.76 66.79 70.44 71.27 71.62 72.90 73.02 72.82 72.91 72.35 71.81 72.07 72.21 71.66 71.04 70.78 70.90 69.65 69.49 70.86 70.83 70.21 69.23 68.25 67.52 66.14 64.96 64.01 63.07
61.38 59.88 55.31 51.73 48.60 45.21 45.72 49.51 50.49 51.62 53.35 52.23 51.95 53.95 53.03 52.32 56.01 58.26 63.14 65.14 65.86 66.44 70.24 71.41 71.41 72.84 72.89 72.87 72.94 72.24 71.63 71.79 71.97 71.73 71.23 70.66 69.93 69.00 68.31 67.35 67.99 68.13 67.71 66.60 65.34 64.00 63.20 62.19 61.23
59.46 58.01 55.36 48.19 46.06 48.15 48.17 50.19 51.50 51.63 52.41 52.31 52.47 50.82 54.36 56.56 56.89 60.07 62.53 65.52 65.58 65.90 69.17 70.21 71.34 72.51 72.80 72.99 72.73 72.03 71.52 71.49 71.95 71.87 71.54 70.13 68.09 67.34 66.32 66.22 66.76 66.97 66.24 65.01 63.55 62.49 61.84 60.83 59.32
58.74 55.14 48.85 46.95 46.59 48.07 49.99 51.20 51.88 50.98 51.81 51.85 52.04 50.78 52.31 56.07 57.65 59.44 62.45 65.13 65.58 65.76 67.72 70.43 70.56 71.57 72.16 72.54 72.84 72.35 71.77 71.52 72.43 72.34 71.29 70.18 67.91 66.92 65.65 65.62 66.49 66.01 64.85 63.31 62.14 61.62 60.12 59.16 57.98
53.49 53.32 46.73 45.29 46.13 48.44 50.96 52.34 51.86 51.39 51.88 51.92 50.75 51.48 52.80 57.29 56.49 58.28 61.53 64.65 66.12 66.11 67.23 68.31 68.18 69.63 70.96 71.76 72.14 72.17 72.12 72.28 72.31 71.38 70.12 68.64 67.88 66.59 65.58 65.13 65.37 64.66 63.26 62.07 61.70 60.18 58.79 58.01 56.78
52.04 50.27 46.88 46.65 46.41 47.42 49.46 52.07 50.83 50.73 50.71 50.93 53.11 49.44 53.23 55.49 56.97 58.42 60.78 63.75 65.47 66.68 67.01 67.99 69.12 69.35 67.19 69.05 69.89 70.81 71.43 71.70 70.80 69.77 68.83 67.94 67.62 66.16 65.23 64.30 64.09 63.25 61.86 61.38 60.64 59.04 58.17 57.08 55.52
54.14 51.26 46.78 47.40 45.69 46.04 50.32 50.98 52.15 50.88 50.22 53.09 53.65 49.79 50.82 56.60 56.97 58.69 60.82 62.34 64.41 65.69 66.77 67.42 68.22 68.63 69.18 69.67 66.08 67.24 68.80 68.77 68.59 67.81 66.24 65.70 65.20 64.83 64.15 62.81 62.93 61.99 60.93 60.51 59.46 58.62 57.47 56.02 53.97
54.92 47.93 45.77 46.92 46.35 47.16 50.95 49.17 51.69 53.25 51.09 52.29 53.27 52.97 54.98 55.78 56.74 57.98 59.40 60.60 62.36 63.70 65.74 66.82 67.18 67.95 68.13 68.22 67.17 64.25 65.69 66.30 66.23 65.56 63.31 62.51 65.14 63.81 62.00 60.69 61.98 61.53 60.99 59.57 58.64 57.66 56.26 54.03 51.57
51.40 48.19 47.55 50.23 49.70 48.41 49.80 49.81 50.34 50.27 50.28 50.81 52.31 54.94 56.07 55.98 55.31 55.83 56.81 57.94 60.03 61.71 63.50 65.55 66.43 66.84 67.51 67.15 67.60 67.25 67.41 66.91 66.94 66.68 66.03 64.61 65.01 63.32 60.72 58.51 60.35 61.46 60.21 58.87 57.95 56.49 53.90 51.61 50.64
51.72 47.48 50.19 50.68 51.29 51.04 49.58 49.21 51.00 49.47 48.27 50.74 50.65 52.39 54.07 54.93 55.22 54.70 55.45 56.84 58.25 60.95 62.56 63.57 65.01 65.99 66.35 66.76 66.89 67.25 66.91 66.71 65.53 66.90 66.40 65.00 64.45 62.09 60.06 59.62 58.78 59.72 56.68 56.35 55.78 52.79 49.63 50.78 50.59
48.48 50.41 50.81 51.52 51.70 50.11 48.93 50.63 49.36 50.02 50.44 53.02 53.42 53.91 53.93 53.70 53.81 54.35 54.81 55.76 57.01 58.30 60.55 62.86 63.50 64.22 65.39 65.86 65.77 66.24 66.10 66.82 66.99 66.85 66.29 65.03 63.16 60.67 59.04 58.35 58.70 59.71 57.41 56.44 55.16 51.64 51.66 49.71 48.80
48.69 49.47 50.30 51.17 51.08 50.64 50.79 48.92 49.04 49.44 52.15 53.28 53.42 53.30 53.08 53.49 53.91 55.01 55.59 56.20 56.86 56.97 58.73 60.93 63.43 63.05 64.03 64.76 65.36 65.08 65.35 65.67 66.44 66.06 65.75 64.13 61.64 59.17 58.15 57.47 58.33 58.61 56.99 55.41 53.13 50.38 49.27 49.11 47.59
49.76 48.94 49.02 49.63 49.36 49.59 47.83 48.37 49.22 49.81 52.15 51.66 51.72 51.71 52.38 52.80 53.40 54.19 54.69 54.77 55.53 56.57 57.66 59.69 61.32 62.93 62.78 63.44 64.40 64.30 64.85 65.17 65.27 64.89 64.20 62.85 60.75 58.80 57.06 56.39 57.04 56.84 55.55 53.76 50.70 49.58 48.81 48.24 47.92
48.45 45.09 47.55 48.37 49.04 48.05 48.47 45.53 46.45 50.77 51.44 50.13 50.25 50.86 51.52 52.12 53.01 53.05 54.10 54.60 55.23 56.48 56.93 58.42 60.15 61.81 61.97 62.46 62.99 63.74 63.89 63.81 64.01 63.84 63.21 61.60 60.22 58.23 56.20 55.16 55.35 55.24 53.96 51.62 49.71 48.90 48.67 47.38 46.61
45.31 46.11 42.09 47.71 47.17 47.45 46.81 42.08 47.94 50.22 49.46 48.78 49.60 50.21 50.95 51.80 52.50 53.75 54.36 54.45 55.26 55.24 55.68 56.84 57.13 59.12 61.21 61.44 62.08 62.74 63.12 62.89 63.11 63.19 62.25 60.43 59.19 57.56 55.20 53.71 53.71 53.78 51.00 48.69 47.89 47.16 46.50 46.48 45.52
45.57 40.73 42.86 44.34 48.23 46.41 45.39 42.91 47.76 49.73 48.83 47.98 49.15 50.07 50.63 51.16 52.51 53.55 53.61 53.68 53.92 54.43 54.36 55.10 56.33 57.04 58.89 60.57 61.30 61.74 62.05 61.79 61.93 62.03 61.22 60.11 58.06 56.68 54.01 52.64 52.56 51.78 48.41 47.14 46.64 46.01 46.04 45.45 45.18
42.48 42.69 43.74 43.02 47.21 46.05 44.99 44.50 47.32 48.86 48.76 48.75 49.68 50.42 50.73 51.01 50.91 51.09 51.36 52.08 52.43 53.17 53.57 53.86 54.33 54.78 56.25 58.06 59.71 60.62 60.67 60.71 60.84 60.41 59.85 59.24 57.63 55.86 53.51 51.74 51.12 49.44 47.08 46.12 46.22 45.56 45.96 45.74 44.94
44.39 42.84 41.98 44.43 47.26 45.58 44.01 43.81 45.73 48.50 48.93 48.88 49.79 50.33 50.24 49.97 50.48 50.17 49.38 49.21 49.01 49.30 49.34 50.51 51.48 52.95 53.36 54.96 55.95 57.05 57.16 58.37 58.62 59.19 58.96 58.14 56.95 54.89 53.00 50.78 49.77 47.72 46.04 45.68 45.96 45.56 44.36 44.53 44.19
43.24 41.43 41.35 44.52 46.61 42.88 43.16 43.11 45.69 47.86 47.97 49.57 48.68 48.81 48.58 48.81 47.83 47.19 46.75 46.65 46.10 45.67 46.44 47.48 48.69 50.58 51.34 53.02 54.70 55.50 55.99 57.05 57.25 57.36 57.15 56.79 56.02 54.05 51.79 50.10 48.43 46.88 45.45 45.34 45.02 44.39 42.67 43.89 43.12
42.43 40.72 40.97 40.92 43.58 44.57 43.36 41.94 45.96 48.22 49.73 50.02 48.45 48.24 47.71 45.71 45.01 45.18 45.02 44.85 44.94 44.26 44.64 45.38 46.35 48.00 49.46 50.96 52.40 53.08 53.70 51.16 52.36 53.72 54.52 54.33 54.33 53.61 51.53 49.77 48.34 46.60 45.35 44.35 44.53 44.14 42.79 41.10 42.01
39.11 44.83 42.52 40.99 39.33 37.21 42.94 34.19 42.38 46.44 47.07 45.95 46.06 46.28 44.88 44.60 44.70 44.38 43.71 43.21 43.31 43.70 44.82 45.16 45.25 45.57 46.51 48.46 49.43 49.49 49.04 47.28 49.53 49.73 51.70 51.97 52.22 52.15 51.11 49.28 48.52 46.63 45.08 44.56 44.19 44.13 43.53 43.33 39.40
41.52 42.13 41.13 40.83 39.18 39.06 39.92 37.96 41.57 45.45 43.81 45.11 44.54 44.00 43.97 43.89 43.21 42.78 42.96 43.10 43.38 43.70 44.09 44.71 43.99 43.61 44.45 45.72 46.28 46.58 46.28 47.77 49.13 48.52 47.52 49.16 49.67 49.77 50.30 48.82 47.81 46.34 44.96 44.61 44.04 42.68 42.90 43.60 42.20
41.99 40.68 41.08 41.03 39.38 33.48 39.96 38.73 39.15 41.26 42.37 41.80 42.43 42.34 42.70 42.77 42.91 42.82 43.23 43.00 42.15 43.31 42.92 43.66 42.98 42.57 43.45 43.21 43.46 43.60 43.79 44.46 45.27 46.55 45.52 46.69 47.46 47.90 47.70 47.51 46.55 46.19 44.99 43.92 43.84 42.88 42.38 42.41 42.95
39.80 38.14 33.70 33.09 33.84 32.58 41.52 36.53 39.44 44.21 45.07 43.88 41.66 40.92 41.54 42.22 42.01 41.67 41.26 40.87 40.75 40.63 41.23 40.81 40.91 40.48 42.10 42.44 41.99 41.74 41.52 42.15 42.74 43.75 44.37 44.96 45.31 45.44 45.21 45.86 44.69 44.58 44.44 43.91 43.67 42.31 41.34 41.57 41.33
41.07 40.47 34.35 26.98 29.28 33.80 38.64 33.20 39.16 43.03 42.42 42.32 41.87 40.73 40.34 40.02 40.46 40.27 40.59 40.16 40.15 39.89 39.57 40.14 39.24 38.27 39.79 40.59 40.96 41.41 41.11 40.82 41.09 41.64 42.15 42.92 43.94 44.73 45.64 44.34 44.29 43.78 43.67 43.10 42.76 41.75 41.13 40.89 40.88
39.31 35.73 40.03 32.78 33.70 30.81 35.01 39.09 43.38 43.93 40.34 39.85 38.56 38.17 37.31 37.73 38.53 38.89 39.78 39.67 38.96 38.96 38.59 38.41 37.79 37.45 37.49 38.33 39.53 39.64 39.85 39.87 39.24 39.98 40.66 40.39 40.86 41.63 42.33 43.35 42.66 42.09 42.28 41.75 41.31 40.23 39.62 39.58 39.88
39.94 43.15 33.46 33.66 25.18 24.32 31.36 33.60 35.36 40.85 40.48 37.50 36.25 35.66 36.08 36.83 37.03 37.65 37.78 39.02 38.19 38.04 38.38 37.84 37.35 36.11 36.12 36.50 37.32 37.35 37.41 37.97 38.57 39.46 38.73 38.93 39.15 39.09 39.51 39.68 40.54 40.04 40.10 40.12 39.64 38.88 38.71 38.48 38.30
37.81 35.12 36.00 35.42 32.46 26.05 24.78 30.94 39.87 38.92 38.72 36.07 34.56 34.61 34.86 35.07 35.34 36.74 36.56 36.90 36.76 36.29 36.32 36.16 35.75 34.88 34.08 35.15 35.60 35.72 35.43 35.12 35.54 35.29 36.18 37.15 37.60 37.78 37.58 37.66 37.62 38.06 38.08 38.83 38.22 37.73 37.43 36.66 36.81
40.49 37.08 37.07 30.11 28.85 31.41 29.92 29.85 42.67 37.50 35.94 34.70 32.64 32.92 33.78 34.05 32.63 34.41 35.74 34.81 34.73 34.64 34.71 34.19 34.64 34.01 33.94 33.71 34.29 34.35 34.48 33.86 33.10 32.89 33.35 34.75 34.87 36.27 36.26 36.78 36.04 35.98 36.66 37.40 36.97 35.92 35.12 35.84 35.23

GFSSGP_sfc_wetblb_021.txt.gz
Wetbulb
60.58 57.05 55.62 52.70 43.76 41.58 37.29 40.50 41.89 44.41 43.64 45.84 47.29 46.14 44.23 44.91 45.57 41.55 55.24 60.02 65.81 67.69 69.89 71.59 72.67 73.50 73.63 73.43 73.09 73.07 73.19 72.61 72.03 71.76 71.38 71.45 71.53 71.13 70.97 71.83 72.49 71.97 71.20 70.75 69.99 69.32 68.16 66.25 65.55
55.37 57.82 52.94 47.90 40.18 35.32 36.81 40.55 42.99 44.64 46.20 46.06 46.86 46.47 44.74 44.61 50.18 53.89 55.29 61.30 63.87 67.75 69.68 70.82 71.73 72.95 73.56 73.25 72.95 72.99 73.18 72.98 72.22 71.92 71.95 72.27 71.66 71.39 71.23 72.02 71.59 70.91 70.15 69.61 68.95 67.86 66.00 64.81 63.31
57.24 56.17 47.21 42.32 38.26 35.63 37.21 40.61 41.40 45.50 46.89 46.11 44.98 47.12 45.04 46.54 50.31 54.97 58.25 61.71 62.83 67.34 68.95 70.86 71.42 72.90 73.36 72.99 72.68 72.55 72.80 73.02 72.80 72.36 72.24 71.72 71.26 70.91 71.16 70.80 70.22 69.61 68.81 67.96 67.02 66.01 64.57 62.72 61.22
53.43 50.76 46.89 39.95 37.24 40.35 39.63 40.35 43.83 44.52 45.65 46.97 45.64 43.90 46.54 48.65 51.79 56.25 60.05 61.79 60.48 66.42 68.40 70.18 71.84 72.98 73.20 72.81 72.70 72.44 72.51 72.80 73.15 72.20 71.44 71.43 70.52 70.43 68.81 69.13 69.11 68.62 67.60 66.61 65.45 64.55 63.15 61.11 59.55
50.74 46.16 39.73 38.11 39.19 41.20 42.00 44.47 44.79 43.99 43.75 45.14 45.99 44.13 44.82 50.29 54.67 57.64 59.32 61.15 59.31 61.97 67.19 69.84 71.23 72.39 72.75 72.73 72.70 72.54 72.54 72.62 72.93 72.65 72.21 71.53 70.82 68.76 67.05 67.32 66.89 67.61 65.92 65.13 64.40 63.22 61.39 59.58 58.00
46.18 43.65 37.23 35.21 37.77 42.08 42.89 45.00 44.16 44.10 44.22 44.01 42.84 43.40 43.88 49.44 50.31 53.72 58.83 59.49 60.33 61.13 67.74 69.49 68.71 70.05 71.22 71.92 72.10 72.15 72.23 72.18 72.40 72.61 72.33 71.91 69.86 68.40 66.43 65.70 66.10 65.90 65.32 64.04 63.65 61.54 60.13 58.49 56.75
45.47 41.09 37.11 37.81 38.50 40.24 44.02 44.95 42.06 41.78 42.94 43.53 45.45 40.94 45.38 47.07 50.93 53.03 56.08 57.86 59.63 60.68 66.46 68.25 69.07 68.94 68.22 69.51 70.09 70.90 71.46 71.47 71.55 72.05 71.86 70.68 68.88 68.38 67.55 66.00 65.84 65.30 65.10 63.56 62.78 60.32 59.10 57.69 55.81
45.55 42.02 38.05 38.22 38.30 39.44 43.91 44.10 45.10 43.19 43.49 46.21 45.61 40.87 43.71 48.47 52.28 53.14 53.74 55.22 57.05 59.83 61.59 65.91 66.83 67.79 67.71 68.13 66.60 67.88 69.14 69.72 70.03 69.98 68.64 66.71 66.52 66.33 65.25 63.88 65.03 65.04 64.03 62.97 61.64 59.65 58.89 57.25 54.77
46.78 38.47 35.92 38.40 39.87 40.00 44.31 43.11 45.09 45.62 43.76 44.69 46.87 45.11 47.17 49.38 51.52 50.80 51.89 53.29 54.62 57.91 60.70 61.83 65.05 65.95 67.04 66.53 66.32 65.23 66.48 67.14 67.27 66.94 64.70 63.12 62.88 62.58 61.86 61.71 63.77 64.67 63.43 62.37 60.75 59.44 58.07 55.88 52.40
42.93 37.75 40.07 42.75 41.13 41.27 44.02 42.51 42.40 43.05 42.91 42.64 44.22 46.04 46.46 49.91 48.44 49.28 49.35 50.83 52.10 54.27 57.44 61.00 61.91 64.60 65.79 68.02 66.52 65.43 66.12 66.48 66.43 65.45 64.37 63.68 61.51 60.47 60.48 59.01 61.37 62.83 62.27 62.13 60.33 58.97 56.98 51.77 43.45
44.19 39.63 43.57 45.76 46.09 45.35 44.57 44.58 44.27 41.83 40.86 44.22 44.13 45.50 47.31 46.88 46.82 48.08 47.93 49.42 51.25 53.59 56.04 59.74 61.31 62.03 63.99 65.62 64.30 65.84 66.67 64.60 64.55 65.72 63.80 63.11 62.27 60.74 58.09 56.35 57.10 56.48 57.48 55.59 56.38 54.20 49.11 46.77 43.82
40.99 45.70 45.36 46.65 47.00 45.29 43.45 45.05 44.42 43.62 45.78 46.95 46.70 46.90 45.92 46.91 47.03 46.58 46.89 47.83 48.00 50.23 55.38 57.69 60.59 61.06 61.65 63.32 62.51 64.45 65.38 64.04 62.07 64.38 64.21 62.69 61.80 59.26 55.07 53.91 53.61 53.54 52.14 51.07 49.44 47.95 45.99 43.03 42.29
41.96 43.88 46.70 46.68 45.98 44.80 45.46 43.84 43.37 44.49 47.66 47.48 47.49 47.48 45.61 45.80 45.77 46.55 47.33 48.11 48.06 48.43 50.25 55.89 58.77 61.03 61.59 61.24 60.92 60.84 63.27 63.01 63.28 61.06 62.71 63.55 62.17 59.34 53.46 52.57 52.98 52.04 50.69 49.55 47.86 46.36 42.76 41.76 41.46
43.11 43.17 43.50 44.65 45.02 44.28 43.55 42.41 42.57 44.95 44.75 45.03 45.19 44.19 44.29 44.78 44.72 44.96 46.09 45.87 46.38 47.64 48.51 50.69 57.29 59.80 59.86 60.75 60.07 59.91 60.01 60.50 60.67 60.83 61.15 60.12 60.46 59.00 54.70 52.19 52.31 51.98 50.90 48.85 47.03 43.74 41.39 40.61 40.20
43.57 40.06 41.88 43.02 43.15 42.97 43.53 40.03 41.24 45.20 44.69 44.17 43.54 43.29 45.06 44.23 44.30 43.12 44.12 43.98 44.24 45.24 46.35 47.49 51.55 56.89 57.77 58.43 59.23 58.96 59.30 59.50 59.32 60.28 60.48 60.32 58.69 56.29 53.26 51.53 51.48 52.31 50.21 47.98 44.26 41.83 40.96 39.46 39.76
40.04 37.30 34.68 42.08 42.42 42.39 40.97 35.98 42.80 44.96 43.01 44.19 44.02 42.41 42.14 42.33 42.68 42.81 43.27 43.12 43.20 43.64 44.32 45.70 48.05 52.97 56.20 56.39 57.28 58.69 58.53 58.30 58.36 58.72 58.99 60.15 58.27 56.03 52.19 50.07 49.99 50.23 48.40 46.02 42.63 40.61 39.42 38.37 37.83
35.50 31.85 34.39 38.68 43.32 41.53 38.98 35.71 42.75 45.01 42.87 43.64 41.47 41.37 41.44 41.01 41.45 41.75 42.20 41.97 42.08 42.45 42.92 44.00 45.53 46.14 51.64 55.05 55.26 56.17 57.47 57.27 57.29 57.50 57.29 58.65 56.88 54.79 53.29 49.87 49.14 48.80 46.04 42.86 42.10 38.55 38.55 36.45 36.17
32.79 32.39 35.86 35.17 40.74 39.94 36.92 37.47 40.41 43.51 43.19 42.38 39.41 39.02 39.76 39.65 39.61 41.12 41.11 41.69 41.45 41.14 41.91 42.72 44.16 44.91 47.06 50.66 52.22 52.99 54.09 54.64 55.21 55.74 56.36 57.76 57.27 54.23 51.91 48.87 48.28 46.94 43.75 40.58 39.41 38.45 37.15 36.60 36.14
35.70 34.93 33.83 36.95 41.82 37.77 38.68 37.58 40.53 42.97 42.35 41.78 38.58 39.07 39.26 39.20 40.40 40.54 40.52 40.31 40.36 40.26 40.31 40.81 41.76 42.88 44.51 46.17 48.43 49.57 50.31 51.67 52.66 55.38 56.26 56.40 55.98 54.82 50.66 48.14 47.40 44.69 43.66 41.29 39.24 37.64 36.98 35.90 34.94
37.23 34.81 34.13 37.72 41.17 38.36 38.35 37.58 40.61 42.06 42.19 41.14 39.57 38.36 38.70 38.56 38.72 39.40 39.01 38.83 38.77 38.85 39.23 39.68 40.16 41.01 42.30 44.30 45.40 47.03 46.07 45.65 47.56 51.61 53.38 54.30 54.28 53.73 51.27 47.79 45.87 43.29 40.56 39.17 38.51 37.90 35.77 36.03 35.67
35.65 34.42 34.58 35.27 37.78 37.41 34.75 34.10 38.29 41.33 39.90 40.45 39.87 39.73 39.16 37.87 37.19 37.26 37.47 36.83 37.12 37.22 37.21 38.94 39.54 39.82 39.97 41.31 42.97 43.75 44.34 43.62 43.90 45.13 47.98 50.21 51.78 51.96 50.86 48.50 45.88 43.78 43.12 40.39 39.23 37.62 37.08 35.25 34.92
33.84 38.48 38.03 36.58 32.25 28.95 35.23 26.30 34.73 37.77 36.25 37.40 36.95 36.17 36.38 36.82 37.27 36.98 36.39 36.25 36.09 35.71 36.64 37.82 38.87 39.18 39.70 39.34 38.60 37.87 38.33 38.18 39.82 41.19 41.54 42.21 44.86 48.19 49.50 48.63 46.70 44.02 42.43 40.98 38.26 38.71 37.49 35.47 33.20
36.37 37.71 35.60 34.65 31.50 29.81 31.09 27.56 32.78 35.66 33.59 34.84 34.92 35.69 35.59 35.86 35.97 35.59 35.53 36.43 36.23 35.29 34.18 34.85 37.04 37.84 38.32 38.13 37.59 36.82 35.90 36.58 37.24 38.18 38.05 39.11 41.06 43.73 45.17 45.15 46.64 44.19 42.29 40.77 39.72 38.99 36.36 35.47 35.26
38.50 35.56 34.56 32.61 31.04 24.47 31.13 30.33 30.39 32.57 35.15 34.28 35.03 35.29 35.71 35.33 34.99 35.37 36.12 35.89 34.45 34.24 33.32 33.63 34.11 34.74 36.32 36.30 35.99 35.57 35.01 35.09 35.09 35.26 35.54 36.45 37.39 38.64 38.96 40.73 41.77 42.93 42.88 41.06 39.60 39.52 38.74 38.52 35.43
35.29 32.03 26.19 23.47 21.89 23.45 32.08 28.91 33.01 35.17 37.15 36.77 34.26 33.75 33.91 34.23 33.59 33.32 33.28 33.18 32.96 32.18 32.23 33.56 32.25 32.17 33.14 33.66 33.34 33.23 33.59 34.15 34.24 34.14 34.26 33.91 34.55 35.27 35.62 35.86 36.35 38.21 39.65 39.62 38.11 36.47 35.90 36.62 37.56
34.14 35.10 27.24 20.24 20.35 22.19 30.71 26.12 32.44 34.24 35.20 35.16 34.56 33.35 33.49 33.22 33.95 33.62 32.79 32.27 32.40 32.04 31.35 30.73 30.56 30.65 31.54 31.74 31.59 31.47 31.37 31.46 31.88 32.10 32.90 32.95 33.15 33.94 34.28 34.13 34.36 35.02 36.16 37.76 37.82 35.65 34.60 34.21 35.17
34.43 31.77 35.53 29.10 22.40 22.18 27.59 31.75 33.94 34.47 32.86 32.94 32.50 32.56 31.82 32.52 32.31 33.34 32.98 31.50 31.72 31.30 30.77 30.17 29.51 29.40 30.11 30.89 30.77 30.28 30.14 29.48 28.94 28.89 29.61 30.49 30.92 32.53 33.01 33.01 32.68 33.14 33.40 33.81 34.71 34.01 33.12 33.04 33.21
36.49 38.63 29.42 29.21 17.14 17.69 25.04 26.52 28.28 30.93 30.15 31.03 30.36 30.09 30.85 31.84 32.32 31.72 31.70 31.23 31.13 30.79 30.52 30.51 30.41 29.21 29.01 29.72 30.34 30.73 30.23 29.84 29.09 28.47 27.57 27.91 29.33 29.58 29.57 30.65 31.30 31.78 31.96 31.97 32.13 31.76 32.19 31.71 32.05
33.08 30.63 32.19 32.83 28.84 21.53 17.35 23.70 32.79 32.58 31.28 29.81 30.04 30.99 30.39 30.29 29.83 31.14 29.85 30.02 30.27 30.64 30.99 30.30 30.09 30.49 30.18 30.33 30.39 30.80 30.57 29.29 28.47 26.84 27.10 27.10 27.35 28.10 28.96 29.15 28.71 29.08 29.64 30.74 30.72 30.77 31.12 30.97 31.99
35.31 33.24 33.52 26.02 23.49 25.08 26.49 26.43 33.72 32.24 32.10 31.90 30.96 31.81 31.06 30.73 29.54 33.03 31.89 30.66 30.65 31.24 30.94 30.08 30.44 29.69 30.28 30.48 29.41 29.25 29.85 29.23 27.61 27.31 26.89 26.21 25.77 26.68 27.08 28.22 28.07 28.10 28.40 28.75 28.82 29.54 30.10 30.40 30.72

GFSSGP_sfc_wetblb_024.txt.gz
Wetbulb
57.73 54.03 53.85 51.31 43.67 39.11 35.67 38.82 40.04 42.08 41.75 44.56 45.77 44.55 42.57 43.37 44.04 40.31 54.01 59.97 63.76 66.79 69.81 71.49 72.63 73.79 73.92 73.69 73.63 73.00 72.60 71.68 71.37 71.30 71.13 70.75 70.55 70.70 71.18 72.01 72.34 71.94 71.32 70.30 69.72 69.13 67.67 66.66 65.47
54.95 56.03 51.39 45.51 38.60 34.14 35.79 39.52 41.26 42.43 44.55 44.66 45.42 45.01 43.35 42.85 48.67 52.26 54.69 59.46 66.02 67.54 69.39 70.90 71.54 73.33 73.63 73.33 73.18 73.05 72.86 72.57 71.80 71.48 71.26 71.44 71.31 70.79 70.81 71.99 71.47 70.85 69.79 69.16 68.72 67.62 66.00 64.87 63.56
55.56 53.53 46.08 40.74 35.55 34.69 36.39 39.43 40.03 43.98 45.03 44.53 43.29 45.36 43.65 45.05 49.46 53.09 56.95 60.26 66.22 67.22 69.07 70.44 71.25 73.10 73.45 73.15 72.88 72.92 73.02 72.99 72.24 71.78 71.86 72.06 71.30 70.96 71.45 71.41 70.64 69.86 69.17 68.34 67.41 65.77 64.66 62.68 61.57
51.98 49.43 45.17 38.85 36.30 37.96 39.46 40.25 42.15 42.97 44.33 45.39 44.33 42.07 44.95 47.43 50.32 55.27 58.87 60.56 65.13 66.64 68.62 69.75 71.61 72.99 73.41 73.08 72.91 72.83 72.65 72.34 72.36 72.28 72.28 71.51 70.97 70.64 70.58 70.23 69.83 69.07 67.76 66.77 66.02 64.55 62.88 60.79 59.59
48.51 44.01 38.39 36.72 37.00 39.27 41.16 42.89 43.13 42.51 42.28 43.47 44.15 42.10 43.03 49.78 53.85 55.77 58.40 59.09 63.93 65.29 66.94 69.41 71.15 72.23 72.91 72.93 72.82 72.66 72.55 72.52 72.94 72.74 72.03 71.44 70.60 70.62 68.92 68.75 67.86 68.17 66.18 65.33 64.61 63.23 61.28 59.26 57.66
45.15 41.90 36.08 34.20 36.48 40.55 41.88 42.82 42.96 41.43 41.11 42.73 42.35 42.71 42.81 49.18 50.48 54.88 57.99 58.01 59.27 64.50 66.01 69.01 68.75 69.99 71.34 72.00 72.08 71.94 71.97 72.09 72.16 72.41 72.06 71.89 70.97 68.46 67.19 66.73 66.53 66.56 65.74 64.58 63.88 61.83 60.13 58.22 56.06
42.80 39.10 35.44 35.30 35.88 38.25 42.61 43.50 41.04 40.53 40.09 41.88 44.02 42.23 44.93 46.69 50.18 52.76 56.62 57.73 58.32 61.45 65.78 67.28 68.92 69.06 68.28 69.42 69.88 70.71 71.24 71.48 71.68 71.94 71.67 71.11 69.16 68.32 67.26 66.16 65.84 65.92 64.90 64.19 63.19 60.47 58.77 57.24 55.05
43.92 40.31 36.82 35.84 36.62 37.84 43.01 43.87 43.03 41.89 41.48 45.13 45.20 41.18 41.62 48.30 50.44 50.25 53.16 55.77 56.43 58.55 64.86 66.08 66.94 67.97 68.84 69.10 66.92 67.84 68.99 69.67 69.93 69.77 69.02 67.81 66.78 66.83 66.03 64.39 65.57 65.31 64.74 63.88 62.83 60.08 58.69 56.88 53.99
43.91 37.25 34.43 36.96 37.40 38.66 42.86 42.09 43.83 43.24 41.98 42.68 45.18 46.60 44.67 47.79 49.78 50.44 50.32 51.99 53.16 56.70 60.09 63.95 65.84 66.87 67.16 67.05 66.11 65.36 66.57 67.32 67.42 67.18 65.78 64.07 64.04 63.70 62.35 61.91 64.24 65.79 64.95 63.47 62.28 59.88 58.55 56.25 52.08
41.11 35.61 37.71 41.03 40.51 39.76 43.14 41.50 42.18 42.15 41.81 40.75 41.44 44.79 44.66 47.00 48.87 48.76 48.50 49.54 50.75 53.24 56.80 60.66 63.59 65.21 65.57 67.74 65.75 64.48 67.37 67.72 67.66 66.99 65.16 64.07 63.39 61.45 60.72 59.85 62.23 64.06 63.29 63.70 61.80 60.00 58.26 51.52 42.16
41.86 38.16 41.39 43.60 44.07 43.44 43.26 42.81 42.58 40.35 41.23 43.11 43.26 44.12 45.19 44.74 47.16 47.36 46.78 47.59 49.27 50.75 54.45 58.91 61.95 63.97 64.73 66.05 65.84 64.38 64.41 63.78 63.92 63.75 63.45 62.56 62.42 60.91 59.85 57.61 58.37 57.97 58.26 57.18 57.93 55.67 49.59 43.12 40.89
39.71 44.44 44.25 45.80 45.46 43.43 41.83 44.12 43.54 42.39 44.79 46.23 45.45 44.69 44.06 44.62 43.39 43.35 43.31 44.09 44.44 46.15 50.37 54.76 59.67 61.85 63.49 64.48 64.44 65.27 65.64 66.29 62.96 62.66 62.62 62.81 61.73 60.57 59.22 57.68 56.04 54.63 53.59 52.30 50.96 49.27 47.39 44.08 42.28
40.80 42.33 44.68 45.87 44.89 43.08 43.66 42.73 41.65 43.35 45.82 45.62 45.12 44.23 42.34 42.20 42.38 42.77 43.43 43.62 43.49 43.73 44.16 46.86 55.97 59.62 61.63 61.97 61.56 63.08 64.21 64.81 63.51 61.21 61.48 61.56 61.78 60.19 58.36 56.39 53.88 52.73 51.25 50.11 48.39 47.42 45.22 41.31 40.15
41.79 42.49 42.99 43.61 43.76 42.84 42.24 40.21 41.59 44.32 42.66 44.31 44.00 41.33 41.02 41.30 41.11 41.24 41.78 41.68 42.16 43.54 43.55 44.64 48.81 57.89 59.31 61.20 59.90 61.25 62.12 62.29 61.40 60.96 61.19 60.36 60.63 60.50 57.30 55.01 54.04 51.49 50.57 48.98 47.90 46.68 42.72 40.11 39.35
42.54 39.73 41.04 41.43 41.59 41.63 42.20 38.79 40.23 44.79 43.20 42.22 40.98 39.02 40.08 40.38 40.46 39.55 40.48 40.57 40.79 41.93 42.87 43.82 46.12 50.83 57.30 58.65 58.86 58.62 59.17 59.38 59.45 60.23 59.71 59.72 58.93 57.28 55.35 54.89 53.42 52.96 50.14 48.63 46.70 44.27 40.60 38.69 38.33
38.31 36.64 33.66 40.17 40.66 40.88 40.15 36.02 42.10 44.12 40.94 40.79 38.26 36.86 38.42 39.26 39.49 39.62 40.34 39.97 40.02 40.45 41.19 43.08 45.33 46.54 54.17 55.46 56.53 57.75 57.84 57.69 58.03 58.49 58.80 59.78 60.34 58.29 54.59 53.91 53.67 53.38 49.92 48.17 45.05 41.72 39.32 37.95 36.73
34.05 30.38 32.55 37.70 41.55 39.94 37.82 35.91 41.87 44.22 41.40 38.06 36.52 37.38 38.11 37.82 38.46 38.93 39.58 39.19 39.10 39.32 39.99 41.41 43.17 43.67 47.52 53.40 54.66 55.28 56.04 55.99 56.15 56.49 57.13 60.03 59.38 57.93 56.58 54.14 53.65 52.07 50.56 46.29 44.85 39.33 39.08 36.94 35.79
31.21 30.89 33.62 33.85 38.72 38.14 37.08 36.97 40.11 42.54 41.61 38.20 36.24 36.54 36.50 36.66 37.00 38.78 38.82 39.30 39.18 39.10 39.57 40.07 41.50 42.00 44.92 48.92 50.85 51.79 52.74 53.26 53.96 54.60 56.70 58.19 57.13 55.33 54.34 52.97 51.78 50.87 48.58 44.74 40.82 39.52 37.08 36.75 36.13
34.39 33.34 32.89 35.44 40.15 36.46 37.05 36.05 39.51 41.53 39.74 36.75 36.31 36.64 36.53 36.53 38.05 38.23 38.19 37.88 38.09 38.29 38.71 38.95 39.17 39.71 41.91 42.60 45.67 47.49 47.97 48.02 48.33 53.97 54.73 56.10 56.53 54.26 52.55 51.87 50.47 48.60 47.48 46.16 43.39 38.09 37.11 35.46 34.56
34.82 32.94 32.86 36.33 38.97 36.63 36.69 36.62 39.72 39.32 37.92 37.58 36.82 36.25 35.95 35.88 35.92 36.43 35.88 35.84 36.03 36.25 37.39 38.05 38.38 38.44 39.14 40.81 41.24 43.93 43.32 43.62 44.27 47.15 48.38 48.58 52.56 54.00 51.83 50.10 48.89 47.52 45.09 43.15 40.98 40.10 35.65 35.86 34.85
34.64 33.14 33.35 34.70 36.15 35.20 33.87 33.24 36.79 36.32 37.30 37.93 37.43 36.90 36.11 34.60 33.75 34.02 34.42 33.58 33.91 33.98 35.10 36.93 37.57 37.98 37.86 38.57 39.47 40.20 40.11 39.90 39.95 40.23 41.44 42.64 44.58 48.54 50.21 49.87 47.02 45.85 44.69 43.25 41.49 39.71 39.13 36.35 34.15
33.35 37.88 36.89 35.07 31.64 28.62 33.40 25.21 32.60 35.20 34.18 34.91 34.48 33.68 33.44 33.41 33.99 34.20 33.67 33.02 32.75 32.12 33.57 35.27 36.29 36.44 37.20 37.53 36.78 35.65 35.17 34.50 35.39 36.23 37.07 38.38 39.22 39.71 41.46 44.32 46.80 45.29 43.58 42.87 41.60 40.96 39.72 37.85 36.10
36.17 36.57 34.77 33.13 30.01 27.90 29.03 26.01 30.34 33.59 31.41 32.32 32.36 33.24 32.89 32.86 33.02 32.59 32.46 33.33 32.69 32.11 31.33 31.93 33.68 34.14 34.44 34.62 35.79 35.42 34.44 34.83 35.31 35.47 35.10 35.76 36.56 36.96 36.59 37.12 38.50 41.42 43.73 42.09 40.98 39.96 38.64 38.30 37.65
37.44 34.65 33.52 31.07 29.48 23.56 29.45 28.54 28.74 30.56 33.19 31.99 32.47 32.81 33.23 32.63 32.71 32.91 33.37 32.92 31.43 30.58 30.16 30.79 31.84 31.96 32.35 32.22 31.91 31.66 31.24 31.32 31.21 31.69 31.33 32.66 34.30 35.01 34.97 35.24 35.19 36.10 37.19 39.08 40.92 39.81 39.21 38.77 38.20
34.35 31.80 25.57 22.84 21.44 23.32 30.33 26.93 30.57 32.03 34.04 34.08 32.04 31.88 32.10 31.93 31.54 31.90 31.22 30.73 30.25 29.26 28.91 31.04 30.38 30.12 30.82 30.55 30.31 30.00 29.52 29.20 28.86 29.26 29.73 29.62 30.04 31.26 31.92 32.74 32.94 33.73 34.27 35.07 36.49 37.79 37.90 37.85 37.83
32.44 33.05 25.92 18.83 19.63 23.00 28.17 25.22 29.63 31.53 32.92 33.73 33.20 32.17 32.57 32.30 32.67 31.88 31.47 30.49 29.74 29.58 28.47 28.23 28.64 29.04 29.51 30.03 29.23 29.17 28.86 28.31 28.54 28.38 28.58 28.62 28.82 29.55 30.58 30.89 31.17 31.45 32.46 32.97 33.37 33.48 33.57 34.04 35.43
32.80 30.40 33.55 27.60 16.72 20.32 26.41 27.27 31.00 31.84 30.19 30.59 30.63 31.22 30.58 31.21 32.20 31.34 30.61 30.14 29.58 28.90 28.70 28.33 28.08 27.84 28.55 29.12 29.17 28.79 28.45 27.42 26.75 26.66 26.86 27.16 27.84 29.40 28.72 28.85 28.84 29.41 30.03 30.21 30.72 30.67 30.49 30.69 31.29
34.40 37.02 28.73 27.39 16.03 16.52 22.96 25.47 26.85 28.35 28.51 29.83 29.80 29.70 29.90 30.45 30.26 30.76 29.59 29.60 30.04 29.88 29.28 28.64 28.04 27.31 27.40 27.94 28.27 28.46 28.22 27.93 27.23 26.58 25.58 25.46 25.87 26.54 26.85 27.10 27.98 28.21 27.85 27.54 27.66 28.21 29.33 29.49 30.23
31.97 30.11 30.98 31.30 26.37 18.60 15.16 22.55 30.42 31.04 30.92 29.81 30.19 30.73 29.83 30.07 30.12 29.42 29.12 29.25 29.14 28.18 28.33 28.10 28.21 27.92 27.58 27.85 28.07 27.90 27.89 28.24 27.61 26.61 26.59 26.47 25.67 25.67 26.20 26.34 26.65 26.50 26.66 27.00 26.21 25.99 26.73 27.24 28.29
32.52 32.09 31.93 24.20 21.98 24.46 24.10 25.18 33.29 33.42 31.94 31.31 30.32 31.28 30.16 29.92 28.85 29.45 27.95 28.11 27.82 28.07 27.58 27.40 27.99 27.95 27.99 27.94 27.28 26.85 27.11 26.18 25.44 26.01 26.17 25.50 26.53 27.50 25.38 25.76 25.41 25.71 25.63 26.14 25.87 25.70 25.57 25.34 26.19

GFSSGP_sfc_wetblb_027.txt.gz
Wetbulb
56.82 53.30 52.12 49.99 42.60 38.70 34.94 37.29 40.96 40.60 40.34 43.24 44.43 43.18 41.56 42.29 42.91 39.32 52.00 59.47 61.64 65.08 68.53 71.29 72.73 73.67 73.99 73.76 73.47 72.90 72.58 71.87 71.75 71.32 70.80 70.38 70.54 70.66 70.93 71.75 72.16 71.67 70.63 69.80 69.01 68.58 67.17 66.26 65.42
54.49 54.17 49.89 43.70 37.54 33.11 35.08 37.44 39.60 40.88 42.91 43.94 44.23 43.71 42.76 42.36 46.39 50.79 54.67 59.23 64.46 66.28 68.81 70.75 71.57 73.36 73.71 73.59 73.31 72.73 72.46 71.99 71.45 71.25 71.01 70.70 70.58 70.34 71.44 72.11 71.40 70.61 69.39 68.90 68.27 67.15 65.97 64.43 63.73
53.86 51.17 45.06 39.56 34.04 33.70 35.13 38.09 38.93 42.86 43.94 43.27 41.95 44.24 44.04 43.68 47.97 50.88 54.84 58.82 65.14 66.46 68.73 70.25 71.23 73.29 73.58 73.42 73.20 72.83 72.54 72.49 71.62 71.36 71.17 71.47 71.10 70.54 71.09 71.56 70.73 69.73 68.65 68.33 67.45 65.81 64.31 62.67 61.68
50.67 47.98 43.76 37.67 35.74 36.75 39.82 40.99 40.18 41.75 43.44 44.64 42.68 41.77 44.28 46.58 48.14 52.60 57.34 61.18 63.92 65.42 67.80 69.35 71.48 73.23 73.43 73.15 72.88 72.54 72.22 72.23 72.09 71.64 71.63 71.90 70.90 71.19 71.39 70.68 69.97 69.19 67.88 66.83 65.98 64.57 62.43 60.75 59.51
46.59 42.80 37.46 35.40 35.46 38.70 41.43 40.90 41.85 41.03 40.76 41.87 42.43 41.54 42.64 47.04 52.60 56.05 57.67 61.32 63.06 64.61 66.56 68.12 70.90 72.38 72.97 73.03 72.85 72.65 72.50 72.25 72.44 72.56 72.24 71.43 70.74 70.30 70.18 69.97 68.84 67.67 66.00 65.25 64.58 63.08 60.99 59.24 57.58
44.03 40.77 35.35 33.03 35.43 39.08 40.53 41.13 41.40 40.14 39.78 41.50 44.13 43.27 42.05 47.22 51.16 54.29 57.39 56.86 62.82 64.13 65.47 67.57 68.15 69.86 71.40 72.21 72.37 72.37 72.46 72.41 72.69 72.86 72.56 71.99 70.89 70.41 68.48 67.08 67.59 66.42 65.57 64.08 63.92 61.90 59.90 57.94 55.78
41.72 37.51 34.39 33.18 34.77 37.66 40.77 43.09 43.52 39.23 39.10 40.79 44.63 42.71 44.35 46.24 49.42 50.89 55.74 55.33 57.42 63.23 64.51 66.41 68.18 68.37 67.74 69.37 69.91 70.73 71.36 71.44 71.53 72.15 71.59 71.04 70.61 68.97 68.19 67.36 66.66 66.02 65.50 64.19 63.76 60.93 58.92 56.96 54.40
42.27 39.07 34.88 34.00 34.90 36.07 41.69 41.99 41.57 40.37 40.17 44.38 43.69 41.04 42.45 46.72 48.19 50.07 52.27 53.82 53.94 58.33 63.84 64.97 66.63 68.25 68.58 68.68 66.55 67.43 68.79 69.40 69.84 69.65 68.73 67.63 67.02 66.87 66.16 64.85 66.09 66.08 65.20 64.38 63.66 60.51 58.60 56.73 53.46
42.02 35.89 33.01 35.20 35.66 38.22 41.92 42.01 42.08 42.25 40.35 41.66 43.27 45.93 43.60 47.29 48.45 49.45 48.98 51.08 52.34 55.67 59.76 63.21 64.78 66.49 68.52 68.34 66.64 65.49 66.53 67.06 67.24 67.00 65.84 64.88 65.52 64.44 62.84 62.26 64.38 66.14 65.81 64.36 63.35 60.55 58.77 56.33 52.09
39.63 34.01 36.09 39.51 39.82 39.22 41.96 40.33 41.63 41.71 41.92 39.69 40.15 44.38 44.03 46.00 47.74 47.08 46.27 46.82 47.86 50.35 54.30 59.13 62.77 64.62 65.98 67.84 66.33 65.16 67.13 67.93 67.73 67.70 67.19 65.84 64.09 63.54 62.06 59.90 62.15 64.18 63.92 64.23 63.13 60.63 59.17 51.41 41.93
39.79 36.72 40.01 42.27 42.74 42.15 41.44 40.64 41.81 39.37 39.69 42.02 41.48 43.40 44.04 43.48 42.01 41.95 41.06 41.28 42.25 46.40 50.04 54.99 59.37 62.37 63.93 66.71 65.28 63.23 63.24 64.08 66.26 66.36 66.03 64.63 62.83 61.60 60.84 60.35 60.74 59.46 58.77 57.38 58.64 55.56 49.88 44.27 38.67
39.83 42.57 42.03 44.25 44.37 42.21 40.75 42.52 42.11 41.00 43.81 44.83 42.67 41.96 40.66 40.74 40.90 40.78 40.89 40.82 41.22 42.01 43.14 44.02 49.32 59.66 61.65 62.81 65.38 64.29 62.97 62.65 62.61 64.39 63.84 62.80 61.89 60.89 59.74 59.19 58.84 58.46 56.89 53.71 52.05 50.31 48.17 44.47 42.21
39.55 41.16 43.11 44.82 43.52 42.21 42.26 41.86 40.40 42.18 44.26 43.13 42.52 42.12 40.15 39.72 39.78 40.19 40.65 40.86 40.73 41.04 41.88 42.84 43.70 55.07 60.25 61.01 61.12 61.92 64.93 64.43 65.07 62.50 61.98 61.64 59.93 60.50 59.36 58.60 57.56 56.99 54.92 52.05 49.91 48.49 47.07 43.50 40.30
41.07 41.70 42.06 42.81 42.92 41.08 40.82 38.91 39.55 43.03 42.87 41.24 41.16 38.85 38.28 38.75 38.61 38.70 39.09 39.16 39.47 40.86 41.03 42.60 43.98 45.60 57.55 60.14 59.23 59.88 60.83 64.94 63.28 60.81 60.73 59.85 59.30 58.51 58.11 57.33 56.34 55.39 54.21 51.98 49.43 47.95 46.21 42.09 38.85
40.96 38.72 40.01 40.48 40.30 40.05 40.99 37.38 39.07 43.64 41.10 39.07 37.72 36.47 37.71 38.12 38.21 37.33 38.31 38.01 38.20 39.25 40.56 41.81 44.46 46.51 54.41 57.16 57.85 58.25 58.66 59.20 59.29 59.33 59.54 59.38 59.18 58.84 57.76 57.05 55.53 55.31 53.30 51.43 48.79 46.00 43.20 40.02 38.35
37.03 35.33 32.71 38.45 39.56 39.50 39.30 35.85 41.21 42.33 39.36 37.18 35.86 34.90 36.06 37.18 37.38 37.62 38.34 37.96 38.20 38.46 39.05 41.09 43.23 44.31 50.22 54.65 56.27 57.37 57.34 57.39 57.58 58.09 58.84 60.36 59.98 59.53 57.08 55.71 54.86 54.75 52.97 51.63 48.97 45.18 42.29 39.82 37.19
33.17 29.62 30.86 36.43 39.82 38.67 37.07 35.04 40.98 41.74 39.41 35.60 34.45 35.09 35.86 35.84 36.66 37.21 37.64 37.44 37.56 37.87 38.45 39.65 41.13 42.03 45.81 51.41 53.50 54.06 54.08 54.14 55.22 57.05 57.91 58.95 59.80 59.13 57.76 55.66 54.64 53.48 52.13 50.55 49.04 44.06 42.87 39.17 36.80
30.12 29.87 31.85 32.55 36.73 37.40 35.25 36.30 39.65 41.03 39.62 35.15 33.88 33.73 34.45 34.87 35.11 36.44 36.43 37.08 37.17 37.40 38.14 38.77 39.78 40.04 43.33 47.04 49.52 48.33 47.49 47.38 51.41 51.25 51.70 55.19 57.10 56.21 56.17 55.01 53.61 52.59 51.78 48.36 46.38 44.57 40.50 39.70 37.33
32.75 31.68 31.94 33.42 38.45 35.14 35.73 35.03 38.67 39.61 36.61 33.73 33.71 33.64 33.94 34.22 35.52 35.48 35.37 35.35 35.98 36.61 37.05 37.29 37.58 38.14 39.77 40.83 43.10 44.65 42.40 42.74 42.60 44.54 44.31 46.75 49.99 53.03 52.87 52.96 52.08 51.19 50.68 48.93 46.73 42.35 41.13 38.70 37.49
32.88 30.82 31.26 35.08 37.63 35.97 35.66 35.92 37.35 36.15 35.27 34.98 34.15 33.38 33.18 33.03 33.17 34.00 33.50 33.18 33.07 33.79 35.30 36.07 36.58 36.90 37.73 38.54 38.78 40.84 39.97 40.10 39.42 40.66 41.15 41.18 41.80 43.42 47.03 48.98 48.40 47.70 46.98 45.31 43.92 41.98 39.93 39.32 37.57
33.07 31.83 31.79 33.73 34.99 33.98 32.68 32.15 33.73 34.37 35.19 35.32 34.63 34.16 33.28 32.04 31.63 31.81 31.67 30.78 30.93 31.17 31.93 34.21 34.90 35.76 36.48 37.47 38.02 37.86 37.65 36.75 36.53 36.60 37.58 37.37 38.35 38.53 39.58 40.97 44.76 45.52 45.34 44.98 43.26 41.43 40.44 39.81 37.65
32.01 36.69 36.29 34.41 31.43 28.12 31.88 25.10 31.37 32.46 31.88 32.67 32.18 31.05 31.05 31.32 31.83 31.70 30.85 29.88 29.68 29.66 30.47 32.11 32.81 33.16 34.44 35.81 35.58 34.53 33.50 32.11 33.21 33.67 34.31 35.48 35.73 35.05 36.07 36.96 38.00 39.18 42.12 42.08 42.12 42.26 40.29 38.96 38.27
35.46 36.04 34.43 32.44 29.70 27.78 28.54 25.77 29.08 31.77 29.54 30.40 30.76 30.93 30.70 30.85 30.69 30.30 30.06 30.63 29.91 29.46 28.74 29.46 30.99 30.95 31.14 31.41 31.85 31.39 30.03 30.97 30.83 30.83 30.57 31.38 32.56 32.73 32.86 33.81 34.66 34.89 35.86 36.31 38.71 40.18 39.77 38.94 37.94
36.98 33.92 32.61 30.29 28.85 22.90 28.95 28.56 26.98 29.68 31.40 30.34 31.21 31.11 31.49 30.83 30.67 30.57 30.80 30.51 28.65 28.32 28.32 28.78 29.81 29.53 30.00 29.99 29.66 28.72 27.70 27.69 27.80 27.95 28.09 28.87 29.94 30.52 30.87 31.61 31.67 32.21 32.75 33.22 34.28 35.34 37.43 38.68 38.41
33.37 31.52 25.32 22.93 21.38 23.32 28.37 25.36 29.36 30.66 31.65 33.02 31.18 30.61 30.75 31.02 29.94 29.80 29.14 28.15 27.46 27.03 27.58 29.25 28.75 28.18 28.42 28.66 28.41 27.86 26.96 26.61 26.51 26.14 26.26 26.36 27.11 27.86 28.30 29.29 29.31 29.77 30.46 30.90 31.51 32.22 32.30 33.56 34.57
31.43 32.30 26.02 19.26 18.97 22.51 27.22 25.10 30.05 30.11 31.36 33.45 32.85 31.83 30.82 30.05 30.51 30.08 29.57 28.31 27.60 27.32 26.85 27.19 27.63 27.51 27.61 27.64 27.26 26.99 26.72 26.09 26.20 25.78 25.71 26.01 26.39 26.69 27.14 27.23 27.67 27.86 28.42 28.78 28.99 28.58 28.88 29.91 30.07
31.75 29.54 32.78 26.70 14.97 19.41 26.35 27.49 29.91 30.23 29.03 29.75 30.17 30.21 29.87 30.55 30.49 29.96 29.80 28.65 27.80 26.90 26.59 26.30 26.19 26.59 27.16 27.07 26.79 26.42 26.33 25.82 25.26 25.08 24.96 24.58 25.06 27.44 26.13 25.64 25.92 26.59 26.67 26.40 26.06 26.36 25.98 26.67 28.01
33.51 36.12 28.51 26.81 17.18 17.07 22.90 24.45 26.98 26.97 27.73 29.05 28.68 29.12 29.97 30.47 30.86 29.55 28.85 28.79 28.32 27.75 27.06 26.40 26.32 25.96 26.16 26.72 26.90 26.63 26.15 25.99 25.56 24.74 24.41 24.23 24.56 24.76 24.89 24.67 24.73 24.94 25.54 26.00 26.08 25.57 25.35 25.00 25.10
31.59 30.22 30.35 30.46 26.02 18.98 14.55 23.67 29.40 30.81 30.37 29.31 30.13 30.97 30.08 29.42 28.97 29.35 28.13 28.21 28.08 27.48 26.88 26.38 26.36 26.37 26.22 26.48 26.13 26.00 25.64 25.25 24.93 24.70 24.18 24.15 24.43 24.82 25.18 25.20 24.96 24.77 24.50 24.62 23.88 23.97 24.51 23.97 24.81
31.61 31.63 31.60 27.07 23.18 23.19 23.08 26.00 32.24 31.72 32.62 32.18 31.17 31.36 30.64 30.07 29.48 28.31 27.46 26.86 26.49 26.96 27.11 27.20 27.20 26.65 26.51 26.37 25.64 26.14 25.58 24.85 24.15 23.89 24.16 24.34 23.94 24.56 24.81 24.90 24.46 24.16 24.05 23.90 23.44 23.16 23.60 23.19 23.53

GFSSGP_sfc_wetblb_030.txt.gz
Wetbulb
55.65 52.84 50.81 48.62 41.62 37.90 33.58 36.44 39.40 39.44 40.99 42.04 43.24 42.37 42.93 42.97 41.86 38.37 49.49 57.94 61.45 64.31 67.19 71.06 72.78 73.69 73.83 73.67 73.51 73.11 72.84 72.06 71.68 71.33 70.93 70.87 70.85 70.67 71.06 72.41 72.00 71.19 70.16 69.39 68.59 68.14 67.47 66.08 65.57
53.15 52.65 48.29 42.03 36.65 32.23 34.44 37.62 38.23 39.94 41.48 44.27 43.04 42.47 42.68 41.28 45.01 50.00 53.36 58.30 62.55 64.85 68.56 70.45 71.65 73.36 73.70 73.57 73.32 72.83 72.51 72.09 71.50 70.96 70.50 70.34 70.42 71.25 71.78 72.00 71.32 70.00 70.14 69.43 67.91 67.12 65.75 64.69 63.90
52.61 49.46 44.45 38.07 33.14 32.80 34.46 37.45 40.91 41.53 42.48 42.10 44.54 44.23 45.39 42.34 46.34 51.42 54.14 58.67 63.98 64.95 67.83 69.79 71.20 73.17 73.61 73.52 73.17 72.66 72.45 72.23 71.49 71.14 70.91 71.04 70.62 70.32 71.86 71.37 70.48 69.56 68.98 68.25 67.20 66.00 64.21 63.13 62.08
49.61 46.72 42.55 36.41 34.34 35.81 38.07 40.15 38.91 41.76 42.52 43.50 42.24 43.30 43.06 46.32 46.41 51.34 56.35 61.31 62.90 64.59 67.09 69.12 71.48 73.13 73.39 73.09 73.19 72.28 71.73 71.64 71.63 71.33 71.12 71.45 70.79 70.55 71.70 70.90 70.11 69.35 68.32 67.12 66.10 64.67 62.72 61.27 59.85
45.21 41.97 36.72 34.57 34.76 37.19 39.00 39.76 39.81 41.09 43.07 42.28 42.24 41.13 42.14 45.37 53.10 54.70 55.86 61.08 61.42 63.62 65.97 67.63 70.82 72.41 72.89 72.92 73.02 72.76 72.29 72.23 72.32 71.80 71.69 71.85 70.87 71.05 70.59 70.42 69.42 68.22 66.01 64.77 64.66 63.48 61.57 59.65 57.70
43.17 40.09 34.52 31.95 34.59 37.52 40.36 40.11 41.67 38.56 38.82 42.07 43.47 42.08 41.84 45.99 50.71 52.95 55.65 54.04 60.51 63.00 65.07 66.87 67.75 69.90 71.34 72.15 72.38 72.29 72.40 72.43 72.38 72.37 72.15 71.75 71.00 70.09 69.26 67.64 68.27 67.21 65.58 63.95 64.07 62.42 60.50 58.43 56.46
40.68 36.27 33.44 32.31 34.03 36.45 38.92 40.70 42.01 41.45 41.64 42.35 44.34 41.29 43.64 47.96 47.58 48.34 53.75 53.94 56.07 60.41 63.53 64.86 66.75 67.74 67.68 69.47 70.10 70.93 71.61 71.49 71.42 71.47 71.28 70.73 70.61 70.41 68.57 67.42 67.15 65.52 65.20 64.04 63.71 61.62 59.75 57.94 55.34
40.66 37.98 33.30 32.43 33.77 34.66 39.62 40.37 40.46 43.56 40.52 43.52 43.91 40.07 41.20 45.40 48.14 50.50 53.30 53.93 55.14 56.54 61.72 62.86 65.05 68.17 67.49 67.94 66.28 67.54 69.08 69.57 69.75 69.42 68.68 67.73 67.71 67.20 66.44 64.85 65.97 65.44 65.59 63.81 63.41 60.96 59.22 57.54 54.46
40.16 34.75 31.94 35.40 35.26 37.28 40.14 40.35 40.76 41.39 40.16 41.59 42.12 44.54 42.81 46.03 48.46 48.21 47.33 47.68 49.42 52.90 55.60 60.80 62.96 66.60 67.80 68.68 66.12 64.57 65.99 66.76 67.00 66.87 65.77 65.13 65.35 65.46 63.42 62.46 64.48 66.38 66.24 64.55 63.20 60.85 58.91 56.73 52.69
38.25 32.79 34.61 37.78 40.16 39.87 40.10 40.16 40.22 41.39 40.59 41.52 40.67 43.10 43.19 41.80 41.71 41.20 40.41 40.70 41.28 42.55 46.06 52.41 59.67 63.81 66.56 67.23 67.63 66.80 66.13 67.86 67.67 67.50 67.06 66.41 65.38 64.03 63.04 60.75 62.25 64.21 64.08 64.49 62.96 61.02 57.90 50.37 40.49
38.86 35.24 37.73 40.50 41.22 40.98 40.26 39.43 40.30 41.15 38.33 38.89 40.56 41.25 40.22 40.47 40.38 40.03 39.60 39.23 39.31 40.25 42.19 43.55 44.45 56.46 64.94 66.21 66.78 65.84 64.67 64.14 65.96 66.78 66.45 65.76 64.48 62.65 61.90 61.05 60.99 61.58 60.05 58.94 58.30 54.00 50.21 46.18 38.83
38.67 40.80 40.56 43.07 42.79 41.25 39.73 41.29 39.51 40.36 39.76 42.01 39.60 39.80 38.92 38.46 38.40 38.25 38.16 38.58 38.66 39.62 41.19 42.31 42.93 44.36 58.75 64.93 65.89 65.67 64.29 63.26 63.48 62.75 65.01 64.19 62.79 61.55 60.76 60.25 59.90 59.78 58.72 57.14 55.54 52.17 48.76 45.69 41.86
39.83 39.62 41.52 42.84 42.31 41.27 41.36 40.49 38.82 40.86 40.89 40.88 40.47 39.40 37.60 37.33 37.44 37.87 38.25 38.70 38.51 38.81 39.96 41.26 42.35 43.85 49.70 60.67 63.63 64.17 64.23 63.05 62.13 62.88 61.67 62.98 62.09 61.07 60.27 59.80 58.87 58.53 57.09 56.21 53.85 51.30 48.39 46.28 42.45
39.08 40.10 40.83 41.56 40.65 40.08 40.10 37.83 38.53 37.90 39.09 38.90 38.41 36.30 36.21 36.68 36.52 36.83 37.25 37.23 37.60 38.80 39.13 40.87 42.84 45.28 49.54 57.38 59.41 61.43 62.98 63.45 64.08 63.33 62.41 61.46 61.06 60.25 59.50 57.97 57.10 56.77 56.27 55.13 53.42 51.29 48.00 45.80 40.87
39.53 37.29 38.60 38.44 38.60 39.19 39.94 36.52 37.96 38.74 39.01 37.01 35.46 34.61 35.74 36.08 36.33 35.42 36.37 36.32 36.72 37.77 38.86 40.23 43.34 46.02 52.42 56.26 58.44 59.08 60.14 61.24 61.21 61.07 60.00 60.35 59.72 59.63 58.97 58.13 57.12 56.95 55.47 53.90 51.57 49.67 47.64 44.84 40.08
35.91 34.31 32.43 36.92 38.22 38.31 38.71 35.38 39.50 39.36 38.46 35.33 34.41 33.36 34.37 35.39 35.55 35.67 36.47 36.33 36.66 37.03 37.78 39.74 42.02 44.80 51.93 53.97 55.64 55.59 55.79 56.56 57.02 57.82 58.64 59.44 60.23 60.34 59.05 57.90 56.89 56.14 54.49 53.22 51.44 49.06 45.64 45.20 42.07
32.38 30.28 29.87 35.28 38.41 37.34 36.13 35.07 39.11 38.90 37.55 33.80 32.80 33.30 34.20 33.79 34.33 34.55 35.13 35.28 35.98 36.27 37.02 38.42 40.02 41.13 46.75 48.06 48.04 47.85 48.10 47.70 46.93 47.56 50.10 52.53 54.38 55.38 57.15 56.47 55.57 54.93 53.94 51.79 50.39 46.96 46.66 45.37 43.08
30.24 28.93 30.53 31.77 35.14 36.13 33.89 35.93 39.46 38.87 36.81 32.98 31.86 32.03 32.32 32.34 32.55 33.83 33.92 34.58 35.09 35.26 36.36 37.27 38.79 39.05 41.63 46.35 44.98 43.53 42.30 42.90 43.35 42.62 43.30 44.34 46.04 50.10 52.38 52.46 52.16 52.51 51.74 49.69 48.29 46.89 43.33 42.01 41.40
32.54 30.68 31.64 32.44 36.76 34.46 35.25 34.93 38.01 36.11 33.43 31.91 31.73 31.63 31.46 31.75 32.99 33.21 33.17 32.71 33.16 34.27 35.09 35.67 36.50 37.22 38.91 38.94 41.06 40.54 38.28 38.89 39.24 40.49 40.80 40.92 41.58 43.25 45.18 47.81 47.84 48.36 47.99 47.48 46.98 44.51 43.71 43.19 38.99
32.17 30.63 30.55 33.76 36.15 35.46 34.25 34.87 35.23 34.51 33.32 33.42 32.14 31.29 31.05 30.64 31.04 31.84 31.30 30.96 30.70 31.15 32.44 33.64 34.84 35.72 37.02 37.44 37.51 37.71 37.46 36.70 36.57 37.88 36.50 36.69 37.06 38.46 40.18 41.93 43.33 44.27 45.08 44.62 44.10 42.82 41.92 40.87 39.06
31.31 30.69 30.19 32.95 33.31 33.45 31.09 31.32 31.30 32.58 33.14 33.41 33.03 32.15 31.43 30.36 29.68 29.62 29.60 28.60 28.45 28.71 28.70 31.23 31.92 33.11 34.25 35.70 36.48 36.02 35.30 33.77 33.02 32.41 32.83 32.72 33.28 34.35 35.85 36.40 37.40 39.22 40.72 40.92 41.98 41.85 41.31 39.83 39.60
29.91 35.02 34.88 32.79 31.06 28.10 30.82 24.94 29.48 30.74 30.51 31.08 30.59 29.57 29.75 30.01 29.91 29.28 28.30 27.65 27.67 27.77 28.42 29.34 30.20 30.63 31.78 32.51 32.28 30.79 29.62 28.35 28.96 28.95 30.04 30.84 31.32 31.37 32.22 32.74 33.29 34.14 34.95 34.89 36.59 39.67 40.09 38.99 37.65
33.79 35.40 33.49 31.55 29.16 26.44 27.12 24.80 28.57 30.40 29.13 29.57 29.60 29.63 29.52 29.50 29.25 28.75 28.07 28.61 27.99 27.95 27.04 27.44 28.81 29.22 29.33 29.56 29.67 29.25 28.02 27.93 27.56 27.66 27.94 28.38 29.30 29.72 30.20 30.40 30.52 30.44 31.20 31.19 32.23 33.61 35.09 37.24 36.32
35.82 33.72 31.85 29.37 28.12 22.39 29.00 28.28 26.46 28.18 31.03 30.03 30.35 30.04 30.03 29.34 28.94 28.69 28.64 28.40 27.43 27.21 27.23 27.34 27.89 27.62 27.88 28.12 27.55 26.75 26.05 25.59 26.27 25.78 26.15 26.45 27.03 27.83 28.00 28.72 28.42 28.80 28.82 28.82 29.84 30.08 30.98 31.71 33.59
32.51 30.84 25.00 22.69 21.76 23.22 27.25 24.86 29.09 31.21 31.36 31.91 31.22 30.04 29.73 29.70 28.59 28.13 27.24 26.10 26.13 26.18 26.62 27.73 26.97 26.43 26.62 26.70 26.41 26.04 25.31 25.01 24.69 24.44 24.30 24.50 24.79 24.87 25.60 26.10 26.16 26.49 26.90 27.39 27.51 27.12 27.36 28.00 28.15
30.97 31.25 26.24 19.85 19.39 22.26 26.59 24.50 30.43 29.85 30.74 31.85 32.76 31.10 30.21 29.42 29.27 28.73 27.91 26.40 25.95 26.09 25.94 26.37 26.25 25.87 25.99 25.81 25.46 25.39 25.26 24.63 24.40 24.09 23.85 23.72 23.82 24.28 24.77 24.43 24.54 24.70 25.15 25.05 25.00 25.16 24.87 24.94 25.38
30.38 28.48 31.78 25.79 14.61 20.27 26.20 27.89 29.29 29.60 28.60 29.04 29.11 29.70 29.06 28.91 29.09 29.20 28.61 27.05 26.16 25.46 25.59 25.92 25.72 25.59 25.66 25.47 25.08 24.65 24.61 24.16 23.20 22.97 23.45 23.30 23.89 25.84 24.46 24.10 23.72 23.87 24.21 24.51 23.96 23.41 23.30 23.54 24.31
33.32 35.15 28.26 26.43 16.55 16.51 23.55 24.25 27.77 28.18 28.22 28.02 28.24 28.78 28.91 29.67 29.61 29.01 28.50 27.62 27.11 26.31 25.76 25.26 25.21 25.07 25.18 25.18 25.15 24.46 24.13 23.75 23.37 23.58 23.33 23.30 23.92 24.48 24.48 24.08 23.69 23.41 23.46 23.18 22.81 22.68 23.04 22.59 22.90
31.55 29.84 29.73 30.05 26.36 19.96 15.76 23.79 29.24 30.55 29.31 28.39 29.50 30.47 30.12 30.09 30.24 29.30 28.29 28.22 27.92 26.79 25.52 24.88 24.99 24.98 24.76 25.19 24.83 24.95 24.40 23.73 23.78 23.54 23.14 23.18 23.31 23.50 23.81 24.09 23.60 23.22 22.77 22.61 21.60 21.48 22.04 21.73 22.09
30.23 31.12 30.77 27.57 23.28 22.25 22.74 27.07 29.90 30.21 30.68 31.59 31.00 31.31 30.67 30.43 29.66 29.85 28.57 27.60 26.36 26.57 26.20 25.59 25.21 25.16 25.67 25.32 24.54 25.23 24.52 24.23 23.32 22.71 22.93 23.21 22.90 23.48 23.36 23.54 22.82 22.35 22.21 22.09 21.48 21.04 21.29 21.05 21.17

GFSSGP_sfc_wetblb_033.txt.gz
Wetbulb
56.95 54.13 53.56 51.06 45.48 42.50 39.19 42.93 44.10 45.14 46.08 48.44 48.15 47.80 47.38 48.09 45.57 44.49 54.58 59.18 63.35 66.05 68.32 72.31 72.94 74.07 74.13 73.90 73.65 73.32 73.14 72.54 72.03 72.00 71.78 71.33 71.03 70.89 72.44 72.13 71.97 70.77 70.23 69.10 68.85 68.02 66.89 65.93 65.49
54.64 53.92 50.56 45.22 40.38 36.91 39.35 42.18 43.83 45.57 47.50 47.68 47.42 47.91 47.37 46.99 50.40 53.45 57.28 59.84 63.40 66.25 69.06 71.80 71.71 73.46 73.59 73.41 73.36 73.07 72.96 72.63 71.71 71.07 70.84 70.85 71.13 71.62 72.40 71.79 70.50 69.98 70.15 69.29 67.90 66.89 65.70 64.56 63.74
53.92 50.28 47.95 41.27 37.17 36.94 39.54 42.94 44.44 46.36 46.68 47.28 47.03 48.87 48.58 49.21 51.63 54.32 57.65 61.40 65.46 66.48 69.49 71.19 71.32 73.16 73.43 73.33 73.19 72.83 72.71 72.56 71.59 71.16 70.84 70.76 70.50 71.72 71.90 70.97 70.17 69.58 69.17 68.54 67.38 66.01 64.39 63.03 61.80
51.57 49.04 44.88 39.41 38.98 40.99 42.17 43.40 44.65 46.11 46.83 46.97 47.27 46.74 48.51 51.67 52.42 55.30 59.31 63.58 65.40 66.34 69.33 70.25 71.53 73.26 73.42 73.11 73.08 72.41 71.95 71.69 71.56 71.21 71.08 71.20 70.67 70.83 71.55 70.87 69.96 69.09 67.93 67.25 66.32 65.08 63.21 61.50 60.33
46.72 44.88 39.82 38.43 40.35 42.15 42.09 44.63 45.14 44.71 45.42 46.02 46.47 46.67 47.55 50.72 55.61 58.74 60.49 63.59 64.18 66.20 68.09 69.81 70.81 72.45 73.11 72.97 73.07 72.66 72.25 71.99 72.05 71.64 71.28 71.52 70.80 71.34 71.08 70.62 69.30 68.12 66.36 64.73 64.99 64.08 62.31 60.10 58.84
45.02 42.96 37.61 36.57 39.02 41.68 43.50 44.31 44.98 43.79 44.09 45.59 45.71 45.64 48.08 50.14 51.73 56.17 59.63 60.55 64.16 65.51 67.18 68.61 67.47 69.55 71.23 71.76 72.14 72.44 72.53 72.58 72.50 72.29 72.02 71.41 70.97 70.57 69.51 68.20 68.64 67.02 65.99 64.94 63.95 62.76 61.18 59.31 57.66
42.55 39.15 36.78 36.66 37.72 40.45 43.33 43.76 43.35 43.56 44.00 45.60 47.28 45.08 48.73 48.18 50.13 54.61 58.16 58.26 60.41 64.53 66.00 67.34 68.86 68.85 66.48 69.26 69.73 70.65 71.35 71.29 71.30 71.28 71.13 70.63 70.26 70.23 69.10 67.49 67.80 66.02 65.24 64.70 64.28 62.11 60.34 58.54 56.19
41.68 40.20 36.94 36.95 38.02 39.63 43.40 43.73 44.26 44.49 44.92 46.34 47.94 44.32 45.51 45.78 49.51 51.78 52.98 49.16 51.90 52.75 57.81 63.93 66.60 68.28 69.89 70.99 66.31 67.61 69.06 69.53 69.79 69.27 68.40 67.41 67.49 67.59 66.42 64.71 66.12 65.38 65.37 64.46 64.06 61.71 60.04 58.21 54.86
43.30 36.63 34.55 37.63 37.90 40.46 43.56 43.28 44.92 45.08 44.82 45.15 45.63 44.31 42.83 44.05 45.70 45.88 45.57 45.75 46.24 46.98 47.44 49.80 56.21 65.63 67.48 68.89 68.02 64.94 66.25 67.17 67.24 67.18 65.59 66.10 69.59 67.99 65.02 63.32 64.67 66.02 65.62 64.74 63.76 61.39 59.65 55.79 51.46
39.90 35.28 36.91 40.31 40.43 41.12 42.91 42.84 43.71 44.09 43.60 43.89 45.06 43.76 43.52 43.30 42.96 42.46 42.07 42.28 43.15 43.99 45.28 46.40 47.38 50.04 63.51 67.47 68.23 67.90 68.81 70.10 69.89 68.64 67.88 67.97 67.99 66.59 64.14 61.72 62.52 64.12 64.05 64.64 63.35 61.20 56.95 52.68 48.35
40.84 37.27 39.25 42.00 43.21 43.72 42.85 42.47 43.98 43.08 41.75 44.34 44.27 41.88 41.46 41.15 40.86 40.53 40.81 40.65 40.79 42.38 44.47 45.21 45.93 47.37 50.32 65.25 67.54 67.61 67.73 68.81 67.65 67.91 67.53 66.88 65.66 64.42 63.85 62.71 62.33 63.20 60.72 60.83 60.03 57.22 55.14 52.93 48.62
39.71 41.67 41.54 44.45 43.98 43.16 42.37 43.51 42.87 42.84 43.11 41.72 40.36 40.27 39.59 39.07 38.83 38.84 39.21 39.94 40.44 41.53 42.94 44.10 45.20 47.02 50.00 59.37 65.84 66.34 66.07 65.81 65.30 64.80 66.49 67.44 65.02 63.46 62.87 62.21 61.82 61.69 60.88 59.29 58.22 56.27 55.66 52.77 48.76
41.29 41.20 42.43 43.59 42.97 42.64 42.24 41.95 42.16 41.32 39.81 40.38 39.96 38.94 37.90 37.90 38.15 38.95 39.29 40.22 40.32 40.76 41.99 43.46 44.83 47.45 50.02 57.15 64.17 64.90 64.81 64.59 64.22 63.75 63.57 63.55 65.23 64.29 62.17 62.07 61.70 62.62 61.17 59.34 57.00 55.17 52.92 53.79 50.98
40.81 41.15 41.37 41.82 41.74 41.54 41.32 40.16 40.95 39.79 39.36 38.36 37.87 36.63 36.90 36.97 37.01 37.95 38.25 38.74 39.03 40.02 41.04 42.80 45.61 50.02 54.51 59.40 62.66 62.79 63.30 63.58 63.03 62.13 61.58 61.76 62.27 61.86 61.20 60.30 59.86 59.14 58.47 58.99 58.19 55.17 54.67 53.79 50.36
40.55 38.60 39.83 39.81 40.05 40.57 41.15 38.25 39.03 39.91 39.20 36.77 35.77 35.69 36.13 36.28 36.62 36.01 37.02 37.36 37.95 39.17 40.27 41.93 46.75 53.52 56.56 58.70 58.73 58.51 58.19 58.22 58.02 58.27 57.70 58.50 59.88 60.29 59.83 59.82 59.28 58.78 57.53 56.25 54.32 52.48 51.17 49.96 48.38
37.20 36.38 34.81 38.91 39.66 39.58 40.38 37.51 39.49 38.92 39.38 36.21 35.24 34.75 35.04 35.24 35.19 35.81 36.57 36.89 37.78 38.37 39.09 41.68 44.56 49.51 50.61 51.04 51.53 50.01 49.17 49.17 50.08 51.44 52.54 54.01 55.28 57.36 57.01 56.10 55.18 55.97 55.49 54.14 52.81 50.96 49.68 48.61 46.99
34.01 32.57 32.28 36.34 39.58 38.91 38.69 37.90 39.33 39.28 38.43 35.14 34.34 34.35 34.68 34.33 34.83 35.10 35.62 35.88 36.61 37.16 38.20 40.42 42.68 45.07 46.86 46.48 46.02 45.55 45.20 44.84 45.35 45.22 45.92 47.43 50.42 53.46 53.65 52.88 52.85 53.88 52.64 50.91 50.48 48.72 47.25 46.89 46.50
31.86 31.10 31.93 32.94 37.32 37.43 35.75 37.33 37.81 38.79 37.20 34.21 33.28 33.12 33.19 33.16 32.93 34.23 34.51 34.94 35.56 36.07 37.55 39.02 40.76 41.75 44.93 45.00 44.08 42.95 42.27 41.39 40.86 40.97 41.79 42.70 43.82 47.02 49.42 49.12 49.47 50.64 50.28 49.34 49.07 47.77 45.98 43.90 42.36
34.04 32.22 32.97 33.74 37.39 36.67 36.29 36.16 39.00 35.84 33.96 32.62 32.43 32.43 32.43 32.60 33.82 33.84 33.73 33.60 34.06 34.80 35.66 36.38 38.03 38.77 41.44 42.39 42.34 40.99 38.40 38.68 37.69 37.39 37.44 38.54 39.87 41.38 42.95 45.26 45.89 47.83 46.62 46.20 46.17 46.66 45.31 44.88 42.20
32.70 31.77 31.77 34.26 36.24 36.00 35.07 35.32 37.29 35.85 34.54 34.26 32.73 31.97 32.21 32.12 32.30 32.43 32.22 31.95 31.69 31.99 32.53 33.86 35.04 36.36 38.70 39.34 39.44 39.39 37.31 35.61 35.00 35.28 34.72 35.06 36.04 37.24 38.23 39.01 39.58 40.48 41.87 42.05 42.97 43.70 44.81 44.49 42.38
32.04 31.61 30.74 33.16 34.19 34.37 32.73 32.93 33.38 33.31 33.55 33.48 33.24 32.67 32.14 31.52 30.86 30.71 30.57 29.97 30.56 30.03 29.97 31.71 32.69 33.75 34.63 36.33 37.81 36.54 35.37 34.50 33.36 32.83 32.82 32.80 33.79 34.30 35.19 35.01 35.85 36.15 37.28 37.19 38.61 40.54 40.94 40.79 42.72
29.73 34.24 34.06 33.15 32.06 29.06 32.61 27.13 31.82 32.17 31.29 31.62 31.26 30.65 30.95 31.09 31.03 30.34 29.63 29.18 29.46 29.25 30.04 30.68 31.28 32.27 32.59 34.10 33.10 32.51 31.49 29.85 30.49 30.70 31.48 31.73 31.92 32.16 32.76 33.06 33.21 33.36 33.90 33.18 34.88 35.86 37.58 39.71 37.82
33.79 34.47 33.30 32.66 31.11 29.16 29.26 27.24 30.06 31.40 30.71 30.53 30.28 30.21 30.70 30.74 30.27 29.36 29.12 29.30 29.32 29.49 29.15 29.59 30.38 30.33 30.50 31.00 32.07 31.09 29.55 29.93 30.18 30.21 30.32 30.25 30.59 30.71 30.82 31.12 31.28 31.26 31.74 31.70 31.66 32.30 32.23 33.84 33.95
35.15 33.50 32.10 30.05 29.09 23.23 29.65 29.48 28.47 29.98 32.34 30.58 31.37 30.62 30.87 30.23 29.90 29.41 29.57 29.46 28.91 29.22 29.15 29.33 29.38 28.76 29.38 29.72 29.50 29.57 29.09 28.65 28.83 28.53 28.62 28.72 29.15 29.33 29.22 29.58 29.63 29.79 29.83 29.55 30.02 30.28 30.46 30.50 31.16
32.09 31.44 25.52 23.93 23.09 23.82 27.75 26.04 30.61 32.99 33.15 33.50 32.45 31.10 30.55 30.64 29.43 28.83 28.23 27.88 28.17 28.23 28.58 29.12 28.60 27.53 28.17 28.51 28.44 28.40 27.93 27.99 27.38 27.19 27.44 27.53 27.69 27.57 27.40 28.13 28.02 28.28 28.42 28.46 28.87 28.59 28.68 28.53 28.64
30.77 32.16 26.61 20.26 20.38 23.40 26.46 24.88 31.52 31.76 31.72 32.58 33.60 32.40 31.36 30.07 29.83 29.23 28.31 27.68 27.89 28.32 28.40 28.13 27.60 27.09 27.53 27.78 27.43 27.64 27.63 27.58 27.06 27.10 27.12 26.93 27.15 27.26 27.60 27.50 27.52 27.34 27.51 27.37 27.39 27.37 27.40 27.56 27.70
31.31 29.37 32.65 25.11 14.82 20.95 26.87 29.09 32.59 30.83 30.22 30.15 30.23 30.36 30.20 30.06 29.84 29.77 28.97 27.59 27.16 27.29 27.72 27.65 27.16 26.92 27.23 27.05 27.10 26.69 26.75 26.59 26.10 26.15 26.57 26.66 27.06 27.48 26.86 26.61 26.08 26.16 26.23 26.11 25.91 25.76 25.53 26.21 26.37
33.29 35.01 28.37 26.72 18.82 17.17 24.19 26.12 29.50 29.40 29.85 28.75 28.54 29.69 30.50 30.51 29.71 29.93 29.51 28.34 27.51 27.27 27.36 27.27 27.54 27.21 27.09 26.95 26.79 26.58 26.04 26.15 26.17 26.35 25.73 25.69 25.95 26.08 25.91 25.79 25.57 25.43 25.36 25.09 24.75 24.54 24.89 24.50 24.95
31.73 30.09 29.68 30.51 27.62 21.79 18.31 24.75 30.86 32.30 31.19 29.68 30.02 31.00 31.17 30.70 30.90 30.65 30.23 29.23 28.45 27.47 26.58 26.46 26.61 26.51 26.83 27.12 26.64 26.70 26.39 26.17 26.29 25.87 25.57 25.44 25.50 25.09 24.84 24.45 24.26 23.98 23.73 23.88 23.46 23.25 23.95 23.04 23.59
31.51 31.72 31.72 27.86 23.52 23.20 23.71 27.69 31.28 31.48 31.85 32.04 31.36 31.89 31.43 32.28 31.96 31.45 30.59 29.61 27.99 27.45 26.58 26.16 26.24 26.48 27.09 26.67 26.49 26.75 26.43 26.16 25.34 24.88 24.92 25.04 23.93 24.00 23.55 22.73 22.36 22.13 21.97 22.08 21.60 21.29 21.99 22.00 22.04

GFSSGP_sfc_wetblb_036.txt.gz
Wetbulb
61.20 60.17 62.16 60.11 51.91 51.21 45.38 45.89 49.18 48.14 48.57 51.48 51.61 50.99 50.48 51.41 49.10 47.05 60.85 64.07 66.33 68.80 71.64 73.11 73.10 74.10 73.97 73.77 73.46 73.29 73.20 72.57 72.33 72.11 71.79 71.58 71.11 71.95 72.14 71.36 71.10 70.49 69.51 68.83 68.44 67.31 66.48 65.68 65.46
60.00 58.61 60.04 56.47 48.81 43.78 44.49 47.95 47.23 49.27 50.63 51.70 51.49 51.24 50.74 49.65 54.19 57.12 60.96 63.49 66.23 68.82 71.48 73.10 72.01 73.39 73.62 73.34 73.36 73.08 72.89 72.27 71.69 71.28 71.13 71.04 71.39 72.28 71.99 70.85 70.13 69.99 69.98 69.03 67.78 66.41 65.28 64.06 63.72
58.17 56.08 56.44 52.80 49.17 43.83 44.49 47.83 49.07 50.26 50.79 50.88 50.68 52.28 51.70 51.22 55.69 58.25 62.70 64.35 67.69 68.94 71.40 72.69 71.66 73.25 73.25 73.18 73.03 72.70 72.63 72.19 71.44 70.96 70.78 70.65 71.42 72.13 71.51 70.63 69.70 68.93 68.89 68.47 67.35 65.76 64.20 62.67 62.26
58.39 57.51 53.84 48.96 45.00 46.00 46.82 48.38 49.89 50.24 50.77 51.12 51.00 49.64 52.12 56.52 57.60 61.50 64.15 66.04 67.67 69.00 70.78 71.07 71.82 73.22 73.20 72.92 72.88 72.24 72.15 71.96 71.54 71.23 71.17 70.94 70.68 71.85 71.17 70.58 69.05 68.01 66.63 65.94 66.09 65.04 63.04 61.15 60.87
57.05 55.36 49.74 46.16 44.96 46.41 48.35 49.46 50.08 49.55 49.30 50.33 50.48 48.71 50.69 54.63 58.88 62.90 64.61 66.15 66.74 68.55 70.39 71.86 71.10 72.56 72.85 72.80 72.91 72.53 72.10 71.89 71.72 71.46 71.34 71.13 70.57 71.18 70.40 69.50 68.35 67.07 65.93 65.17 64.90 63.93 62.12 59.93 59.83
54.24 53.34 47.22 44.08 44.78 46.56 48.67 49.66 49.75 48.54 48.64 49.88 49.40 49.48 50.66 55.01 56.13 60.00 63.02 65.21 67.31 68.42 69.63 70.47 68.41 69.90 71.66 71.99 72.04 72.18 72.37 72.23 72.15 72.22 71.71 70.94 70.62 70.61 69.51 68.26 67.64 66.86 66.06 65.48 64.62 63.11 61.41 59.07 58.56
51.30 50.99 46.18 45.95 45.28 46.15 48.02 49.20 48.50 48.56 48.81 49.16 50.87 48.25 51.60 52.08 54.10 60.30 59.93 61.78 62.99 65.93 68.64 70.12 70.72 70.11 66.57 69.24 69.65 70.74 71.34 71.25 71.34 71.14 70.95 70.80 70.30 70.13 68.68 68.19 67.60 66.35 65.97 65.41 64.07 62.43 60.78 58.50 56.93
52.44 51.32 45.40 45.81 44.64 45.51 48.64 48.62 49.28 49.43 48.66 50.73 51.15 47.91 49.05 50.61 52.03 55.71 55.65 55.21 55.36 55.35 57.39 59.82 67.22 68.48 70.34 71.79 66.02 67.22 69.19 69.71 70.09 69.74 68.96 68.06 67.83 68.34 66.20 65.08 66.46 66.28 65.79 65.12 63.50 61.93 60.22 57.99 55.40
49.85 46.54 44.30 45.29 45.01 46.60 48.96 48.01 49.62 50.07 49.65 49.68 49.21 48.69 47.86 49.41 51.75 53.28 53.45 53.52 53.62 53.14 53.63 54.66 56.82 60.68 66.93 68.88 68.81 65.88 66.15 67.33 67.42 67.64 65.85 66.36 70.34 69.61 66.94 64.29 65.36 66.41 66.06 65.09 63.47 61.81 59.25 55.45 50.70
49.25 46.46 44.30 47.76 48.07 47.97 48.54 48.47 49.08 48.50 48.69 47.98 48.25 48.45 48.47 49.28 49.90 49.86 49.79 50.00 50.45 50.84 51.98 52.81 54.04 55.81 58.86 66.94 68.61 69.27 70.16 71.11 71.01 70.56 69.77 69.11 69.73 68.86 66.31 62.45 63.00 64.17 64.36 64.78 63.68 61.52 57.79 57.72 57.19
47.77 45.65 45.19 46.83 48.45 49.34 48.58 48.45 49.43 48.49 47.03 48.40 48.15 47.33 46.97 47.76 47.86 47.73 47.93 47.96 48.02 49.75 51.80 52.32 52.98 53.78 55.98 65.88 68.29 68.95 69.00 70.45 70.47 69.78 68.65 68.29 67.23 66.29 65.88 64.99 63.92 64.62 61.46 63.19 63.06 60.58 61.08 59.83 58.56
46.33 47.27 47.34 48.48 49.10 48.19 47.91 49.27 48.32 48.63 47.50 46.39 46.36 45.86 45.89 45.94 45.73 45.65 46.22 46.93 47.85 49.39 50.65 52.53 53.60 55.11 55.54 62.09 67.13 67.80 67.87 68.93 69.42 66.29 67.83 68.80 68.28 66.84 65.63 65.38 63.81 63.63 63.72 62.97 60.84 59.85 59.68 60.04 57.04
47.48 47.61 47.80 48.90 48.17 48.33 47.54 47.98 47.73 46.67 45.55 45.60 45.00 44.86 44.81 44.83 44.60 45.27 45.75 47.03 47.83 48.46 50.60 52.09 55.07 57.24 57.48 58.38 66.65 66.73 66.30 66.09 65.01 64.67 64.35 65.42 65.38 66.63 67.52 66.63 64.06 64.30 63.96 64.30 62.95 59.25 56.50 58.25 58.28
47.23 46.85 47.22 47.51 47.14 47.08 46.27 46.48 46.64 44.34 45.26 44.39 44.33 43.90 43.79 43.25 43.12 44.91 45.25 45.99 46.59 48.04 49.84 52.56 52.57 57.41 59.47 63.14 64.33 63.20 62.67 61.85 61.37 61.60 62.19 62.36 62.55 62.67 62.57 62.28 62.01 62.42 61.58 61.42 59.01 56.88 55.76 54.22 52.76
46.32 44.99 46.61 46.84 45.87 45.92 46.86 43.06 44.29 45.72 45.27 43.60 42.42 42.54 41.83 41.77 42.92 42.81 43.63 44.67 45.44 48.26 50.24 47.53 50.77 54.86 56.35 55.81 54.91 54.42 54.65 55.35 55.69 56.48 56.96 58.48 60.29 60.83 60.53 59.04 58.19 57.76 57.30 56.69 56.26 53.67 53.04 53.17 52.30
44.33 44.09 43.11 45.28 45.27 44.79 45.65 43.98 44.75 45.12 44.77 43.70 42.35 42.07 41.47 40.66 41.31 42.36 42.87 43.80 45.06 47.39 48.26 47.56 49.63 49.91 49.54 49.61 49.35 48.53 48.82 50.62 51.54 52.30 53.44 54.13 55.08 56.25 55.90 54.75 54.51 55.39 55.12 54.61 54.24 53.56 52.55 51.29 49.65
42.95 41.93 41.46 43.33 44.91 44.50 44.42 44.50 45.01 44.83 44.84 43.58 42.54 41.45 40.89 41.07 41.36 41.60 41.99 42.63 43.71 45.70 47.51 46.56 47.48 46.96 46.58 46.56 45.73 44.67 44.69 46.19 47.92 48.24 48.89 48.32 51.92 52.56 52.49 53.26 53.67 54.07 52.87 52.05 52.31 51.43 51.71 51.49 50.62
41.60 40.11 40.56 41.98 43.78 43.50 43.47 44.22 43.68 43.84 43.91 43.63 41.96 41.06 40.67 40.08 38.89 40.02 41.01 41.81 43.37 45.42 47.31 47.57 46.35 46.89 46.21 46.01 45.09 44.48 43.91 43.57 44.05 45.16 46.28 47.42 47.73 49.95 51.37 51.71 51.98 52.74 51.90 50.88 52.40 51.68 51.60 49.77 48.34
43.11 41.72 42.02 42.25 42.83 42.74 44.01 44.35 44.68 43.45 42.51 41.65 41.28 40.63 40.11 39.18 39.23 40.07 40.37 41.42 42.96 44.00 45.15 46.29 47.54 47.98 50.56 49.50 48.44 46.33 43.68 42.82 41.80 41.86 42.79 43.77 44.59 45.73 46.78 46.79 47.04 48.19 47.47 47.61 48.59 50.60 50.28 49.50 48.84
40.85 40.87 41.49 42.04 41.62 41.97 42.90 42.21 45.70 42.22 43.26 43.40 41.39 40.32 39.66 38.96 38.98 38.67 39.45 40.29 40.72 41.18 42.58 43.38 44.02 45.39 46.05 46.46 45.30 43.45 40.86 39.77 39.81 39.68 39.30 40.02 40.27 40.69 41.06 42.20 42.07 43.42 44.05 43.63 44.79 45.81 47.44 47.60 47.35
40.20 39.96 41.15 40.29 40.34 41.08 40.19 40.70 42.98 41.46 39.93 40.00 40.78 41.16 40.15 39.86 38.32 38.12 37.91 38.51 39.89 39.07 40.00 40.73 41.65 42.50 43.32 42.45 41.38 40.34 40.39 40.01 38.62 37.77 37.13 37.37 38.11 38.31 38.67 38.72 38.94 38.78 39.28 38.36 39.19 41.08 42.29 43.04 44.81
38.67 41.71 40.48 38.98 38.07 36.68 40.17 36.59 40.84 41.70 39.14 37.55 38.00 38.38 38.88 38.47 38.25 37.33 37.38 37.50 37.43 37.06 38.26 38.49 39.64 39.94 40.47 41.54 41.40 40.76 38.91 35.91 36.01 36.19 36.35 36.04 36.75 36.50 37.05 37.09 37.15 37.16 37.19 36.58 36.85 37.41 37.61 38.34 36.41
41.10 40.40 39.73 39.08 38.33 36.85 37.01 35.54 41.24 37.67 37.47 36.99 37.52 38.19 38.91 38.81 37.61 36.02 35.86 35.05 35.10 36.31 36.47 37.18 37.41 37.33 37.93 38.65 38.91 37.99 36.22 36.01 36.27 36.11 35.35 35.24 35.27 35.52 35.34 35.79 35.77 35.45 35.67 35.72 35.58 35.66 35.77 36.23 35.45
40.24 39.39 38.27 37.79 37.19 31.77 37.29 36.52 39.37 38.75 39.94 40.10 38.16 37.72 37.84 37.14 36.63 35.97 35.25 34.53 34.18 35.03 35.50 36.16 35.52 35.09 36.36 37.13 37.67 37.05 35.81 35.28 34.89 34.82 34.23 34.26 34.49 34.43 34.42 34.35 34.49 34.38 34.10 33.92 34.31 34.72 34.30 34.31 34.47
40.18 39.04 33.50 30.87 30.29 30.63 33.32 33.84 40.04 42.68 39.22 40.75 38.17 37.37 37.64 37.11 35.85 34.98 33.88 33.63 33.79 33.96 34.29 34.69 34.77 33.77 34.98 35.37 35.51 35.59 35.46 35.40 34.57 34.43 34.30 33.94 33.58 33.17 32.61 33.35 33.00 32.84 32.72 32.73 33.20 33.01 33.01 32.74 32.54
37.71 40.16 35.72 28.55 28.30 32.44 30.71 30.63 37.92 37.65 37.74 37.80 40.79 39.03 37.68 36.49 35.97 35.11 34.80 34.50 33.75 33.52 34.25 34.12 34.07 33.06 34.12 34.36 34.10 34.64 34.85 34.59 34.11 33.98 33.81 33.44 33.04 32.59 32.78 32.31 32.10 31.49 31.33 31.36 31.17 31.16 30.82 31.06 31.14
36.55 34.07 40.09 30.98 24.73 30.47 35.26 36.31 40.28 35.51 35.48 35.94 37.08 36.92 36.01 36.08 35.72 35.41 35.17 34.69 34.04 34.00 33.91 34.11 33.68 33.38 33.56 33.48 33.65 33.43 33.76 33.60 32.83 32.94 33.39 32.80 32.62 31.30 31.24 30.80 30.29 30.03 29.91 29.80 29.96 29.73 29.14 29.79 29.82
38.76 40.35 32.47 33.93 28.51 27.57 33.10 34.17 38.16 35.05 36.04 35.07 34.89 35.68 36.65 36.88 36.15 35.94 35.10 34.41 34.74 34.81 34.37 34.24 34.11 33.44 33.37 33.41 33.56 33.06 32.94 33.07 32.80 32.72 31.72 31.55 31.04 30.76 30.25 30.13 29.94 29.69 29.58 29.32 29.28 29.07 29.32 28.69 29.48
34.76 34.79 35.46 36.50 34.55 31.50 30.80 34.86 41.05 41.29 39.75 36.45 37.13 37.26 37.52 36.82 36.57 36.38 35.91 35.22 34.29 34.21 33.71 33.34 33.42 33.04 32.77 33.16 33.04 32.74 32.38 32.34 32.44 31.99 31.61 31.13 30.18 29.62 28.89 28.32 28.13 27.53 27.32 27.34 27.60 27.25 27.30 26.63 27.05
39.82 38.12 37.21 33.66 29.33 31.16 30.64 35.35 36.73 39.27 40.69 39.79 39.02 37.99 38.62 38.09 37.52 37.29 37.21 35.82 33.75 32.87 32.74 32.82 33.14 32.91 33.23 33.15 32.69 32.53 32.36 32.02 31.63 31.20 30.70 30.16 29.03 28.34 27.28 26.70 26.50 26.12 25.77 25.85 25.41 25.21 25.62 25.00 24.93

GFSSGP_sfc_wetblb_042.txt.gz
Wetbulb
62.59 60.53 59.65 58.39 49.78 47.79 42.22 43.23 46.27 46.66 46.54 48.80 49.05 48.29 47.43 49.14 48.53 45.39 60.81 63.97 65.65 70.30 72.06 73.19 73.42 73.64 73.75 73.46 73.35 73.24 73.44 73.19 72.45 72.58 72.19 71.61 72.24 71.79 71.07 70.60 70.39 69.91 68.96 67.87 67.38 66.40 65.64 65.64 66.28
58.41 59.60 58.37 54.96 45.27 40.53 40.37 45.07 45.36 47.03 48.76 49.32 48.64 48.81 48.09 47.79 55.20 57.30 58.53 64.55 65.95 70.28 71.50 72.04 72.33 73.13 72.94 72.98 73.25 73.27 73.14 72.89 71.83 71.32 71.07 72.60 72.15 71.42 70.39 69.77 69.32 69.06 68.43 68.06 67.02 65.52 64.42 63.86 64.04
60.04 58.71 53.14 49.77 45.19 40.94 40.92 45.70 45.66 47.83 48.11 47.97 46.63 49.75 49.72 50.03 56.53 58.07 60.33 64.58 66.39 68.56 71.20 71.39 71.75 72.38 72.79 72.76 72.57 72.60 72.62 72.44 71.54 71.09 71.21 71.86 71.71 70.96 69.92 68.82 67.65 66.99 67.03 66.64 66.35 64.61 63.26 62.96 63.39
57.18 55.88 52.76 44.84 43.22 44.81 45.18 46.36 47.46 47.52 48.48 49.15 48.62 46.97 50.92 56.73 57.04 60.57 63.62 64.17 66.21 67.63 71.14 70.39 71.87 72.57 72.33 72.37 72.28 71.99 71.83 72.09 71.36 70.92 70.71 71.44 71.25 70.74 69.78 68.35 67.46 66.98 66.66 65.97 65.08 63.40 62.11 61.93 62.10
55.70 53.37 46.88 43.23 43.23 44.79 46.84 48.52 47.18 46.84 45.78 46.87 46.44 46.89 48.18 53.39 59.80 60.50 62.43 64.28 65.47 66.05 70.71 71.05 71.38 72.01 72.21 72.10 72.22 72.20 71.90 71.65 71.81 71.68 71.06 70.74 70.77 70.20 69.42 68.22 67.54 67.04 66.49 65.61 64.37 62.61 60.75 60.64 60.97
51.86 51.19 43.59 40.61 42.45 45.21 46.79 47.94 47.14 46.25 46.33 45.19 45.51 47.69 46.72 53.16 57.28 58.80 62.48 63.40 66.51 67.27 69.25 70.68 68.91 68.85 69.68 71.66 71.64 71.66 71.58 71.11 71.05 70.84 70.87 70.68 70.64 70.27 69.29 68.14 67.57 67.20 66.37 65.60 64.48 62.70 60.34 59.10 58.67
49.78 47.36 43.57 42.64 42.74 43.31 46.50 47.90 43.88 44.99 45.39 46.07 47.44 45.10 46.35 48.48 51.70 56.25 56.96 58.72 59.89 62.11 66.45 68.11 69.57 68.69 66.35 67.33 68.95 70.19 70.94 70.83 70.80 70.57 70.36 69.93 69.89 69.57 69.03 68.31 67.83 67.19 66.31 65.45 64.30 62.93 60.89 57.75 56.63
49.80 46.81 42.26 40.54 42.59 43.04 47.24 47.15 47.62 47.10 45.18 48.88 48.72 44.18 43.07 45.49 50.02 54.66 54.42 54.42 54.35 55.30 56.89 58.03 65.14 67.67 68.14 69.17 65.67 67.61 69.05 69.45 69.48 69.23 68.35 67.50 67.56 66.70 66.46 65.50 67.19 66.95 66.14 65.26 64.09 62.88 60.85 57.49 54.90
50.56 42.60 40.89 41.75 42.85 44.85 47.81 45.61 47.14 47.47 46.88 47.16 48.10 45.84 46.17 48.31 51.34 52.07 51.46 51.56 51.74 52.61 52.04 53.29 54.55 58.95 66.59 67.36 66.55 64.72 66.95 67.49 67.21 67.03 65.74 64.60 67.26 65.72 64.56 64.44 66.10 66.99 66.32 64.96 63.83 62.21 60.08 56.74 55.18
46.49 42.96 43.80 46.46 46.13 45.38 47.38 46.42 47.44 45.01 46.27 44.09 45.19 47.19 48.27 48.65 48.67 48.91 48.08 47.69 48.13 48.61 50.16 51.76 52.29 53.40 56.15 64.89 66.93 68.04 69.30 68.55 67.92 67.70 67.19 67.27 67.45 66.81 65.12 62.30 63.36 64.70 64.65 65.02 63.54 61.36 60.70 58.93 54.27
46.96 42.56 44.91 46.51 48.78 48.91 47.41 45.27 46.78 44.31 44.14 45.60 46.01 46.01 47.28 47.63 47.02 47.30 46.78 46.81 46.38 47.51 50.71 52.43 53.07 53.38 53.49 61.21 65.81 67.18 67.06 66.90 67.51 66.70 67.12 66.28 65.99 64.36 64.11 61.90 61.67 62.65 61.49 62.36 61.17 59.34 58.52 57.55 55.31
43.80 46.14 46.60 48.93 48.77 47.88 46.30 47.61 45.20 45.70 43.74 47.42 46.61 47.39 46.98 46.16 45.46 45.17 45.42 45.88 46.56 48.58 50.89 53.68 55.19 55.95 53.64 54.67 65.92 66.07 65.01 63.74 64.22 63.93 64.57 65.59 65.28 64.45 64.23 62.70 62.80 62.94 62.55 62.50 61.29 59.25 57.77 56.79 56.16
45.24 46.49 47.69 48.67 47.62 46.72 48.34 45.63 45.62 44.62 45.59 46.36 46.66 47.37 45.30 44.67 45.21 45.31 45.91 46.94 47.96 48.75 51.04 51.60 54.58 56.55 55.39 56.05 64.23 62.33 61.43 60.82 60.42 60.46 61.40 63.30 62.95 61.88 61.86 61.67 61.76 60.69 61.37 60.95 59.29 58.03 57.61 55.22 55.09
47.12 47.46 47.00 48.05 47.64 47.05 45.34 45.06 45.05 45.30 45.55 44.58 45.67 44.14 43.31 43.74 43.40 44.55 44.53 45.14 47.42 50.24 49.17 52.02 53.52 55.47 55.89 56.79 57.43 57.45 57.28 57.44 56.39 56.46 57.37 58.62 59.44 58.94 58.33 57.62 57.36 57.16 57.72 57.15 56.17 55.32 54.46 53.95 52.77
46.92 42.88 45.38 45.81 46.22 44.88 45.56 42.40 43.08 46.01 45.56 44.12 43.81 42.26 42.68 42.91 43.66 42.45 43.00 44.60 46.68 48.84 50.25 50.47 51.69 52.93 51.52 51.59 53.12 53.45 53.96 54.44 54.07 54.65 54.85 55.32 56.31 55.85 55.24 54.45 53.57 54.11 54.74 54.41 54.18 54.17 53.63 52.84 52.17
43.05 42.07 38.58 45.10 45.77 44.20 43.00 38.83 45.22 44.95 43.74 42.82 42.79 41.36 41.76 41.96 42.80 42.50 43.21 45.11 47.94 47.63 48.43 49.22 49.90 48.39 47.74 48.23 49.36 50.77 51.32 52.13 51.65 51.62 52.06 53.40 53.56 53.07 52.50 53.35 52.97 53.56 53.43 53.31 52.31 50.59 51.02 50.08 49.41
41.57 36.55 39.56 41.38 45.56 43.57 41.79 40.20 43.21 44.72 44.05 42.40 41.88 41.99 42.12 40.99 41.22 41.66 42.90 44.67 47.42 47.38 48.31 47.73 47.89 46.61 45.94 45.74 46.03 46.46 48.10 48.76 48.64 48.80 47.71 48.53 50.57 51.27 50.19 49.41 49.17 49.42 48.34 47.51 49.58 49.79 48.07 45.68 45.10
38.39 37.54 40.88 39.58 42.56 42.86 40.33 39.83 42.73 43.69 43.64 42.72 42.25 42.03 41.22 41.00 40.65 41.57 42.43 44.91 47.29 47.94 48.26 47.41 46.56 45.70 45.25 44.89 45.18 45.44 44.62 44.14 43.60 42.94 43.65 45.04 46.02 46.55 45.66 45.67 44.91 45.20 44.20 43.40 43.53 46.73 46.32 43.34 42.46
42.67 40.32 39.43 41.38 42.70 41.32 40.88 41.31 44.02 42.99 42.38 41.91 42.32 41.72 40.98 40.72 40.39 40.98 42.48 44.14 46.30 48.14 47.71 47.11 46.28 46.52 47.09 46.26 45.41 43.51 40.80 39.40 39.00 39.77 40.01 40.12 40.90 41.65 40.73 40.43 41.02 39.46 38.45 37.86 38.50 41.68 41.45 40.91 39.79
42.10 39.69 38.81 42.59 42.50 39.87 40.30 40.40 43.71 43.40 42.64 43.45 43.67 41.92 41.02 38.71 38.23 40.09 41.11 43.20 44.57 46.72 47.62 48.02 47.94 47.48 48.12 45.74 43.72 40.26 37.78 36.79 36.66 36.69 37.06 37.55 37.67 37.79 38.24 36.61 36.19 35.97 35.43 35.11 34.98 34.91 36.56 35.50 36.21
40.73 38.85 38.52 39.39 40.34 39.19 37.05 36.02 40.45 44.26 44.71 43.99 44.11 43.79 42.32 38.82 37.63 38.38 40.01 40.77 41.79 42.35 44.61 45.74 45.40 43.54 42.08 40.53 39.76 38.73 37.56 35.93 34.28 33.80 34.12 35.28 36.01 36.21 36.00 35.36 34.79 34.29 33.99 33.04 32.55 32.71 32.48 31.26 32.66
37.69 42.70 42.11 40.54 36.49 31.73 38.02 29.52 38.40 42.43 43.37 42.65 43.21 41.58 40.22 39.26 39.01 38.80 39.60 39.39 39.72 39.07 40.11 40.77 41.42 40.62 40.47 39.88 38.35 37.54 35.32 32.71 32.52 32.43 33.01 33.74 34.12 34.03 34.46 34.30 33.74 33.23 32.77 32.03 31.90 32.96 31.39 31.08 29.05
39.59 42.01 39.75 38.60 35.93 34.45 34.81 32.64 36.66 42.17 41.63 42.23 41.50 40.13 39.52 39.05 38.61 38.09 37.73 38.26 36.90 37.29 37.40 37.56 37.64 38.14 38.63 38.83 37.50 35.55 33.53 32.82 32.64 32.04 31.55 31.54 31.95 32.70 32.84 32.45 31.55 31.40 31.87 31.01 30.81 30.07 29.85 30.19 28.35
42.47 39.93 38.24 36.67 35.42 28.53 35.44 35.04 34.29 39.92 41.81 42.60 41.09 40.59 39.69 38.54 37.90 37.10 36.48 35.65 34.64 35.04 35.16 35.22 35.19 35.63 36.63 36.48 35.63 34.22 33.03 32.60 31.73 31.00 30.19 30.06 30.28 30.53 31.05 31.74 30.34 30.23 29.67 29.70 29.57 29.61 28.97 28.74 28.50
39.88 36.75 29.48 27.07 25.67 26.69 34.27 33.47 37.45 41.38 41.28 42.39 41.47 40.57 39.78 38.75 37.23 35.42 33.33 32.73 33.15 33.22 33.40 33.67 33.44 33.47 34.59 34.70 34.62 34.19 33.04 32.45 31.43 30.56 29.82 29.22 28.73 28.34 28.64 29.28 28.47 28.26 28.45 28.77 29.07 27.73 26.93 27.18 26.22
36.36 37.59 30.73 24.93 25.81 27.64 29.00 27.76 35.34 39.05 39.32 40.81 43.00 41.72 40.44 38.29 37.44 34.56 33.35 33.51 33.20 33.34 32.39 32.04 32.21 32.39 33.10 33.14 33.12 33.06 33.07 31.83 31.43 31.28 30.47 29.42 28.31 28.22 28.81 28.24 28.00 27.88 27.93 27.64 27.71 26.59 26.29 25.93 25.52
36.42 33.52 40.87 31.73 24.02 24.22 31.14 33.79 39.08 36.84 35.97 36.50 38.36 39.02 38.57 37.70 36.53 34.62 34.27 33.56 32.50 32.34 32.01 32.20 31.79 31.85 32.05 31.96 31.67 31.66 31.63 31.15 30.49 30.45 30.08 28.88 28.57 29.68 28.23 27.56 26.80 26.75 26.44 26.20 26.27 25.36 24.24 24.46 25.07
37.84 40.25 31.34 31.06 20.60 21.62 29.41 32.26 34.21 33.44 35.23 35.39 37.12 37.52 38.18 37.90 36.53 35.17 34.34 33.43 32.95 32.33 31.97 32.23 31.97 31.49 31.53 31.67 31.35 31.14 30.79 30.77 30.44 29.92 28.60 27.75 27.12 27.77 26.99 26.50 26.20 25.68 25.32 24.75 24.57 23.90 23.92 23.36 23.35
34.04 33.09 35.04 35.77 31.70 25.73 24.48 30.89 38.73 39.47 38.85 35.80 37.83 38.41 38.13 37.39 36.34 35.28 34.90 34.58 33.69 33.16 32.34 32.19 31.71 31.46 30.80 30.90 30.65 29.91 29.65 30.10 29.82 28.65 28.10 27.45 26.93 26.51 26.00 25.75 25.10 24.67 24.14 23.89 23.09 22.95 22.86 22.43 22.51
38.55 36.28 36.19 29.62 28.07 30.52 28.26 33.17 38.61 38.58 40.05 38.83 38.35 38.78 38.24 37.84 36.74 36.20 35.39 34.27 32.79 32.40 31.94 31.64 31.14 30.67 30.39 30.64 30.04 29.39 29.66 28.96 28.17 27.87 27.52 26.67 25.67 25.85 24.94 24.65 24.50 24.17 23.81 23.34 22.57 22.20 22.39 21.72 21.85

GFSSGP_sfc_wetblb_045.txt.gz
Wetbulb
58.24 55.20 53.63 53.76 45.40 40.33 36.15 39.11 41.10 42.92 42.81 45.10 47.00 49.50 47.68 47.26 48.21 43.05 58.82 62.89 69.74 70.85 72.46 72.53 72.60 73.90 73.69 73.42 73.49 73.49 73.29 73.27 72.98 72.18 72.12 72.27 71.70 70.74 70.44 69.95 70.22 68.72 68.22 67.83 66.73 66.01 65.46 65.57 67.51
55.10 57.64 53.95 48.41 40.71 33.96 35.16 38.77 41.89 42.92 45.78 47.27 48.12 46.70 46.88 47.29 54.30 56.13 56.73 63.61 70.08 71.01 72.13 72.37 71.52 72.88 73.18 72.97 73.06 73.11 72.97 72.72 71.55 71.32 72.35 71.93 71.24 70.30 69.03 68.04 67.75 67.40 67.43 67.38 66.12 65.26 64.61 64.75 65.19
56.98 55.70 48.19 44.25 38.39 35.26 36.41 39.52 42.31 44.46 45.91 45.55 45.20 48.59 47.29 48.35 54.95 56.52 59.13 63.84 68.88 70.28 71.65 71.52 71.28 72.46 72.75 72.61 72.58 72.84 72.83 72.39 71.43 71.40 72.07 71.58 70.85 69.79 68.61 67.82 67.40 66.83 66.69 66.10 64.96 64.16 63.62 63.13 63.30
52.31 51.44 47.78 40.40 37.14 40.15 40.86 41.24 44.22 44.54 45.79 47.67 46.89 45.07 49.38 53.99 55.91 59.44 61.65 65.16 66.17 69.00 71.09 70.08 71.50 72.72 72.82 72.20 72.42 72.52 72.50 71.68 71.19 71.01 71.67 71.52 70.79 69.46 68.44 67.80 67.41 66.71 65.80 65.02 63.65 62.45 62.05 61.96 61.83
50.46 47.08 41.39 37.60 38.21 41.08 41.30 44.08 44.40 43.44 43.40 44.32 46.32 44.49 46.36 51.99 57.81 59.24 61.63 64.38 64.78 68.69 69.82 70.41 70.89 71.58 72.09 72.16 71.94 71.98 71.94 71.59 71.74 71.48 71.12 70.76 70.45 69.06 68.53 67.93 67.54 66.96 66.30 65.54 63.78 61.47 60.34 59.84 59.89
47.40 45.08 38.13 35.15 36.93 42.08 42.46 44.58 45.06 42.41 42.50 43.81 45.51 44.22 44.58 49.76 55.70 55.97 59.07 58.85 62.34 67.03 69.87 70.42 67.56 68.23 69.36 71.09 71.33 71.22 71.36 71.15 70.96 70.96 70.63 70.29 70.11 69.47 68.55 68.13 67.67 66.98 66.36 65.63 64.53 62.20 59.43 58.38 57.89
44.29 40.96 37.32 36.35 37.53 39.54 43.47 44.71 41.70 42.71 42.00 43.29 46.04 42.09 43.17 46.06 49.90 55.10 56.19 56.21 56.24 57.68 59.67 67.82 69.06 67.70 65.95 66.96 68.67 69.82 70.40 70.66 70.55 70.27 70.02 69.74 69.42 69.30 68.89 68.35 67.78 66.88 66.30 65.50 64.43 62.24 59.67 57.37 56.04
44.88 41.36 37.08 38.31 38.54 38.77 44.32 44.22 44.96 44.81 42.37 46.20 45.57 41.63 40.38 44.68 49.66 52.63 52.18 51.45 51.19 52.24 53.13 54.73 58.38 66.85 67.49 68.10 64.97 67.98 68.41 68.78 68.92 68.08 67.61 66.72 66.76 66.81 66.44 65.61 67.40 66.97 66.08 65.26 64.00 62.08 60.05 57.85 56.46
44.66 37.73 35.52 38.12 39.52 41.37 44.13 42.91 45.10 45.61 45.08 44.59 45.03 43.20 44.57 47.87 49.80 49.90 48.53 48.49 48.60 50.27 50.22 51.30 52.09 54.05 62.19 66.98 64.86 65.04 66.70 66.67 66.46 66.12 64.67 64.19 65.28 65.52 64.79 64.51 66.24 66.94 66.00 64.83 63.52 62.31 60.19 56.61 56.27
42.00 37.05 38.72 41.81 41.82 42.02 44.52 43.64 45.09 43.35 42.68 41.62 41.98 44.38 46.02 46.41 46.87 46.06 45.13 44.46 45.31 46.39 49.05 50.66 51.18 51.93 53.97 63.37 66.86 68.35 67.86 67.41 67.52 67.34 66.26 66.61 66.82 65.50 64.55 61.97 63.25 64.45 64.44 64.66 63.35 62.76 61.12 57.65 52.55
42.08 38.22 41.08 43.61 45.76 45.58 44.93 43.62 44.43 43.51 40.25 42.90 43.32 43.89 45.07 44.71 44.48 44.51 44.10 44.39 44.58 46.47 49.93 52.97 53.91 53.72 51.97 57.66 65.18 66.66 66.10 65.65 65.65 66.21 66.86 65.43 64.74 62.56 61.65 60.55 60.84 62.13 60.42 60.93 59.96 58.10 57.70 55.51 53.32
39.06 42.75 43.95 46.58 46.55 45.57 43.35 44.84 43.05 42.81 42.22 44.15 44.38 44.93 43.99 43.62 43.32 43.63 43.67 44.45 45.43 48.18 50.03 51.99 53.60 54.83 53.77 53.33 64.90 64.23 63.10 62.78 62.22 62.78 64.90 65.21 63.30 62.62 61.82 62.73 63.36 62.46 62.53 60.49 58.39 56.79 57.59 55.92 55.78
41.39 42.90 45.15 46.19 45.23 44.01 46.02 43.40 42.88 41.87 42.50 44.49 45.12 44.75 42.96 42.74 42.88 43.37 44.65 45.77 47.15 48.08 48.29 50.60 53.16 54.19 55.97 61.88 62.06 61.06 59.72 59.16 58.98 59.89 61.51 62.10 60.81 60.67 60.38 59.53 59.34 59.12 59.07 59.02 57.49 55.67 55.14 54.04 53.24
43.72 44.19 44.34 45.57 45.32 44.52 43.60 42.31 42.73 41.68 42.17 42.75 43.51 41.53 41.22 42.45 42.68 42.25 43.32 44.33 47.65 48.35 47.83 49.83 51.71 52.55 56.00 57.08 57.34 56.99 57.28 55.96 57.02 57.11 57.57 58.36 58.36 57.60 57.30 56.37 55.94 55.73 56.49 56.46 55.24 52.85 53.80 51.63 51.31
44.06 39.83 42.14 43.20 44.45 42.93 43.78 40.32 41.73 42.71 42.37 41.76 40.95 39.86 40.59 41.56 41.95 41.16 42.40 44.08 47.30 47.65 48.33 48.99 50.01 49.95 51.50 53.17 53.64 54.17 54.12 54.18 54.30 54.22 54.43 54.94 54.76 53.69 52.71 52.14 52.06 53.14 52.41 51.72 51.73 52.12 52.48 49.94 49.80
39.68 38.31 35.43 42.01 43.40 42.75 41.55 36.36 42.40 42.28 41.27 40.19 39.61 38.37 39.51 40.62 41.06 40.94 42.58 45.19 46.78 46.84 46.80 47.62 48.99 48.24 48.28 48.80 50.72 51.15 51.47 51.27 51.04 51.80 52.12 52.42 52.32 51.67 50.85 50.70 49.94 49.05 48.78 49.93 49.14 48.20 45.83 44.42 43.82
36.37 32.70 35.35 39.72 42.64 41.58 39.46 37.46 40.96 41.99 41.47 39.51 38.55 38.27 39.00 38.73 39.02 39.95 42.46 45.03 45.88 46.32 46.45 46.99 46.55 46.07 45.99 46.74 47.19 47.18 46.86 46.49 46.80 46.76 45.75 46.55 47.64 47.45 46.38 45.63 45.03 44.88 43.72 43.76 47.04 44.65 42.52 40.15 40.68
34.06 33.58 37.23 36.68 41.01 39.75 37.42 37.72 40.42 41.78 41.15 39.84 38.58 38.32 38.45 38.28 38.58 40.01 42.23 45.13 45.38 45.69 46.46 46.48 46.14 45.21 45.27 45.70 44.75 43.70 42.78 42.24 42.11 41.69 40.59 42.08 42.67 42.78 42.70 40.52 39.78 39.74 38.81 38.98 42.43 41.03 39.56 37.25 36.24
37.64 35.91 35.50 38.27 41.16 39.11 37.90 38.28 40.49 41.24 39.91 38.82 38.33 38.56 38.97 38.73 38.33 39.89 41.75 44.28 44.54 45.26 46.04 45.92 45.24 44.99 45.37 45.04 43.03 41.13 39.07 38.86 38.41 37.97 37.51 38.06 38.44 38.38 37.98 37.24 36.56 36.14 35.26 34.45 36.05 38.10 35.05 34.13 33.81
38.85 36.30 35.94 39.03 40.28 38.81 37.85 37.76 40.72 40.41 40.95 41.63 41.27 40.42 39.92 36.44 36.72 38.74 40.35 42.49 43.91 44.70 46.57 46.28 46.34 46.78 47.01 45.31 42.53 40.17 37.56 35.86 34.78 35.29 35.31 36.05 36.34 36.43 36.28 35.25 34.43 33.66 33.77 32.97 32.37 32.58 32.26 32.04 32.43
37.88 36.40 35.41 37.40 37.73 37.28 35.06 33.93 37.40 41.12 41.42 41.71 42.85 42.70 41.03 37.53 36.43 37.22 38.96 40.90 42.17 43.36 46.39 47.09 47.07 45.30 42.52 40.50 39.13 37.35 35.66 33.88 33.32 32.46 33.23 33.77 34.85 34.95 34.74 33.95 33.56 32.93 32.74 31.30 30.43 30.06 30.29 28.73 30.36
35.20 40.23 39.98 38.49 34.64 30.50 35.18 29.43 35.63 38.74 39.67 39.54 42.22 39.69 39.84 37.11 37.32 38.06 38.91 39.16 40.29 41.10 43.64 44.09 42.94 40.99 40.08 39.49 37.17 35.81 34.03 31.81 30.81 31.31 31.82 32.29 32.84 32.86 33.31 33.18 32.63 32.00 31.58 30.23 30.32 30.38 28.83 28.52 26.53
37.83 39.76 38.02 36.66 33.49 31.64 32.09 29.50 33.90 39.28 39.65 42.51 41.99 41.24 39.65 37.76 37.41 37.75 38.89 39.81 38.40 37.74 37.45 39.73 40.30 38.01 37.91 37.78 37.21 34.59 32.05 32.12 31.95 31.13 30.43 30.57 30.98 31.66 31.65 31.14 30.46 30.46 30.65 29.56 28.92 28.21 28.26 28.11 26.63
40.61 38.41 37.27 35.22 33.26 26.31 32.88 32.25 31.98 38.19 40.54 43.34 41.23 39.02 37.47 36.72 36.93 37.72 37.62 36.41 35.13 34.96 34.71 34.56 35.48 35.87 36.69 36.01 34.00 32.99 31.64 30.78 30.00 29.58 29.30 29.60 29.54 29.64 29.75 29.96 29.10 28.93 28.91 28.53 28.02 27.54 26.94 26.62 26.20
38.89 34.93 27.20 26.00 24.62 26.99 33.27 31.01 36.92 39.41 41.46 42.03 41.13 37.96 36.85 36.86 35.78 35.49 34.45 34.41 33.36 32.56 32.57 33.00 33.54 33.26 34.12 34.11 32.72 32.20 31.79 31.48 30.63 29.82 29.44 28.88 28.40 27.56 27.55 27.99 27.42 27.16 27.78 27.85 27.11 26.31 26.08 25.56 24.79
34.80 35.35 28.91 23.20 23.71 26.08 29.22 27.15 34.42 40.97 42.14 38.86 41.57 40.54 37.55 36.15 36.16 34.86 34.04 33.68 33.07 32.72 31.82 32.17 32.57 32.15 32.32 32.60 32.21 32.29 32.03 31.87 31.39 30.72 29.86 28.56 27.93 27.36 27.41 27.08 26.88 26.85 26.99 26.97 26.32 25.43 25.56 24.99 24.00
34.31 32.92 39.33 31.24 19.66 22.42 29.42 32.73 37.40 36.93 36.95 36.51 37.56 38.16 36.78 35.90 34.64 33.41 32.60 32.62 32.42 32.14 31.93 32.46 31.76 31.46 32.40 32.64 32.17 31.76 31.14 31.30 31.07 29.78 29.11 28.39 27.60 28.40 26.86 26.41 25.77 25.63 25.46 25.76 25.07 23.94 23.27 23.61 23.66
37.15 38.57 30.93 29.63 19.97 19.55 26.94 29.14 33.37 34.14 36.55 35.39 35.87 36.20 35.46 35.22 33.54 32.86 32.58 32.43 32.75 32.90 31.51 31.75 32.12 31.97 31.50 31.35 31.77 31.34 30.49 30.43 30.09 29.71 28.06 27.58 26.80 26.75 25.96 25.39 25.00 24.66 24.36 24.35 23.87 23.05 22.90 22.57 22.22
34.63 32.67 33.95 34.69 29.63 24.71 23.71 30.19 36.99 38.90 39.02 35.83 36.48 37.07 36.84 35.35 33.62 33.14 33.09 32.50 32.25 32.10 31.61 31.40 30.75 30.42 30.40 30.90 29.49 29.51 29.31 29.65 29.16 28.19 27.21 26.16 26.08 25.69 25.49 25.09 24.36 23.95 23.30 23.33 22.54 22.29 22.43 22.11 22.03
35.33 35.54 34.25 30.68 27.25 27.59 26.99 33.53 37.34 36.43 36.88 37.79 36.80 37.82 37.95 37.38 35.02 33.92 33.13 32.13 31.69 31.57 30.65 30.71 30.85 30.55 30.36 30.45 29.60 28.73 29.02 28.32 27.97 27.49 26.39 25.87 25.21 25.28 24.78 24.26 23.93 23.54 23.21 22.87 22.30 22.13 22.11 21.54 21.60

GFSSGP_sfc_wetblb_048.txt.gz
Wetbulb
57.41 54.30 52.17 52.39 43.51 39.11 34.26 36.99 38.83 41.02 41.41 44.22 48.12 48.68 46.39 46.87 46.54 40.43 57.30 66.56 69.81 70.64 71.40 71.48 72.62 73.54 73.33 73.20 73.03 72.98 72.99 72.89 71.95 72.59 71.99 71.03 70.18 69.21 68.56 68.02 67.62 67.89 67.74 67.00 66.47 65.94 66.02 66.03 66.68
56.13 56.00 52.37 45.84 37.34 32.67 34.00 37.38 40.70 41.33 44.50 46.65 47.02 45.72 46.95 47.55 53.12 54.96 56.57 67.56 70.25 71.00 71.58 71.36 71.30 72.99 73.09 72.99 72.85 72.87 72.72 72.14 71.67 72.41 71.89 70.74 69.61 68.57 68.15 67.55 67.08 66.99 66.57 65.86 65.37 64.85 64.37 64.15 64.65
54.97 53.22 47.59 41.53 35.49 33.71 35.18 38.84 41.65 44.04 45.42 44.06 44.49 47.51 46.81 47.81 53.95 55.31 57.79 67.57 69.88 70.46 71.37 70.88 71.11 72.60 72.70 72.74 72.83 72.82 72.43 71.99 71.48 72.07 71.68 70.59 69.49 68.55 68.10 67.45 66.67 65.83 65.01 64.13 63.57 63.15 62.70 62.43 62.81
51.26 50.00 45.94 38.32 35.13 36.68 39.50 40.69 41.93 43.49 44.08 46.77 45.49 44.86 49.17 52.18 55.07 57.76 61.21 68.44 68.54 69.67 70.74 69.69 71.18 72.27 72.45 72.39 72.49 72.54 71.95 71.19 71.16 71.60 71.30 70.50 69.36 68.49 68.05 67.60 67.14 66.69 65.83 64.24 62.06 61.15 60.79 60.79 61.52
48.66 45.44 39.22 35.55 36.41 39.40 38.70 41.33 43.20 41.95 41.32 43.18 44.61 42.94 45.95 52.31 57.36 60.10 62.05 65.26 67.47 68.74 69.68 69.62 70.62 71.76 71.94 71.88 72.07 72.06 72.01 71.43 71.08 71.31 70.75 70.39 69.21 68.48 68.16 67.69 67.13 66.57 66.02 65.19 62.50 60.12 59.25 59.16 60.14
45.95 43.03 36.58 33.90 34.76 40.07 41.02 43.15 43.04 40.84 40.92 43.42 44.22 43.22 44.32 49.26 55.00 56.64 58.20 58.35 63.37 67.86 70.02 70.12 67.27 68.63 70.26 71.13 71.43 71.41 71.53 71.16 71.02 71.10 70.58 70.16 69.20 68.60 68.39 67.67 67.10 66.67 66.01 64.97 62.91 60.54 58.44 57.78 58.74
42.85 39.38 36.37 33.73 35.98 38.56 42.42 44.25 41.13 41.06 41.37 41.52 45.87 41.16 42.68 46.77 52.35 55.55 54.40 53.35 54.49 56.81 61.13 67.19 68.51 66.14 66.04 68.16 68.86 69.78 70.49 70.46 70.42 70.48 70.46 69.84 69.31 69.01 68.68 67.92 67.14 66.65 65.97 64.68 62.81 60.91 59.39 57.84 57.78
43.00 39.96 35.11 35.24 36.92 37.79 42.31 42.46 42.78 42.46 40.99 44.65 43.45 40.27 41.06 45.31 51.57 51.02 50.07 49.70 49.75 51.20 52.40 54.85 57.66 67.63 68.07 67.17 65.58 66.90 68.10 68.63 68.91 68.45 67.50 66.64 66.89 67.05 66.86 65.94 67.10 66.68 65.87 64.71 62.87 61.10 59.29 57.67 57.03
41.81 36.21 34.21 36.12 37.53 39.57 42.13 41.71 43.32 43.21 43.65 42.46 43.17 42.13 43.12 47.51 49.49 47.94 46.67 46.86 48.09 50.13 50.39 51.14 53.03 55.91 64.19 67.62 66.05 65.23 65.81 66.15 65.93 65.53 64.34 63.86 64.77 65.26 64.92 64.61 66.18 66.22 65.48 64.29 63.36 61.88 59.30 56.91 57.04
40.67 35.21 37.70 40.59 39.95 40.25 42.52 42.34 43.96 42.29 41.20 39.82 40.23 42.63 44.26 45.84 47.11 45.86 44.07 44.26 44.26 45.88 49.21 51.17 51.47 51.78 54.49 62.69 66.63 67.97 67.25 66.46 66.46 66.32 64.94 65.18 64.70 64.95 64.31 61.81 63.39 64.47 64.03 64.18 63.42 61.77 59.44 55.60 50.72
39.76 37.23 39.78 41.89 43.90 43.59 43.01 41.34 42.86 41.64 39.22 41.96 41.82 43.00 43.53 43.44 43.81 44.01 43.19 43.56 44.60 45.72 50.56 52.19 53.00 54.28 51.83 57.13 65.13 66.24 65.87 65.22 65.50 66.81 65.85 65.88 64.93 63.13 61.72 60.20 60.31 61.43 59.43 58.73 58.04 56.72 56.31 53.30 51.99
37.17 40.85 42.25 44.75 44.65 43.89 42.69 43.25 41.95 41.61 42.04 43.79 43.88 43.54 42.83 42.72 42.71 42.96 43.22 44.04 45.77 47.89 47.63 50.47 52.53 53.41 53.91 53.14 64.85 63.78 63.28 62.78 62.82 63.78 65.53 64.70 63.54 62.42 60.57 62.72 62.32 61.99 61.67 57.99 56.02 55.33 54.22 53.24 53.30
39.54 41.04 43.30 44.53 44.06 42.65 44.33 41.86 42.01 41.27 40.36 42.48 43.63 44.10 42.38 41.88 42.11 42.49 43.72 44.97 47.17 47.20 46.71 49.40 51.34 53.16 54.75 61.76 61.56 60.42 59.31 59.32 59.61 60.80 61.24 62.69 62.66 60.97 60.19 59.12 58.90 58.76 58.65 57.64 54.23 53.27 52.76 51.83 52.13
42.68 42.45 42.69 43.94 43.49 43.37 42.86 41.08 41.82 40.42 40.92 41.46 42.46 41.31 40.91 41.59 41.63 41.50 42.86 44.56 47.18 47.70 47.16 48.94 50.54 55.22 58.31 57.90 57.70 57.26 57.04 57.08 57.15 57.40 57.82 58.81 58.88 58.12 57.19 56.25 55.49 55.61 55.94 55.06 53.38 52.72 51.67 49.41 49.73
42.44 38.37 40.03 41.90 43.14 42.15 42.69 39.26 40.75 41.29 40.79 40.57 40.00 39.01 39.86 41.06 41.57 41.34 42.32 43.83 46.98 47.49 48.20 48.34 49.33 51.84 53.94 53.82 54.99 54.41 54.80 55.24 55.18 55.16 55.15 54.94 55.20 54.49 53.76 53.48 53.28 53.39 53.14 51.42 50.88 47.87 46.93 44.35 45.13
38.16 37.12 34.34 39.94 41.92 41.40 40.53 35.02 40.81 40.55 39.96 39.13 38.62 37.28 38.45 39.68 40.82 40.45 41.94 44.52 46.30 46.51 46.69 47.23 48.96 48.69 48.90 51.89 52.31 51.93 51.66 51.81 52.33 52.90 53.05 52.33 51.43 50.54 48.91 47.05 45.69 46.25 47.32 46.80 44.10 42.74 40.51 40.90 42.31
35.26 32.09 33.22 38.14 41.41 40.16 38.54 36.35 40.16 39.27 39.52 38.44 37.19 37.02 37.90 37.96 38.57 39.18 41.39 45.26 45.53 45.80 45.55 45.07 46.33 46.10 46.08 48.08 47.46 46.53 46.15 46.39 46.85 47.87 47.64 47.11 46.01 45.51 44.53 42.86 41.91 42.56 43.64 43.30 40.18 37.61 37.85 36.89 40.49
32.29 31.84 34.41 34.70 39.06 37.84 35.85 36.95 39.05 39.73 39.39 39.41 37.33 36.89 37.05 37.65 38.68 38.93 41.21 45.03 45.29 45.09 45.07 44.53 45.94 45.87 45.85 44.89 44.05 43.28 42.37 41.54 42.33 42.70 42.59 41.51 41.92 41.12 39.43 37.73 37.68 39.02 38.71 38.04 36.66 34.56 33.84 33.52 38.06
36.07 34.15 34.16 36.38 40.47 38.29 36.84 37.36 39.95 39.78 38.34 37.67 37.31 37.36 37.93 38.57 37.96 38.87 41.36 43.97 44.05 44.15 43.89 44.09 43.67 44.83 45.32 44.06 42.65 41.84 39.34 38.75 38.57 39.10 39.00 37.39 37.59 37.41 36.28 35.46 35.19 35.10 34.44 33.50 34.85 33.95 32.27 32.11 32.77
36.08 34.09 33.70 37.30 39.62 37.90 36.96 36.45 39.18 38.83 39.34 40.97 40.65 39.55 39.43 36.68 36.15 38.29 39.84 42.56 43.01 43.80 43.98 43.86 44.12 45.08 45.90 45.28 41.06 39.50 37.69 36.60 36.48 36.77 35.59 35.28 35.30 34.99 34.71 33.84 32.94 32.73 32.74 31.52 31.51 32.42 31.24 30.35 29.94
36.29 34.32 33.70 36.27 36.30 35.89 33.46 32.39 36.45 40.27 39.64 40.33 41.96 42.98 41.44 39.06 37.18 37.32 39.09 41.94 42.55 42.92 43.09 44.29 44.26 45.31 43.57 40.59 37.99 36.20 36.03 35.67 34.72 33.72 32.57 32.91 33.99 33.97 33.60 32.73 32.48 31.64 31.44 30.28 29.74 30.05 30.16 28.28 28.90
34.00 38.94 38.36 36.89 33.67 29.98 34.37 28.23 33.78 37.17 38.64 39.11 41.81 40.81 41.18 38.96 38.04 38.05 39.20 40.65 42.50 42.88 43.39 44.50 44.29 41.15 40.42 39.59 37.54 36.68 34.29 32.28 30.97 30.91 31.14 31.19 31.89 31.92 32.12 31.97 31.31 30.54 30.55 29.83 29.65 29.90 28.57 28.29 26.69
37.18 39.47 37.01 35.15 32.08 29.62 30.61 28.42 31.82 36.00 36.22 39.24 43.20 41.10 39.97 38.31 37.67 37.64 39.07 42.02 42.14 41.52 41.88 41.29 40.62 40.14 39.59 39.05 38.09 35.92 32.21 31.57 30.61 29.89 28.85 28.76 29.20 29.98 30.19 30.33 29.94 29.76 29.99 28.97 28.79 27.91 27.68 27.32 26.02
39.87 37.36 35.67 33.53 31.79 25.79 32.41 30.71 30.05 35.12 40.03 40.45 43.27 43.08 39.20 37.66 37.45 38.45 39.37 41.19 39.37 37.64 37.39 40.75 39.79 38.55 38.56 37.92 36.18 34.56 31.48 30.33 29.36 28.43 28.00 27.19 27.61 28.23 28.75 29.20 28.76 29.06 28.58 28.08 27.57 26.88 26.69 26.24 25.53
38.15 34.61 26.42 25.28 23.99 26.13 30.94 28.84 35.83 38.27 40.66 42.38 44.16 41.86 37.24 37.39 36.54 36.45 36.67 38.83 37.87 36.18 35.40 37.49 39.13 36.85 36.52 35.46 32.89 32.19 31.50 31.05 29.64 28.59 28.29 27.48 27.05 26.19 26.68 27.71 27.55 27.56 27.53 27.43 27.21 26.38 25.84 25.25 24.54
35.29 34.23 27.67 21.56 22.29 25.08 28.92 27.12 33.80 39.29 42.32 39.79 39.37 39.10 35.94 34.52 35.94 36.18 37.17 38.47 37.28 35.86 34.27 35.88 36.34 35.68 33.48 32.40 31.30 31.26 31.02 30.66 30.28 29.34 28.61 27.66 27.04 27.19 26.92 26.95 27.24 27.02 26.93 26.37 25.69 25.62 25.02 24.21 23.70
34.55 32.06 38.00 30.39 17.21 22.06 29.09 32.17 37.09 37.88 37.76 38.31 38.17 36.31 33.21 33.86 34.75 35.31 36.19 36.48 35.47 34.63 33.80 33.90 33.30 33.32 32.94 32.62 31.18 30.69 30.88 29.82 29.09 27.87 27.68 27.44 26.85 27.53 26.21 25.89 25.38 25.43 25.77 25.43 24.55 24.09 23.26 22.96 23.17
35.60 38.23 30.44 28.54 19.77 18.83 26.49 28.05 32.89 34.00 36.95 39.04 38.43 34.99 33.84 33.24 32.82 33.75 34.20 34.28 34.64 34.48 33.53 32.44 33.19 32.69 32.21 31.65 31.62 31.29 30.83 29.83 29.13 28.79 27.18 26.76 26.09 26.11 25.35 24.70 24.43 24.55 24.85 24.60 23.70 22.74 22.88 22.37 21.98
33.28 32.22 33.15 33.90 28.99 23.69 20.71 28.53 35.35 39.06 38.54 38.44 38.85 36.62 34.78 33.23 32.69 32.74 32.92 33.28 33.17 32.87 30.88 30.84 30.72 30.29 30.04 31.13 30.99 30.02 29.25 29.39 29.17 28.13 27.00 26.60 26.01 25.49 25.25 25.03 24.34 23.94 23.63 23.50 22.66 22.33 22.38 22.06 21.83
34.05 33.57 33.38 28.32 25.88 27.14 26.43 32.62 37.83 37.57 38.02 38.59 38.68 37.06 35.54 34.87 33.08 33.04 32.26 31.41 30.87 30.99 30.85 30.72 30.48 30.42 30.74 30.80 30.08 29.71 29.26 28.41 27.60 26.92 26.06 25.72 25.65 25.28 25.15 24.57 24.20 23.70 23.34 23.00 22.38 22.02 22.17 21.49 21.66